Date StartTime U_cm/s V_cm/s W_cm/s Ustd_cm/s Vstd_cm/s Wstd_cm/s Uvar_(cm/s)^2 Vvar_(cm/s)^2 Wvar_(cm/s)^2 KE_(m/s)^2 TurbulentKE_(m/s)^2 HorizWindSpeed_cm/s FrictionSpeec_cm/s DragCoef SpeedOfSound_m/s SonicTemperature_C Pressure_mb 
04/25/2014  00:00:00     -261.661     -144.092        1.203      148.962      128.747       71.141    22189.746    16575.744     5061.017        6.652        2.191      298.712       60.223        0.041      338.397       11.016      855.375
04/25/2014  00:01:00     -161.017     -140.961       14.936      129.459      128.543       64.366    16759.709    16523.293     4142.948        4.172        1.871      214.001       64.489        0.091      338.415       11.049      855.372
04/25/2014  00:02:00     -130.042     -195.418       -5.369      105.898       98.359       48.068    11214.312     9674.576     2310.577        3.916        1.160      234.732       44.272        0.036      338.399       11.023      855.331
04/25/2014  00:03:00      -79.060     -239.367      -15.888       77.382       70.514       40.893     5988.023     4972.270     1672.215        3.821        0.632      252.086       26.245        0.011      338.444       11.096      855.287
04/25/2014  00:04:00     -125.007     -139.911       -1.791       60.182       71.850       35.818     3621.851     5162.424     1282.950        2.263        0.503      187.622       36.547        0.038      338.400       11.023      855.261
04/25/2014  00:05:00     -267.422     -217.681      -26.563      177.970      128.921       78.503    31673.256    16620.610     6162.718        8.702        2.723      344.818       83.487        0.059      338.324       10.895      855.264
04/25/2014  00:06:00     -311.350     -201.669      -18.742      173.882      130.484       85.217    30235.022    17026.075     7261.893        9.623        2.726      370.958       86.494        0.054      338.223       10.725      855.275
04/25/2014  00:07:00     -330.759     -183.568      -18.761      166.537      146.992       81.920    27734.411    21606.620     6710.898        9.974        2.803      378.285       74.483        0.039      338.304       10.862      855.253
04/25/2014  00:08:00     -232.384      -48.971      -21.877       68.844       98.295       37.750     4739.489     9661.867     1425.026        3.635        0.791      237.488       30.996        0.017      338.406       11.034      855.190
04/25/2014  00:09:00     -157.654      -68.354        1.311       75.919       76.252       32.780     5763.714     5814.320     1074.533        2.109        0.633      171.834       33.019        0.037      338.371       10.976      855.083
04/25/2014  00:10:00     -232.167     -108.242       13.859      148.097      107.751       68.323    21932.776    11610.253     4667.980        5.200        1.911      256.160       70.547        0.076      338.342       10.927      855.216
04/25/2014  00:11:00     -351.356     -180.595        6.214      138.028      114.666       65.124    19051.755    13148.192     4241.116        9.627        1.822      395.051       64.932        0.027      338.329       10.904      855.365
04/25/2014  00:12:00     -348.701     -157.214       -4.105      195.216      152.474       85.403    38109.124    23248.464     7293.671       10.747        3.433      382.503       81.022        0.045      338.258       10.785      855.369
04/25/2014  00:13:00     -257.864     -150.369        7.422      161.412      134.274       85.695    26053.676    18029.429     7343.650        7.028        2.571      298.504       88.947        0.089      338.223       10.725      855.323
04/25/2014  00:14:00      -74.269      -86.638        9.030       99.031       61.663       54.612     9807.174     3802.352     2982.475        1.484        0.830      114.114       63.823        0.313      338.277       10.818      855.300
04/25/2014  00:15:00     -180.736     -102.264        6.840      146.989       96.853       64.235    21605.655     9380.548     4126.074        3.913        1.756      207.662       70.875        0.116      338.262       10.792      855.347
04/25/2014  00:16:00     -322.697     -230.067       -7.587      204.660      139.845       85.273    41885.533    19556.557     7271.534       11.290        3.436      396.313      103.164        0.068      338.267       10.800      855.392
04/25/2014  00:17:00     -373.768     -139.232       -1.484      243.032      143.821       85.153    59064.545    20684.536     7251.116       12.303        4.350      398.859       99.324        0.062      338.212       10.707      855.370
04/25/2014  00:18:00     -423.596     -111.891      -14.039      167.888      156.465       82.039    28186.435    24481.326     6730.322       12.576        2.970      438.124       89.202        0.041      338.197       10.680      855.339
04/25/2014  00:19:00     -296.178      -87.058      -11.355      144.557      168.092       72.013    20896.850    28255.056     5185.932        7.487        2.717      308.707       79.910        0.067      338.219       10.718      855.307
04/25/2014  00:20:00     -277.861     -163.798      -23.177      192.207      163.232       77.650    36943.721    26644.755     6029.510        8.708        3.481      322.547       96.867        0.090      338.212       10.707      855.270
04/25/2014  00:21:00     -326.298     -182.630      -14.058      137.570      106.723       62.494    18925.606    11389.769     3905.527        8.711        1.711      373.930       64.002        0.029      338.204       10.693      855.228
04/25/2014  00:22:00     -192.354      -23.848        1.497      104.838      100.011       52.469    10991.032    10002.275     2752.991        3.065        1.187      193.827       53.517        0.076      338.286       10.832      855.180
04/25/2014  00:23:00      -73.286      -34.068       -2.396       74.360       64.255       43.584     5529.370     4128.741     1899.558        0.905        0.578       80.818       45.807        0.321      338.355       10.950      855.169
04/25/2014  00:24:00     -352.298     -118.557       -2.455      187.334       94.367       67.110    35094.121     8905.086     4503.784        9.333        2.425      371.711       69.297        0.035      338.242       10.758      855.181
04/25/2014  00:25:00     -329.065     -116.895      -16.712      127.621       91.685       60.610    16287.181     8406.172     3673.611        7.529        1.418      349.211       68.071        0.038      338.252       10.773      855.216
04/25/2014  00:26:00     -288.661     -112.565      -26.806       98.552       87.163       44.001     9712.580     7597.348     1936.102        5.798        0.962      309.832       41.813        0.018      338.297       10.850      855.220
04/25/2014  00:27:00     -156.147      -64.519        1.722       96.615       62.804       42.337     9334.486     3944.363     1792.423        2.181        0.754      168.951       41.185        0.059      338.304       10.863      855.241
04/25/2014  00:28:00     -143.040      -59.059       -2.284      102.553       69.575       43.615    10517.196     4840.661     1902.287        2.060        0.863      154.753       46.147        0.089      338.362       10.961      855.259
04/25/2014  00:29:00      -98.540     -102.748       -0.939       89.491       72.824       52.388     8008.714     5303.290     2744.496        1.816        0.803      142.363       47.376        0.111      338.342       10.926      855.275
04/25/2014  00:30:00      -88.444     -114.634       -6.002       64.179       55.258       31.007     4118.930     3053.496      961.441        1.456        0.407      144.787       31.369        0.047      338.367       10.969      855.298
04/25/2014  00:31:00      -97.074     -239.548       -1.972       57.735       68.938       41.137     3333.312     4752.419     1692.289        3.829        0.489      258.470       29.496        0.013      338.365       10.963      855.301
04/25/2014  00:32:00      -87.432     -155.062       -6.866       45.933       53.851       32.251     2109.834     2899.904     1040.131        1.889        0.302      178.013       21.224        0.014      338.464       11.132      855.331
04/25/2014  00:33:00      -58.097      -64.038        4.582       56.800       52.240       31.359     3226.250     2728.971      983.388        0.722        0.347       86.465       33.785        0.153      338.437       11.086      855.331
04/25/2014  00:34:00     -108.819     -235.366      -11.093       74.467       84.058       43.334     5545.313     7065.696     1877.862        4.092        0.724      259.304       39.169        0.023      338.399       11.022      855.286
04/25/2014  00:35:00     -174.904     -144.406       -5.420      112.959       49.158       44.036    12759.788     2416.488     1939.185        3.429        0.856      226.814       48.866        0.046      338.403       11.026      855.217
04/25/2014  00:36:00     -124.018     -120.224        0.136       60.926       53.976       30.882     3711.933     2913.428      953.709        1.871        0.379      172.726       30.222        0.031      338.412       11.043      855.222
04/25/2014  00:37:00     -112.023     -103.242       -1.043       60.380       50.869       33.200     3645.701     2587.654     1102.210        1.527        0.367      152.342       32.500        0.046      338.402       11.027      855.242
04/25/2014  00:38:00     -100.552     -105.153       -7.753       54.497       77.885       29.189     2969.920     6066.117      852.009        1.556        0.494      145.492       20.041        0.019      338.380       10.992      855.241
04/25/2014  00:39:00      -47.499      -12.865        7.123       41.846       28.340       23.073     1751.099      803.176      532.378        0.278        0.154       49.210       22.822        0.215      338.388       11.005      855.194
04/25/2014  00:40:00      -53.307       -4.597       -8.651       29.494       42.879       21.952      869.919     1838.630      481.874        0.306        0.160       53.505       20.543        0.147      338.408       11.038      855.132
04/25/2014  00:41:00     -110.658      -35.381       -0.086       45.243       55.117       26.521     2046.962     3037.909      703.374        0.964        0.289      116.177       21.415        0.034      338.402       11.029      855.089
04/25/2014  00:42:00      -78.033     -119.884       10.532       60.511       85.284       38.426     3661.564     7273.381     1476.586        1.649        0.621      143.044       33.848        0.056      338.441       11.092      855.124
04/25/2014  00:43:00     -113.918     -167.795       -0.205      106.272       98.154       60.260    11293.792     9634.196     3631.325        3.284        1.228      202.812       57.342        0.080      338.467       11.134      855.192
04/25/2014  00:44:00      -88.262      -93.627       10.744       54.337       58.899       36.550     2952.529     3469.074     1335.923        1.221        0.388      128.671       27.598        0.046      338.458       11.124      855.199
04/25/2014  00:45:00      -56.709      -39.550        7.813       71.062       64.589       41.068     5049.870     4171.713     1686.621        0.787        0.545       69.138       18.877        0.075      338.480       11.160      855.121
04/25/2014  00:46:00      -29.195      -35.893       -4.212       29.072       26.862       12.469      845.185      721.584      155.473        0.194        0.086       46.267        4.595        0.010      338.572       11.315      855.072
04/25/2014  00:47:00      -60.087      -93.543        3.044       68.712       50.128       29.170     4721.364     2512.808      850.873        1.023        0.404      111.179       29.757        0.072      338.587       11.338      855.069
04/25/2014  00:48:00     -147.859     -126.882        4.095      149.151       85.180       56.523    22246.024     7255.579     3194.793        3.533        1.635      194.836       62.520        0.103      338.412       11.044      855.124
04/25/2014  00:49:00     -197.456     -117.872        8.013      107.535       83.721       51.987    11563.704     7009.240     2702.629        3.711        1.064      229.962       36.630        0.025      338.412       11.042      855.189
04/25/2014  00:50:00     -257.940     -139.796       -6.936       97.678       87.523       40.712     9540.936     7660.333     1657.440        5.249        0.943      293.388       33.895        0.013      338.404       11.029      855.222
04/25/2014  00:51:00     -101.660      -30.355        2.025       68.976       42.889       26.970     4757.653     1839.504      727.356        0.929        0.366      106.095       18.005        0.029      338.475       11.151      855.228
04/25/2014  00:52:00      -70.839      -78.328        5.581       61.558       42.559       31.486     3789.442     1811.293      991.392        0.889        0.330      105.610       31.075        0.087      338.497       11.189      855.226
04/25/2014  00:53:00     -102.871      -47.581       -4.922       68.502       41.436       31.163     4692.466     1716.922      971.156        1.012        0.369      113.342       33.668        0.088      338.410       11.043      855.240
04/25/2014  00:54:00      -67.297     -172.040       -8.596       53.883       65.694       35.563     2903.404     4315.689     1264.740        2.134        0.424      184.734       22.274        0.015      338.384       10.997      855.232
04/25/2014  00:55:00      -46.613      -87.365      -10.312       50.427       54.104       33.580     2542.868     2927.286     1127.650        0.825        0.330       99.022       31.148        0.099      338.454       11.115      855.229
04/25/2014  00:56:00      -63.822      -55.046        8.476       48.060       24.861       26.081     2309.794      618.045      680.220        0.539        0.180       84.281       27.449        0.106      338.446       11.102      855.235
04/25/2014  00:57:00      -93.756      -26.442      -13.994       32.910       26.194       21.811     1083.067      686.144      475.719        0.596        0.112       97.413       12.370        0.016      338.316       10.886      855.248
04/25/2014  00:58:00      -63.464      -63.285       -0.151       52.986       34.987       27.559     2807.532     1224.064      759.501        0.641        0.240       89.625       21.745        0.059      338.399       11.026      855.310
04/25/2014  00:59:00      -11.183      -39.607       12.855       42.008       70.462       28.898     1764.671     4964.868      835.119        0.471        0.378       41.155       19.264        0.219      338.309       10.873      855.311
04/25/2014  01:00:00     -119.089      -40.196       -0.892      124.724      118.875       60.485    15556.153    14131.344     3658.490        2.457        1.667      125.690       70.133        0.311      338.185       10.664      855.229
04/25/2014  01:01:00     -252.837      -16.754      -30.011      127.755      113.859       55.623    16321.436    12963.966     3093.916        4.874        1.619      253.392       33.524        0.018      338.195       10.679      855.158
04/25/2014  01:02:00     -189.479      -67.566       -4.404       83.089       77.168       43.729     6903.762     5954.842     1912.199        2.763        0.739      201.165       44.979        0.050      338.189       10.669      855.145
04/25/2014  01:03:00     -340.743       18.750      -23.343      158.891       99.795       67.908    25246.447     9959.093     4611.527        7.840        1.991      341.258       74.955        0.048      338.121       10.555      855.106
04/25/2014  01:04:00     -396.280      -15.635      -23.593      162.753       98.389       67.571    26488.666     9680.323     4565.900        9.928        2.037      396.589       79.261        0.040      338.161       10.622      855.039
04/25/2014  01:05:00     -420.295      -48.323      -44.135      160.354      110.316       63.017    25713.261    12169.592     3971.185       11.138        2.093      423.063       65.648        0.024      338.223       10.725      854.949
04/25/2014  01:06:00     -418.784      -73.173      -27.626      129.679      108.221       68.581    16816.686    11711.783     4703.381       10.736        1.662      425.128       66.043        0.024      338.206       10.698      854.865
04/25/2014  01:07:00     -358.028     -118.192      -24.972      126.458      105.224       57.350    15991.606    11071.988     3289.071        8.656        1.518      377.033       54.285        0.021      338.203       10.690      854.849
04/25/2014  01:08:00     -348.960     -150.692        8.147      154.032       93.670       62.566    23725.883     8773.982     3914.534        9.047        1.821      380.107       74.895        0.039      338.176       10.647      854.928
04/25/2014  01:09:00     -416.340     -137.120       -1.982      198.164      141.439       87.122    39269.149    20005.033     7590.277       12.949        3.343      438.338       95.412        0.047      338.265       10.796      855.041
04/25/2014  01:10:00     -367.088      -81.689      -14.311      147.174      111.299       72.184    21660.142    12387.400     5210.553        9.044        1.963      376.067       78.181        0.043      338.140       10.585      855.154
04/25/2014  01:11:00     -368.498     -173.731       -9.689      186.273      125.054       72.211    34697.804    15638.576     5214.369       11.080        2.778      407.398       90.375        0.049      338.104       10.526      855.182
04/25/2014  01:12:00     -122.575     -181.903        7.631       86.966       77.039       54.688     7563.092     5935.079     2990.784        3.233        0.824      219.348       49.397        0.051      338.131       10.569      855.133
04/25/2014  01:13:00     -175.598     -164.022       -9.422       81.498       81.248       40.229     6641.895     6601.238     1618.335        3.634        0.743      240.287       39.648        0.027      338.113       10.542      855.043
04/25/2014  01:14:00     -191.195      -83.641        7.957       93.989       73.872       37.919     8833.996     5457.082     1437.861        2.967        0.786      208.689       39.753        0.036      338.028       10.399      855.006
04/25/2014  01:15:00      -32.980     -115.534       11.665       58.337       95.306       35.701     3403.153     9083.225     1274.559        1.416        0.688      120.149       33.872        0.079      338.160       10.621      854.989
04/25/2014  01:16:00     -122.452     -168.386       -4.790       69.533       87.670       46.536     4834.886     7685.999     2165.575        2.903        0.734      208.203       37.203        0.032      338.254       10.776      854.933
04/25/2014  01:17:00      -22.691      -20.377       12.022       42.159       54.798       39.527     1777.391     3002.814     1562.382        0.371        0.317       30.498       22.921        0.565      338.246       10.767      854.865
04/25/2014  01:18:00       86.723      -97.132       -1.739       81.786       91.134       53.643     6689.005     8305.486     2877.561        1.741        0.894      130.213       54.967        0.178      338.221       10.725      854.848
04/25/2014  01:19:00       -6.679      -85.614       -0.635       58.940       59.092       41.187     3473.933     3491.847     1696.407        0.802        0.433       85.874       30.822        0.129      338.369       10.974      854.894
04/25/2014  01:20:00       12.328     -147.036       -5.260      148.413      134.573       72.245    22026.531    18109.885     5219.307        3.357        2.268      147.551       78.222        0.281      338.333       10.910      854.957
04/25/2014  01:21:00     -147.283     -175.448        3.080       97.624      100.269       54.190     9530.370    10053.875     2936.589        3.750        1.126      229.072       45.333        0.039      338.282       10.824      855.016
04/25/2014  01:22:00      -33.517     -198.357        7.396      138.117      103.716       61.597    19076.257    10757.003     3794.205        3.707        1.681      201.169       51.238        0.065      338.283       10.826      854.996
04/25/2014  01:23:00        6.333      -67.259       47.630       73.284      120.588       61.391     5370.563    14541.497     3768.866        1.525        1.184       67.556       58.829        0.758      338.379       10.991      854.893
04/25/2014  01:24:00       29.634      -30.448       51.309       64.643       90.694       50.122     4178.778     8225.485     2512.243        0.967        0.746       42.489       50.576        1.417      338.248       10.769      854.799
04/25/2014  01:25:00      -48.810      -32.671       13.646       43.512       41.060       33.990     1893.297     1685.939     1155.287        0.418        0.237       58.735       24.381        0.172      338.262       10.792      854.766
04/25/2014  01:26:00     -123.728      -80.787        4.084       76.782       62.226       29.935     5895.544     3872.102      896.102        1.626        0.533      147.767       27.108        0.034      338.145       10.596      854.769
04/25/2014  01:27:00     -154.103      -96.568       12.209       80.902       62.615       43.706     6545.153     3920.684     1910.224        2.280        0.619      181.860       40.922        0.051      338.186       10.664      854.820
04/25/2014  01:28:00     -170.423     -153.124      -13.122       78.213       52.368       37.506     6117.247     2742.408     1406.692        3.146        0.513      229.110       30.297        0.017      338.197       10.681      854.887
04/25/2014  01:29:00     -222.615     -141.646       -7.632      127.425       94.772       54.051    16237.180     8981.694     2921.486        4.890        1.407      263.858       55.052        0.044      338.168       10.631      854.944
04/25/2014  01:30:00     -194.634     -166.144       -2.424      128.087       94.841       57.539    16406.307     8994.780     3310.750        4.710        1.436      255.902       67.436        0.069      338.161       10.621      854.953
04/25/2014  01:31:00     -165.003     -118.543       -1.293      109.593       65.926       41.742    12010.721     4346.172     1742.397        2.969        0.905      203.171       48.825        0.058      338.163       10.626      854.936
04/25/2014  01:32:00     -197.831     -111.059        1.602       88.182       85.941       42.780     7776.061     7385.916     1830.124        3.423        0.850      226.873       43.014        0.036      338.115       10.545      854.886
04/25/2014  01:33:00     -154.820     -126.979        9.832       97.036       72.272       43.785     9416.058     5223.213     1917.088        2.837        0.828      200.232       46.022        0.053      338.062       10.456      854.822
04/25/2014  01:34:00     -128.284      -35.120        5.084       67.034       57.953       31.048     4493.592     3358.507      963.991        1.326        0.441      133.004       32.526        0.060      338.085       10.496      854.805
04/25/2014  01:35:00     -128.131      -98.458       -3.151       68.910       46.986       30.069     4748.539     2207.703      904.126        1.699        0.393      161.590       25.169        0.024      338.094       10.511      854.808
04/25/2014  01:36:00     -169.620     -107.418        1.750       58.691       49.023       29.445     3444.621     2403.301      867.037        2.351        0.336      200.772       28.402        0.020      338.051       10.437      854.808
04/25/2014  01:37:00      -88.545      -64.520        4.324       72.679       41.022       30.209     5282.187     1682.797      912.556        0.995        0.394      109.558       37.965        0.120      338.094       10.512      854.793
04/25/2014  01:38:00     -142.444     -105.834       -8.004       65.095       44.788       30.389     4237.315     2005.986      923.507        1.936        0.358      177.458       31.509        0.032      338.076       10.480      854.792
04/25/2014  01:39:00      -79.186      -71.072        3.680       81.219       48.914       31.576     6596.540     2392.574      997.062        1.066        0.499      106.403       40.441        0.144      338.117       10.550      854.779
04/25/2014  01:40:00      -67.908      -99.217        9.225       64.092       67.427       30.498     4107.771     4546.335      930.110        1.206        0.479      120.231       28.048        0.054      338.126       10.567      854.778
04/25/2014  01:41:00      -92.203     -144.297       -0.561       57.210       64.947       40.427     3272.956     4218.062     1634.313        1.922        0.456      171.239       34.227        0.040      338.204       10.695      854.823
04/25/2014  01:42:00      -78.712      -83.530      -14.844       54.955       47.681       27.145     3020.066     2273.513      736.871        0.971        0.302      114.773       16.812        0.021      338.211       10.708      854.869
04/25/2014  01:43:00     -104.272      -87.243        0.621       85.437       70.930       40.838     7299.470     5031.132     1667.728        1.624        0.700      135.956       28.198        0.043      338.203       10.693      854.910
04/25/2014  01:44:00     -112.088      -69.241       -4.368       36.027       59.219       28.309     1297.919     3506.935      801.401        1.149        0.280      131.750       19.293        0.021      338.149       10.605      854.852
04/25/2014  01:45:00      -15.006       40.204       14.916       30.671       20.718       25.152      940.701      429.226      632.645        0.203        0.100       42.913       11.032        0.066      338.211       10.709      854.732
04/25/2014  01:46:00      -85.697      -12.753      -11.796       40.906       47.014       23.373     1673.279     2210.338      546.317        0.604        0.221       86.641       13.081        0.023      338.223       10.727      854.649
04/25/2014  01:47:00     -164.073     -118.049       -8.288       81.061       74.630       42.151     6570.821     5569.591     1776.675        2.742        0.696      202.128       37.645        0.035      338.168       10.634      854.693
04/25/2014  01:48:00     -208.100     -174.097       -0.290       73.727       75.598       51.403     5435.741     5715.047     2642.224        4.370        0.690      271.322       49.562        0.033      338.135       10.576      854.784
04/25/2014  01:49:00     -172.993     -128.323        3.080      113.773       67.568       46.425    12944.394     4565.490     2155.322        3.303        0.983      215.391       53.818        0.062      338.140       10.586      854.831
04/25/2014  01:50:00     -204.894     -141.210       -0.325      137.740       83.448       63.667    18972.327     6963.606     4053.534        4.595        1.499      248.841       75.421        0.092      338.097       10.514      854.802
04/25/2014  01:51:00     -221.708     -186.596       -9.137      102.532      100.152       57.078    10512.908    10030.372     3257.871        5.392        1.190      289.780       56.500        0.038      338.006       10.360      854.746
04/25/2014  01:52:00     -212.120      -78.222       -3.490       79.556       73.193       45.817     6329.182     5357.155     2099.226        3.245        0.689      226.083       38.996        0.030      337.998       10.349      854.692
04/25/2014  01:53:00      -96.872      -92.868        0.830       70.412       61.029       35.983     4957.874     3724.541     1294.744        1.399        0.499      134.196       30.192        0.051      338.001       10.356      854.658
04/25/2014  01:54:00     -157.270     -109.628        1.230       82.483       79.965       44.153     6803.399     6394.443     1949.490        2.595        0.757      191.709       41.895        0.048      337.986       10.329      854.656
04/25/2014  01:55:00     -143.935      -98.279        1.532       63.151       58.343       35.533     3988.093     3403.924     1262.582        1.951        0.433      174.287       31.268        0.032      338.004       10.360      854.701
04/25/2014  01:56:00     -155.152     -132.661        1.683      114.283       77.357       43.306    13060.609     5984.105     1875.423        3.129        1.046      204.135       47.386        0.054      338.006       10.362      854.755
04/25/2014  01:57:00     -220.574     -107.392       -3.098      110.807       87.826       45.921    12278.246     7713.365     2108.731        4.114        1.105      245.329       47.082        0.037      337.997       10.346      854.766
04/25/2014  01:58:00      -40.346      -61.666       18.504      114.810       73.907       55.743    13181.257     5462.202     3107.285        1.376        1.088       73.692       59.390        0.650      338.005       10.363      854.732
04/25/2014  01:59:00      -69.459      -75.802        7.651       71.078       49.858       34.687     5052.046     2485.776     1203.199        0.968        0.437      102.813       37.806        0.135      337.913       10.207      854.690
04/25/2014  02:00:00     -157.801      -17.618       -3.826       66.208       75.117       36.522     4383.517     5642.588     1333.870        1.829        0.568      158.781       33.542        0.045      337.972       10.306      854.663
04/25/2014  02:01:00     -223.830       36.494       -2.673      108.120       65.721       51.939    11689.990     4319.248     2697.676        3.507        0.935      226.786       53.467        0.056      338.026       10.394      854.669
04/25/2014  02:02:00      -99.042      -25.435        6.324       69.253       59.933       31.751     4796.042     3592.002     1008.148        0.994        0.470      102.256       38.610        0.143      338.082       10.491      854.693
04/25/2014  02:03:00      -66.172      -48.703       11.742       59.174       47.034       26.811     3501.572     2212.158      718.841        0.666        0.322       82.163       28.655        0.122      338.016       10.381      854.695
04/25/2014  02:04:00      -71.232      -67.959       13.420       98.216       54.673       38.633     9646.302     2989.122     1492.492        1.200        0.706       98.450       45.516        0.214      338.042       10.424      854.708
04/25/2014  02:05:00     -315.451      -46.563        3.236      220.818       99.252       55.355    48760.794     9850.890     3064.223        8.167        3.084      318.869       56.741        0.032      337.907       10.196      854.763
04/25/2014  02:06:00     -293.622      -95.946       -7.422      114.610       79.833       52.784    13135.486     6373.334     2786.102        5.888        1.115      308.901       48.385        0.025      337.677        9.809      854.791
04/25/2014  02:07:00     -157.374     -103.077        5.569       86.383       66.774       41.096     7462.045     4458.781     1688.849        2.451        0.680      188.126       35.341        0.035      337.724        9.890      854.796
04/25/2014  02:08:00     -202.048      -54.292       -2.062      140.004      116.705       53.836    19601.208    13620.077     2898.285        3.994        1.806      209.215       48.304        0.053      337.709        9.863      854.792
04/25/2014  02:09:00     -263.737     -135.961       -3.968      136.486       95.591       60.939    18628.359     9137.691     3713.505        5.976        1.574      296.720       64.799        0.048      337.634        9.737      854.749
04/25/2014  02:10:00     -116.648     -118.606       -2.595      107.259       62.048       50.057    11504.535     3850.016     2505.731        2.277        0.893      166.356       50.283        0.091      337.635        9.739      854.664
04/25/2014  02:11:00     -104.611      -87.203        3.712      108.536       58.649       45.146    11780.057     3439.668     2038.132        1.791        0.863      136.191       36.679        0.073      337.680        9.817      854.579
04/25/2014  02:12:00     -167.129      -94.628      -14.837       55.462       48.190       33.767     3076.051     2322.296     1140.217        2.182        0.327      192.059       25.779        0.018      337.668        9.795      854.534
04/25/2014  02:13:00     -172.913        7.760      -19.838       60.589       50.597       31.823     3670.979     2560.006     1012.673        1.880        0.362      173.087       25.988        0.023      337.757        9.946      854.538
04/25/2014  02:14:00     -163.950      -51.410       -3.647       54.287       56.731       30.184     2947.046     3218.401      911.102        1.830        0.354      171.821       28.620        0.028      337.630        9.732      854.547
04/25/2014  02:15:00     -212.516     -119.757        7.360      194.620      105.284       59.350    37876.900    11084.777     3522.397        5.601        2.624      243.936       79.789        0.107      337.655        9.772      854.576
04/25/2014  02:16:00     -377.698     -157.402       -5.346      184.502      103.823       64.956    34041.061    10779.148     4219.261       10.824        2.452      409.184       83.044        0.041      337.358        9.275      854.605
04/25/2014  02:17:00     -228.674       23.256      -13.933      106.717      104.538       51.866    11388.420    10928.230     2690.045        3.901        1.250      229.854       44.686        0.038      337.491        9.498      854.577
04/25/2014  02:18:00     -335.981     -157.377       -6.728      216.587      113.622       78.690    46910.144    12909.871     6192.186       10.184        3.301      371.013      108.483        0.085      337.421        9.381      854.583
04/25/2014  02:19:00     -295.661     -230.308       -8.424      149.274      118.902       79.022    22282.641    14137.640     6244.473        9.159        2.133      374.776       87.686        0.055      337.457        9.440      854.526
04/25/2014  02:20:00     -190.732     -130.294      -13.142      124.413      109.459       65.246    15478.593    11981.304     4257.007        4.262        1.586      230.987       72.976        0.100      337.470        9.462      854.503
04/25/2014  02:21:00     -162.285      -95.021        2.640      113.786       64.309       49.705    12947.250     4135.702     2470.552        2.746        0.978      188.058       58.571        0.097      337.478        9.476      854.491
04/25/2014  02:22:00     -287.970     -134.643       -3.572      150.111      138.718       68.899    22533.199    19242.576     4747.016        7.379        2.326      317.892       85.565        0.072      337.434        9.402      854.449
04/25/2014  02:23:00     -256.591      -46.095      -19.185      127.907       79.970       47.782    16360.221     6395.228     2283.125        4.668        1.252      260.699       49.188        0.036      337.496        9.506      854.426
04/25/2014  02:24:00     -318.066     -170.924      -19.059      137.476      139.170       79.622    18899.741    19368.316     6339.737        8.767        2.230      361.084       64.885        0.032      337.522        9.547      854.400
04/25/2014  02:25:00     -226.949     -179.711       -0.600      177.537      117.542       76.179    31519.299    13816.063     5803.274        6.746        2.557      289.486       88.098        0.093      337.553        9.601      854.386
04/25/2014  02:26:00     -314.468     -132.948       -3.796      181.438      131.001       81.490    32919.772    17161.180     6640.548        8.664        2.836      341.417       92.958        0.074      337.460        9.445      854.375
04/25/2014  02:27:00     -251.333      -71.056        7.161      148.634      121.603       75.290    22092.034    14787.241     5668.649        5.540        2.127      261.184       90.072        0.119      337.461        9.446      854.388
04/25/2014  02:28:00     -269.960     -119.712       -4.915      109.221       92.976       57.538    11929.128     8644.576     3310.587        5.555        1.194      295.312       60.884        0.043      337.327        9.223      854.404
04/25/2014  02:29:00     -184.772      -33.548       16.414      141.239       76.312       64.829    19948.461     5823.525     4202.790        3.275        1.499      187.793       69.612        0.137      337.381        9.313      854.397
04/25/2014  02:30:00     -135.282     -160.187       10.335      150.280      109.621       56.669    22584.020    12016.829     3211.360        4.093        1.891      209.669       72.409        0.119      337.338        9.242      854.430
04/25/2014  02:31:00      -42.518      -65.283      -10.751       43.751       49.756       18.724     1914.189     2475.612      350.585        0.546        0.237       77.908       13.089        0.028      337.332        9.236      854.434
04/25/2014  02:32:00     -258.511      -53.934       -8.574      164.570       87.166       57.443    27083.359     7597.994     3299.703        5.389        1.899      264.078       66.863        0.064      337.293        9.167      854.436
04/25/2014  02:33:00     -207.547      -77.251      -18.637      112.113       66.977       40.848    12569.244     4485.937     1668.531        3.405        0.936      221.458       44.122        0.040      337.330        9.230      854.429
04/25/2014  02:34:00     -231.282      -78.989        5.533      107.129       82.318       59.866    11476.555     6776.335     3583.902        4.079        1.092      244.398       54.206        0.049      337.272        9.132      854.391
04/25/2014  02:35:00     -181.590      -21.736        4.233      150.207       93.860       61.871    22562.244     8809.692     3828.069        3.433        1.760      182.886       73.765        0.163      337.358        9.277      854.359
04/25/2014  02:36:00     -215.100        1.281        1.360      140.819      109.794       64.645    19830.038    12054.619     4178.924        4.116        1.803      215.104       65.294        0.092      337.416        9.374      854.328
04/25/2014  02:37:00     -375.153        6.522      -45.552      116.384      122.472       43.419    13545.175    14999.480     1885.208        8.664        1.521      375.209       31.966        0.007      337.309        9.194      854.317
04/25/2014  02:38:00     -168.856      -19.472      -11.705      117.490       70.772       50.885    13803.916     5008.705     2589.256        2.521        1.070      169.975       61.195        0.130      337.351        9.263      854.326
04/25/2014  02:39:00     -225.135      -98.473      -12.030      119.865       88.757       48.051    14367.565     7877.800     2308.937        4.254        1.228      245.728       40.451        0.027      337.276        9.139      854.315
04/25/2014  02:40:00     -353.249     -131.189       -1.587      119.491      106.926       50.849    14278.037    11433.108     2585.639        8.514        1.415      376.823       52.445        0.019      337.298        9.174      854.332
04/25/2014  02:41:00     -343.620      -70.384      -13.750      125.763       86.553       61.697    15816.298     7491.395     3806.541        7.516        1.356      350.754       71.342        0.041      337.395        9.338      854.341
04/25/2014  02:42:00     -236.841      -75.955       -2.078       99.641       85.381       47.883     9928.280     7289.989     2292.775        4.069        0.976      248.722       47.799        0.037      337.382        9.315      854.323
04/25/2014  02:43:00     -217.498      -79.380       -8.103       88.202       68.167       40.697     7779.575     4646.734     1656.208        3.387        0.704      231.531       38.356        0.027      337.349        9.260      854.310
04/25/2014  02:44:00     -272.740     -117.338       -8.201      131.509       80.987       48.920    17294.686     6558.870     2393.174        5.723        1.312      296.909       53.442        0.032      337.273        9.133      854.277
04/25/2014  02:45:00     -281.512      -93.539        0.645      180.599       94.523       69.059    32615.947     8934.650     4769.150        6.715        2.316      296.646       82.545        0.077      337.255        9.103      854.245
04/25/2014  02:46:00     -247.461      -33.729        9.598      147.666       88.537       64.577    21805.181     7838.792     4170.169        4.813        1.691      249.749       72.736        0.085      337.217        9.040      854.257
04/25/2014  02:47:00     -265.432      -17.739       -0.214      120.691       88.126       66.159    14566.271     7766.241     4376.973        4.873        1.335      266.024       61.845        0.054      337.320        9.213      854.239
04/25/2014  02:48:00     -204.911      -68.824       -2.889       78.923       67.335       38.160     6228.844     4533.976     1456.206        2.947        0.611      216.161       32.937        0.023      337.257        9.107      854.233
04/25/2014  02:49:00     -251.689     -106.044       -9.661      107.246      111.826       62.935    11501.605    12505.003     3960.826        5.132        1.398      273.117       66.773        0.060      337.294        9.168      854.218
04/25/2014  02:50:00     -150.756     -109.270        9.867      116.971       99.446       71.436    13682.266     9889.558     5103.055        3.171        1.434      186.192       62.705        0.113      337.253        9.101      854.192
04/25/2014  02:51:00     -346.910     -166.275       -9.935      158.182      146.101       69.345    25021.500    21345.618     4808.673        9.962        2.559      384.700       64.406        0.028      337.242        9.082      854.182
04/25/2014  02:52:00     -280.961      -53.045       -2.624      160.098      103.769       60.299    25631.486    10767.909     3635.963        6.089        2.002      285.924       67.163        0.055      337.277        9.142      854.192
04/25/2014  02:53:00     -123.381      -57.638        8.061      128.792       85.022       61.580    16587.320     7228.714     3792.064        2.310        1.380      136.180       60.335        0.196      337.312        9.200      854.204
04/25/2014  02:54:00     -371.466     -119.090      -21.988      155.158      152.663       70.512    24074.098    23306.094     4971.911       10.249        2.618      390.089       77.588        0.040      337.250        9.093      854.193
04/25/2014  02:55:00     -237.060      -84.414       -1.233      134.984      110.912       58.591    18220.656    12301.417     3432.855        4.863        1.698      251.641       61.082        0.059      337.249        9.093      854.190
04/25/2014  02:56:00     -246.136     -117.797       -7.810      137.257       95.308       54.468    18839.614     9083.700     2966.807        5.270        1.545      272.872       57.140        0.044      337.253        9.100      854.169
04/25/2014  02:57:00     -108.217      -74.782       11.317       59.327       58.365       38.486     3519.659     3406.459     1481.194        1.292        0.420      131.542       34.911        0.070      337.272        9.134      854.135
04/25/2014  02:58:00     -124.869      -76.145       -9.642       78.571       93.069       46.836     6173.398     8661.784     2193.566        1.925        0.851      146.254       49.756        0.116      337.282        9.150      854.106
04/25/2014  02:59:00     -151.852     -118.070        1.200      105.750       97.663       56.544    11183.072     9537.968     3197.213        3.045        1.196      192.353       56.764        0.087      337.233        9.066      854.090
04/25/2014  03:00:00     -201.720     -118.470        8.302      143.825       92.576       69.830    20685.683     8570.285     4876.186        4.446        1.707      233.937       83.045        0.126      337.255        9.103      854.089
04/25/2014  03:01:00     -219.415     -123.717       -3.968      123.026       84.121       58.626    15135.490     7076.316     3437.015        4.455        1.282      251.891       63.082        0.063      337.231        9.064      854.084
04/25/2014  03:02:00     -193.791     -143.534        8.847      134.250      113.263       60.071    18023.163    12828.555     3608.575        4.634        1.723      241.157       70.529        0.086      337.245        9.088      854.080
04/25/2014  03:03:00     -276.498     -110.669        1.330      168.653       91.228       59.015    28443.677     8322.552     3482.786        6.447        2.012      297.824       60.943        0.042      337.251        9.095      854.069
04/25/2014  03:04:00     -153.031      -77.858        5.744      136.077       87.503       56.783    18516.831     7656.770     3224.261        2.945        1.470      171.698       68.812        0.161      337.331        9.229      854.067
04/25/2014  03:05:00     -330.465      -11.897      -23.727      134.210       99.240       54.629    18012.341     9848.522     2984.373        7.037        1.542      330.679       56.772        0.029      337.324        9.219      854.053
04/25/2014  03:06:00     -166.572      -84.139       14.178      110.614      113.794       50.262    12235.522    12949.145     2526.247        3.136        1.386      186.616       58.354        0.098      337.306        9.189      854.062
04/25/2014  03:07:00     -206.307     -122.428      -10.789      110.034       85.084       46.086    12107.410     7239.308     2123.882        3.956        1.074      239.898       47.679        0.040      337.267        9.125      854.020
04/25/2014  03:08:00     -164.496     -139.612       -0.960       89.807       72.892       37.835     8065.383     5313.272     1431.499        3.068        0.741      215.755        8.424        0.002      337.282        9.149      853.956
04/25/2014  03:09:00     -227.786      -91.768        3.176       97.791       83.451       50.184     9563.067     6964.057     2518.460        3.968        0.952      245.576       54.218        0.049      337.262        9.114      853.902
04/25/2014  03:10:00     -147.347      -94.075       -9.763      118.419       78.034       52.650    14023.117     6089.360     2772.042        2.677        1.144      174.818       54.489        0.097      337.296        9.174      853.922
04/25/2014  03:11:00     -182.578     -127.247        0.848      109.049       89.741       64.267    11891.668     8053.371     4130.215        3.680        1.204      222.546       55.119        0.061      337.265        9.121      853.938
04/25/2014  03:12:00     -207.134     -164.613       -7.606       93.358       68.921       48.620     8715.650     4750.111     2363.879        4.294        0.791      264.579       42.755        0.026      337.245        9.086      853.931
04/25/2014  03:13:00     -152.823      -62.617       -0.310       68.301       61.749       37.664     4664.991     3812.998     1418.585        1.858        0.495      165.153       32.870        0.040      337.262        9.116      853.871
04/25/2014  03:14:00      -93.449      -12.066        5.599      110.658       70.047       49.080    12245.224     4906.635     2408.851        1.423        0.978       94.224       58.208        0.382      337.270        9.130      853.785
04/25/2014  03:15:00     -131.663      -10.127       11.393       87.997       70.443       45.543     7743.419     4962.166     2074.167        1.617        0.739      132.052       43.480        0.108      337.290        9.164      853.726
04/25/2014  03:16:00     -143.653      -61.048        6.800       73.224       47.456       34.644     5361.744     2252.030     1200.223        1.661        0.441      156.086       31.625        0.041      337.238        9.077      853.728
04/25/2014  03:17:00     -184.209     -147.578       -2.642       75.238       56.124       35.997     5660.817     3149.888     1295.798        3.291        0.505      236.034       38.313        0.026      337.247        9.089      853.751
04/25/2014  03:18:00     -229.455     -156.037       -3.445       93.985       72.298       47.083     8833.241     5226.970     2216.830        4.664        0.814      277.483       40.544        0.021      337.259        9.107      853.750
04/25/2014  03:19:00     -179.187     -136.172       -2.752       87.592       91.115       48.246     7672.393     8301.880     2327.656        3.448        0.915      225.057       48.846        0.047      337.212        9.031      853.701
04/25/2014  03:20:00     -133.038      -31.350        6.806      109.450       68.246       44.593    11979.296     4657.579     1988.578        1.867        0.931      136.682       57.148        0.175      337.304        9.186      853.623
04/25/2014  03:21:00     -147.320     -124.139        6.939      103.567       87.645       52.238    10726.197     7681.690     2728.849        2.915        1.057      192.649       55.123        0.082      337.274        9.135      853.581
04/25/2014  03:22:00     -128.044     -101.490       21.372      125.260       84.284       57.775    15690.192     7103.794     3337.956        2.664        1.307      163.388       68.418        0.175      337.251        9.097      853.585
04/25/2014  03:23:00     -205.329     -101.847       12.876      136.079       74.500       49.136    18517.431     5550.244     2414.315        3.959        1.324      229.200       61.840        0.073      337.205        9.020      853.616
04/25/2014  03:24:00     -271.488      -94.065        5.596      102.730       94.222       53.627    10553.413     8877.809     2875.879        5.244        1.115      287.322       54.648        0.036      337.191        8.994      853.607
04/25/2014  03:25:00     -247.415     -144.589        1.013      119.619       88.302       54.764    14308.631     7797.178     2999.066        5.361        1.255      286.566       64.712        0.051      337.195        9.002      853.589
04/25/2014  03:26:00     -284.029     -106.077      -10.883      114.436      102.547       52.126    13095.487    10515.820     2717.073        5.918        1.316      303.191       58.599        0.037      337.197        9.007      853.595
04/25/2014  03:27:00     -216.844     -110.935       11.550      132.776       90.805       57.958    17629.540     8245.507     3359.129        4.434        1.462      243.573       64.018        0.069      337.195        9.003      853.599
04/25/2014  03:28:00     -260.313     -143.996      -14.326      156.388       77.642       57.905    24457.300     6028.343     3352.952        6.126        1.692      297.486       65.343        0.048      337.175        8.970      853.580
04/25/2014  03:29:00     -208.493     -130.231        1.550       86.490       85.277       49.485     7480.449     7272.179     2448.764        3.881        0.860      245.824       45.222        0.034      337.178        8.974      853.546
04/25/2014  03:30:00     -207.570      -53.813       -5.328       92.361       85.816       42.183     8530.469     7364.325     1779.413        3.184        0.884      214.432       43.097        0.040      337.198        9.009      853.486
04/25/2014  03:31:00     -250.116     -138.678       -5.640       97.091       80.539       45.973     9426.662     6486.521     2113.475        4.992        0.901      285.989       37.112        0.017      337.176        8.973      853.450
04/25/2014  03:32:00     -169.409      -63.397       -2.368       69.961       55.779       33.642     4894.527     3111.311     1131.811        2.093        0.457      180.882       30.236        0.028      337.169        8.961      853.430
04/25/2014  03:33:00     -181.098      -48.916       -3.770       73.897       63.578       34.864     5460.742     4042.158     1215.477        2.296        0.536      187.588       26.832        0.020      337.181        8.981      853.446
04/25/2014  03:34:00     -293.351      -77.447      -17.501      100.232       99.254       56.797    10046.539     9851.329     3225.932        5.774        1.156      303.402       55.474        0.033      337.144        8.919      853.479
04/25/2014  03:35:00     -287.532      -86.971       -3.717       84.708       61.162       48.436     7175.403     3740.821     2346.011        5.175        0.663      300.398       43.073        0.021      337.132        8.895      853.481
04/25/2014  03:36:00     -182.017     -112.840      -13.672      102.213       82.839       55.903    10447.481     6862.280     3125.100        3.324        1.022      214.156       43.776        0.042      337.160        8.945      853.468
04/25/2014  03:37:00     -139.061      -88.807       -3.862       80.241       64.205       37.842     6438.542     4122.287     1432.039        1.961        0.600      164.999       40.451        0.060      337.160        8.944      853.425
04/25/2014  03:38:00     -176.572     -110.563       -9.500       94.366       77.237       44.927     8905.027     5965.494     2018.417        3.019        0.844      208.331       52.399        0.063      337.105        8.851      853.360
04/25/2014  03:39:00      -89.706      -24.294       18.443       79.554       54.143       44.764     6328.806     2931.435     2003.807        1.012        0.563       92.938       44.962        0.234      337.125        8.888      853.311
04/25/2014  03:40:00     -168.252      -82.880        2.083       89.861       62.050       40.391     8075.074     3850.237     1631.453        2.437        0.678      187.558       34.685        0.034      337.113        8.864      853.301
04/25/2014  03:41:00     -130.281      -94.742       -2.120       73.452       61.681       40.882     5395.130     3804.560     1671.371        1.841        0.544      161.088       37.623        0.055      337.127        8.889      853.288
04/25/2014  03:42:00     -198.142      -30.420       -8.559       71.972       57.526       33.442     5179.987     3309.215     1118.358        2.493        0.480      200.464       34.067        0.029      337.137        8.904      853.278
04/25/2014  03:43:00     -211.106      -95.404        1.153       87.835       55.816       36.042     7715.070     3115.444     1299.041        3.290        0.606      231.663       35.216        0.023      337.155        8.936      853.274
04/25/2014  03:44:00     -132.593      -43.009        7.306       93.231       63.737       38.120     8692.101     4062.360     1453.148        1.684        0.710      139.394       36.076        0.067      337.147        8.924      853.268
04/25/2014  03:45:00     -146.783      -53.775      -10.390       49.683       46.380       28.886     2468.401     2151.138      834.399        1.500        0.273      156.323       24.682        0.025      337.172        8.965      853.246
04/25/2014  03:46:00      -87.178      -42.518        3.447       48.250       44.836       33.303     2328.031     2010.276     1109.085        0.743        0.272       96.994       30.326        0.098      337.131        8.899      853.206
04/25/2014  03:47:00     -106.062      -35.947        2.412       62.796       49.645       24.874     3943.366     2464.648      618.694        0.979        0.351      111.988       24.128        0.046      337.103        8.851      853.194
04/25/2014  03:48:00     -126.581        7.665        0.857       50.902       49.663       31.725     2591.046     2466.442     1006.486        1.107        0.303      126.812       25.578        0.041      337.083        8.816      853.221
04/25/2014  03:49:00     -215.636      -43.896       -2.868       91.040       54.091       37.263     8288.216     2925.795     1388.552        3.052        0.630      220.058       41.481        0.036      337.056        8.767      853.238
04/25/2014  03:50:00     -183.392      -58.661       -7.771       52.800       52.085       32.600     2787.803     2712.853     1062.741        2.185        0.328      192.545       29.108        0.023      337.063        8.781      853.241
04/25/2014  03:51:00      -83.716      -26.426       -1.450       66.572       37.143       25.180     4431.798     1379.609      634.047        0.708        0.322       87.788       29.310        0.111      337.130        8.896      853.252
04/25/2014  03:52:00      -16.602      -28.452       12.376       41.537       42.522       25.293     1725.357     1808.101      639.751        0.270        0.209       32.942       28.228        0.734      337.175        8.972      853.246
04/25/2014  03:53:00     -152.513      -90.451       -8.802       72.798       61.127       34.616     5299.552     3736.479     1198.263        2.087        0.512      177.317       29.772        0.028      337.131        8.895      853.252
04/25/2014  03:54:00     -218.012     -109.976       -7.526       92.269       91.574       42.175     8513.507     8385.734     1778.760        3.918        0.934      244.181       37.394        0.023      337.160        8.943      853.263
04/25/2014  03:55:00     -174.711      -40.234        1.844       91.841       85.723       44.389     8434.752     7348.497     1970.343        2.495        0.888      179.284       39.753        0.049      337.178        8.977      853.249
04/25/2014  03:56:00     -174.038      -81.620      -12.671       61.177       57.934       42.005     3742.575     3356.320     1764.454        2.299        0.443      192.226       37.408        0.038      337.164        8.952      853.220
04/25/2014  03:57:00     -161.112      -50.402       -5.669       42.813       54.392       30.004     1832.993     2958.485      900.248        1.711        0.285      168.812       17.458        0.011      337.195        9.004      853.187
04/25/2014  03:58:00     -180.017        5.113       -7.740       64.778       41.890       30.722     4196.183     1754.811      943.846        1.969        0.345      180.089       29.551        0.027      337.109        8.859      853.172
04/25/2014  03:59:00     -181.638      -16.176      -14.065       88.502       65.121       28.259     7832.611     4240.767      798.546        2.316        0.644      182.357       28.871        0.025      337.142        8.914      853.168
04/25/2014  04:00:00     -236.356      -57.494      -16.461       55.817       50.103       30.864     3115.486     2510.263      952.598        3.301        0.329      243.248       27.697        0.013      337.135        8.899      853.165
04/25/2014  04:01:00     -160.444      -21.432      -14.506       50.812       35.484       19.002     2581.855     1259.086      361.084        1.531        0.210      161.869       14.782        0.008      337.129        8.895      853.154
04/25/2014  04:02:00     -126.172      -20.438      -14.982       38.544       35.046       21.798     1485.609     1228.204      475.164        0.987        0.159      127.816       18.491        0.021      337.163        8.951      853.146
04/25/2014  04:03:00     -137.674      -24.895       -5.491       71.112       44.775       28.644     5056.893     2004.762      820.496        1.374        0.394      139.907       32.777        0.055      337.154        8.935      853.150
04/25/2014  04:04:00     -189.729      -32.244      -18.221       41.960       44.296       27.513     1760.677     1962.104      756.965        2.092        0.224      192.449       18.419        0.009      337.136        8.903      853.170
04/25/2014  04:05:00     -192.674      -23.451       -2.797       60.016       56.819       40.352     3601.878     3228.415     1628.250        2.307        0.423      194.096       37.938        0.038      337.123        8.882      853.194
04/25/2014  04:06:00     -146.561      -50.311        0.352       61.943       41.353       29.645     3836.905     1710.066      878.800        1.522        0.321      154.956       31.020        0.040      337.120        8.877      853.210
04/25/2014  04:07:00     -180.041      -35.737      -20.209       66.974       62.464       44.556     4485.565     3901.725     1985.244        2.223        0.519      183.554       39.765        0.047      337.182        8.982      853.202
04/25/2014  04:08:00     -169.852      -53.931       -8.864       72.471       58.397       34.787     5252.061     3410.181     1210.111        2.085        0.494      178.209       30.546        0.029      337.191        8.998      853.176
04/25/2014  04:09:00      -92.272      -78.785       -2.557       54.864       40.430       25.968     3010.046     1634.560      674.326        1.002        0.266      121.331       27.263        0.050      337.229        9.062      853.144
04/25/2014  04:10:00      -64.620      -72.097      -15.430       40.110       20.083       12.942     1608.799      403.319      167.500        0.590        0.109       96.818        9.797        0.010      337.176        8.976      853.119
04/25/2014  04:11:00      -38.552       -2.592      -10.657       26.624       36.688       11.354      708.815     1346.030      128.920        0.189        0.109       38.639        9.311        0.058      337.183        8.987      853.101
04/25/2014  04:12:00      -28.796       33.282       -1.806       20.670       46.810       22.718      427.251     2191.219      516.113        0.254        0.157       44.010       17.573        0.159      337.158        8.944      853.092
04/25/2014  04:13:00      -21.813       13.930       10.590       23.665       18.217       15.577      560.026      331.865      242.630        0.096        0.057       25.881       14.948        0.334      337.235        9.074      853.079
04/25/2014  04:14:00      -51.211      -20.035        2.324       31.196       30.424       17.194      973.175      925.632      295.624        0.261        0.110       54.991       17.896        0.106      337.167        8.958      853.076
04/25/2014  04:15:00      -70.033      -28.577        0.062       30.419       37.238       16.757      925.305     1386.659      280.806        0.416        0.130       75.639        7.893        0.011      337.184        8.988      853.060
04/25/2014  04:16:00     -121.991       29.439      -16.780       42.022       36.015       19.919     1765.871     1297.110      396.770        0.974        0.173      125.493       21.060        0.028      337.168        8.963      853.030
04/25/2014  04:17:00      -73.086      -46.706        1.286       36.148       30.429       18.267     1306.675      925.943      333.682        0.504        0.128       86.736       18.114        0.044      337.199        9.015      853.029
04/25/2014  04:18:00     -104.653      -64.619        0.555       43.842       39.394       27.684     1922.090     1551.860      766.405        0.968        0.212      122.995       25.870        0.044      337.167        8.960      853.051
04/25/2014  04:19:00      -65.743        8.446       -5.839       12.808       10.708        8.266      164.046      114.666       68.333        0.239        0.017       66.283        2.944        0.002      337.175        8.976      853.040
04/25/2014  04:20:00      -68.018      -63.928       -1.335       44.231       58.762       24.688     1956.402     3453.019      609.517        0.737        0.301       93.344       22.238        0.057      337.218        9.045      853.017
04/25/2014  04:21:00      -32.315     -139.406       -4.660       44.439       43.084       30.400     1974.839     1856.273      924.134        1.263        0.238      143.102       23.330        0.027      337.208        9.028      852.988
04/25/2014  04:22:00      -96.596      -63.485        9.158       51.474       35.781       26.815     2649.524     1280.278      719.055        0.905        0.232      115.590       30.275        0.069      337.249        9.097      852.989
04/25/2014  04:23:00      -59.440      -39.345        3.315       42.249       34.745       22.111     1784.940     1207.225      488.906        0.429        0.174       71.283       20.751        0.085      337.238        9.079      853.023
04/25/2014  04:24:00     -116.530      -74.894       -5.326       28.575       39.525       18.731      816.525     1562.195      350.867        1.097        0.136      138.521        7.484        0.003      337.231        9.066      853.039
04/25/2014  04:25:00     -160.974     -105.356      -10.193       64.552       65.954       32.510     4167.015     4349.887     1056.882        2.334        0.479      192.386       26.245        0.019      337.214        9.036      853.026
04/25/2014  04:26:00     -139.111      -85.229       -6.551       89.237       75.270       31.542     7963.262     5665.545      994.908        2.064        0.731      163.144       34.021        0.043      337.213        9.035      852.987
04/25/2014  04:27:00     -135.950      -63.671       -1.200       59.918       43.151       30.826     3590.186     1862.003      950.246        1.447        0.320      150.121       30.193        0.040      337.243        9.086      852.966
04/25/2014  04:28:00     -104.498      -83.274        3.414       73.553       43.819       37.679     5409.979     1920.136     1419.684        1.331        0.437      133.620       31.487        0.056      337.272        9.133      852.959
04/25/2014  04:29:00      -57.344      -78.474       10.950       68.444       53.078       39.657     4684.613     2817.320     1572.692        0.932        0.454       97.193       34.217        0.124      337.232        9.067      852.923
04/25/2014  04:30:00     -103.365      -65.092       -0.584       86.872       87.621       45.475     7546.659     7677.363     2067.942        1.610        0.865      122.152       51.739        0.179      337.163        8.951      852.910
04/25/2014  04:31:00     -153.392       11.173        5.827       95.611       72.653       48.709     9141.540     5278.530     2372.597        2.024        0.840      153.799       54.494        0.126      337.125        8.884      852.925
04/25/2014  04:32:00     -146.615      -49.946        4.284       73.941       67.448       45.039     5467.283     4549.261     2028.466        1.802        0.602      154.889       48.019        0.096      337.130        8.894      852.929
04/25/2014  04:33:00     -198.577      -76.295       -3.305       86.216       58.183       38.566     7433.259     3385.301     1487.306        2.878        0.615      212.729       43.312        0.041      337.138        8.907      852.886
04/25/2014  04:34:00     -196.481      -92.641       -1.983       84.869       79.656       36.970     7202.731     6345.151     1366.753        3.105        0.746      217.226       31.543        0.021      337.143        8.916      852.839
04/25/2014  04:35:00     -182.240     -169.074      -13.755       94.231       82.806       58.019     8879.456     6856.857     3366.173        4.054        0.955      248.590       44.866        0.033      337.125        8.886      852.836
04/25/2014  04:36:00      -79.501      -90.636       10.650       77.620       60.287       44.321     6024.821     3634.563     1964.312        1.313        0.581      120.563       44.873        0.139      337.131        8.896      852.877
04/25/2014  04:37:00     -179.989     -108.217        8.765      107.869       64.085       40.961    11635.766     4106.879     1677.791        3.080        0.871      210.017       36.175        0.030      337.100        8.844      852.903
04/25/2014  04:38:00     -164.929     -104.426       -2.600      100.763      108.233       46.950    10153.177    11714.479     2204.344        3.109        1.204      195.208       51.361        0.069      337.096        8.836      852.924
04/25/2014  04:39:00     -202.353      -32.154        8.424      133.205       91.683       57.561    17743.605     8405.706     3313.291        3.575        1.473      204.892       63.978        0.098      336.997        8.671      852.931
04/25/2014  04:40:00     -208.844      -75.187       16.223      155.475      121.945       68.200    24172.590    14870.621     4651.223        4.660        2.185      221.966       80.635        0.132      336.991        8.660      852.922
04/25/2014  04:41:00      -75.943      -28.531       26.186      112.952       79.740       54.080    12758.166     6358.511     2924.642        1.465        1.102       81.126       45.426        0.314      337.028        8.724      852.860
04/25/2014  04:42:00     -393.351      -77.075      -25.914      175.011      117.788       65.341    30628.762    13873.982     4269.440       10.504        2.439      400.831       87.284        0.047      336.961        8.611      852.798
04/25/2014  04:43:00     -354.072     -150.932       -3.094      124.153      107.407       69.825    15413.984    11536.220     4875.551        8.999        1.591      384.899       62.944        0.027      336.906        8.517      852.785
04/25/2014  04:44:00     -339.304      -77.164       -5.529      183.777      134.858       74.669    33773.830    18186.606     5575.408        8.931        2.877      347.967       89.155        0.066      336.886        8.484      852.829
04/25/2014  04:45:00     -245.408      -89.943        1.704      174.632      142.590       70.303    30496.462    20331.972     4942.539        6.203        2.789      261.371       76.534        0.086      336.896        8.502      852.870
04/25/2014  04:46:00     -313.254      -71.398       -4.773      226.841      126.997       68.092    51456.746    16128.322     4636.534        8.772        3.611      321.287       77.259        0.058      336.902        8.513      852.870
04/25/2014  04:47:00     -300.425       -5.344      -17.816      132.343      100.587       55.269    17514.750    10117.684     3054.624        6.064        1.534      300.473       63.341        0.044      336.812        8.361      852.842
04/25/2014  04:48:00     -280.192      -47.432        5.442      153.755      127.133       64.683    23640.583    16162.745     4183.916        6.238        2.199      284.179       72.591        0.065      336.801        8.344      852.804
04/25/2014  04:49:00     -264.728      -82.758      -20.358      146.368       86.692       56.308    21423.524     7515.435     3170.622        5.472        1.605      277.363       62.823        0.051      336.881        8.478      852.809
04/25/2014  04:50:00     -443.742      -99.439      -21.637      192.310      119.052       68.002    36983.117    14173.443     4624.236       13.151        2.789      454.748       69.256        0.023      336.772        8.295      852.828
04/25/2014  04:51:00     -543.160     -130.264      -21.837      239.708      167.082       95.402    57459.859    27916.228     9101.583       20.345        4.724      558.562      115.757        0.043      336.701        8.177      852.820
04/25/2014  04:52:00     -292.704     -119.276       -3.310      138.162      144.941       72.909    19088.832    21007.773     5315.792        7.265        2.271      316.074       78.010        0.061      336.755        8.267      852.860
04/25/2014  04:53:00     -361.044     -233.073       14.274      292.402      160.639      115.723    85498.962    25804.937    13391.828       15.476        6.235      429.740      142.270        0.110      336.665        8.117      852.819
04/25/2014  04:54:00     -306.385      -29.755      -10.629      223.915      150.714       89.689    50138.007    22714.825     8044.186        8.787        4.045      307.827      107.763        0.123      336.661        8.110      852.856
04/25/2014  04:55:00     -240.041      -60.216       -2.018      174.682      113.180       72.528    30513.911    12809.814     5260.354        5.491        2.429      247.479       63.281        0.065      336.623        8.047      852.848
04/25/2014  04:56:00     -560.784     -131.653      -22.966      173.555      136.148       77.130    30121.347    18536.255     5948.996       19.346        2.730      576.030       72.205        0.016      336.544        7.915      852.824
04/25/2014  04:57:00     -488.705     -181.000      -47.173      188.961      162.134       83.392    35706.342    26287.459     6954.284       17.137        3.447      521.146       85.117        0.027      336.528        7.889      852.797
04/25/2014  04:58:00     -340.722     -109.924       -4.333      163.200      127.063       67.863    26634.363    16144.983     4605.454        8.778        2.369      358.015       81.712        0.052      336.531        7.893      852.827
04/25/2014  04:59:00     -217.836     -199.890        4.329      168.918      150.204       86.233    28533.314    22561.113     7436.087        7.297        2.927      295.649      102.595        0.120      336.559        7.941      852.864
04/25/2014  05:00:00     -325.541      -99.446      -12.197      192.773      133.293       76.360    37161.596    17767.030     5830.812        8.838        3.038      340.392       82.703        0.059      336.538        7.903      852.905
04/25/2014  05:01:00     -262.584     -146.375        2.484      156.972      173.609       89.397    24640.197    30140.012     7991.785        7.656        3.139      300.626       86.919        0.084      336.522        7.879      852.879
04/25/2014  05:02:00      -76.994      -31.411       31.026      157.935      113.457       77.903    24943.621    12872.393     6068.870        2.587        2.194       83.154       93.384        1.261      336.545        7.917      852.834
04/25/2014  05:03:00     -197.388       -2.185       23.837      232.413      175.860       95.434    54015.617    30926.642     9107.667        6.677        4.702      197.400      112.587        0.325      336.528        7.887      852.803
04/25/2014  05:04:00     -154.491      -52.708       21.051      166.197      133.077       75.592    27621.524    17709.495     5714.162        3.906        2.552      163.235       98.190        0.362      336.542        7.912      852.767
04/25/2014  05:05:00     -295.859     -134.030       -2.630      168.942      132.374       65.977    28541.339    17522.795     4352.947        7.795        2.521      324.802       73.881        0.052      336.535        7.900      852.786
04/25/2014  05:06:00     -203.597      -57.833      -12.367      129.646      104.969       55.436    16808.127    11018.592     3073.151        3.792        1.545      211.652       52.707        0.062      336.555        7.935      852.768
04/25/2014  05:07:00     -246.417      -65.513        6.553      125.578      108.005       61.607    15769.915    11665.059     3795.387        4.814        1.562      254.977       55.533        0.047      336.511        7.859      852.799
04/25/2014  05:08:00     -215.222     -102.064       -3.119      141.309      123.881       59.947    19968.224    15346.404     3593.617        4.782        1.945      238.196       65.955        0.077      336.530        7.892      852.830
04/25/2014  05:09:00     -274.720      -61.861      -16.417      146.586       98.388       54.289    21487.419     9680.162     2947.249        5.683        1.706      281.599       56.686        0.041      336.529        7.891      852.823
04/25/2014  05:10:00     -153.952     -149.695       27.916      161.606      141.505       85.112    26116.597    20023.527     7244.107        5.013        2.669      214.732       94.910        0.195      336.550        7.927      852.784
04/25/2014  05:11:00     -295.536      -74.022        9.354      278.253      155.731       85.659    77424.949    24252.039     7337.411       10.094        5.451      304.664      122.783        0.162      336.507        7.852      852.760
04/25/2014  05:12:00     -412.237     -168.201      -10.587      257.353      168.814       94.890    66230.395    28498.097     9004.114       15.102        5.187      445.232      129.537        0.085      336.450        7.755      852.708
04/25/2014  05:13:00     -357.667      -70.580       -5.854      191.298      192.430       97.849    36594.794    37029.277     9574.407       10.805        4.160      364.565       98.742        0.073      336.463        7.777      852.717
04/25/2014  05:14:00     -421.437     -154.520      -15.568      177.202      166.217       78.287    31400.525    27628.031     6128.815       13.343        3.258      448.871       80.274        0.032      336.501        7.841      852.690
04/25/2014  05:15:00     -294.429      -49.378        1.169      144.786      138.891       63.431    20963.028    19290.616     4023.441        6.669        2.214      298.541       63.111        0.045      336.459        7.771      852.694
04/25/2014  05:16:00     -298.864     -136.116      -12.068      156.678      152.460       82.990    24547.949    23244.052     6887.412        8.132        2.734      328.401       84.179        0.066      336.455        7.763      852.636
04/25/2014  05:17:00     -469.156     -101.123      -25.909      178.856      136.423       77.960    31989.565    18611.195     6077.786       14.383        2.834      479.930       71.084        0.022      336.385        7.647      852.614
04/25/2014  05:18:00     -368.969     -207.204        2.079      223.624      146.709       83.789    50007.746    21523.639     7020.662       12.880        3.928      423.169       99.598        0.055      336.397        7.668      852.633
04/25/2014  05:19:00     -398.639     -271.197        7.018      175.984      135.955       80.602    30970.429    18483.706     6496.758       14.422        2.798      482.142       70.667        0.021      336.326        7.548      852.592
04/25/2014  05:20:00     -418.723     -207.028      -10.387      189.312      181.714       95.697    35839.200    33019.889     9157.924       14.814        3.901      467.108       93.466        0.040      336.288        7.485      852.611
04/25/2014  05:21:00     -294.376     -103.946       -7.305      209.004      155.974       87.700    43682.660    24327.781     7691.225        8.659        3.785      312.189       97.179        0.097      336.304        7.514      852.644
04/25/2014  05:22:00     -258.765     -138.946      -19.819      197.077      161.445       87.589    38839.344    26064.610     7671.752        7.960        3.629      293.710       94.248        0.103      336.252        7.425      852.624
04/25/2014  05:23:00     -271.957     -136.828        9.010      148.334      148.163       79.016    22002.857    21952.418     6243.470        7.147        2.510      304.438       82.295        0.073      336.228        7.384      852.610
04/25/2014  05:24:00     -163.496      -35.236       12.002      116.554       93.214       74.310    13584.824     8688.910     5522.029        2.795        1.390      167.250       65.825        0.155      336.217        7.369      852.579
04/25/2014  05:25:00     -276.945     -148.713       -6.406      210.808      159.358       93.752    44440.091    25395.023     8789.499        8.872        3.931      314.347      105.804        0.113      336.188        7.319      852.524
04/25/2014  05:26:00     -339.645     -102.462       -5.675      201.501      194.470      104.875    40602.772    37818.653    10998.835       10.764        4.471      354.763       96.248        0.074      336.150        7.255      852.505
04/25/2014  05:27:00     -422.703     -143.091      -24.315      235.913      198.198       98.961    55655.023    39282.343     9793.189       15.222        5.237      446.265      118.473        0.070      336.127        7.217      852.506
04/25/2014  05:28:00     -428.778     -191.123       -7.113      266.854      189.962      101.333    71210.993    36085.498    10268.306       16.897        5.878      469.445      130.024        0.077      336.086        7.150      852.484
04/25/2014  05:29:00     -289.536     -135.965       -4.008      198.865      161.910       82.229    39547.122    26214.956     6761.646        8.741        3.626      319.871       84.880        0.070      336.101        7.173      852.465
04/25/2014  05:30:00     -271.734     -131.421       21.290      259.429      230.107      105.320    67303.531    52949.273    11092.224       11.143        6.567      301.846      102.845        0.116      336.118        7.202      852.450
04/25/2014  05:31:00     -488.087      -75.470       -4.046      268.784      187.094      105.321    72244.756    35004.343    11092.567       18.112        5.917      493.888      128.958        0.068      336.036        7.064      852.463
04/25/2014  05:32:00     -411.370     -265.815      -17.514      215.421      180.774      103.855    46406.082    32679.180    10785.903       16.501        4.494      489.779       89.174        0.033      336.045        7.079      852.474
04/25/2014  05:33:00     -528.164      -82.167      -30.931      265.702      118.112       91.562    70597.544    13950.353     8383.605       18.978        4.647      534.517      100.504        0.035      336.010        7.022      852.436
04/25/2014  05:34:00     -573.769      -82.907      -14.901      221.605      169.393       96.178    49108.679    28694.096     9250.138       21.166        4.353      579.728       98.236        0.029      335.976        6.965      852.403
04/25/2014  05:35:00     -531.426     -162.517      -22.507      245.542      209.051      113.806    60290.878    43702.149    12951.888       21.311        5.847      555.721      125.511        0.051      335.974        6.962      852.400
04/25/2014  05:36:00     -456.760     -168.430        0.066      275.048      223.293      122.055    75651.374    49859.900    14897.446       18.868        7.020      486.825      156.428        0.103      335.999        7.004      852.392
04/25/2014  05:37:00     -195.263      -10.638       28.848      176.614      136.314       83.248    31192.587    18581.446     6930.242        4.788        2.835      195.552       96.343        0.243      336.006        7.015      852.441
04/25/2014  05:38:00     -479.894      -39.355      -28.944      200.986      180.076       76.893    40395.426    32427.452     5912.498       15.569        3.937      481.505       82.472        0.029      335.976        6.966      852.420
04/25/2014  05:39:00     -439.037      -36.896      -14.006      187.066      175.109       86.477    34993.867    30663.029     7478.249       13.371        3.657      440.585       82.821        0.035      335.932        6.890      852.371
04/25/2014  05:40:00     -389.215      -65.287      -15.650      238.552      162.225       78.645    56907.152    26317.096     6185.001       12.268        4.470      394.653       91.757        0.054      335.920        6.874      852.297
04/25/2014  05:41:00     -363.355      -94.475       12.915      282.532      208.788      111.151    79824.521    43592.244    12354.456       13.842        6.789      375.436      141.433        0.142      335.921        6.874      852.319
04/25/2014  05:42:00     -355.310      -76.881      -21.698      214.828      185.126       88.903    46151.085    34271.670     7903.815       11.046        4.416      363.532       93.073        0.066      335.908        6.853      852.293
04/25/2014  05:43:00     -355.560      -37.164      -11.954      196.941      145.608       86.827    38785.634    21201.817     7538.855        9.772        3.376      357.497       98.370        0.076      335.872        6.792      852.295
04/25/2014  05:44:00     -277.694     -129.292        0.222      167.293      149.634       86.554    27987.009    22390.321     7491.563        7.584        2.893      306.317       92.251        0.091      335.876        6.799      852.247
04/25/2014  05:45:00     -424.762     -149.402      -16.212      300.685      189.731      106.404    90411.233    35998.004    11321.843       17.034        6.887      450.270      112.084        0.062      335.880        6.807      852.314
04/25/2014  05:46:00     -316.588     -119.959        5.460      210.428      148.704       95.185    44279.970    22112.852     9060.178        9.504        3.773      338.553      100.134        0.087      335.903        6.844      852.347
04/25/2014  05:47:00     -533.814     -226.423      -20.517      308.456      227.401      112.052    95145.400    51711.289    12555.745       24.800        7.971      579.849      137.395        0.056      335.921        6.873      852.320
04/25/2014  05:48:00     -452.801     -156.289      -32.626      250.768      187.355      106.899    62884.628    35102.078    11427.476       16.994        5.471      479.014      132.919        0.077      335.927        6.881      852.330
04/25/2014  05:49:00     -284.793      -76.861       -0.818      176.385      146.501       75.111    31111.523    21462.571     5641.661        7.260        2.911      294.982       77.055        0.068      335.895        6.830      852.268
04/25/2014  05:50:00     -363.911      -89.431      -11.483      161.047      184.741       76.345    25936.210    34129.236     5828.609       10.321        3.295      374.739       77.952        0.043      335.885        6.813      852.280
04/25/2014  05:51:00     -421.475     -245.337      -36.082      182.290      180.299       80.503    33229.826    32507.897     6480.675       15.566        3.611      487.680       87.398        0.032      335.906        6.847      852.311
04/25/2014  05:52:00     -269.439      -16.233       -7.735      146.960       93.394       52.715    21597.320     8722.385     2778.909        5.300        1.655      269.927       45.056        0.028      335.882        6.809      852.301
04/25/2014  05:53:00     -166.405        9.002       15.947      139.888      100.710       68.227    19568.653    10142.411     4654.902        3.119        1.718      166.648       69.574        0.174      335.863        6.778      852.289
04/25/2014  05:54:00     -294.523       17.828      -11.515      142.710      102.091       61.137    20366.055    10422.485     3737.711        6.085        1.726      295.062       65.647        0.050      335.815        6.696      852.214
04/25/2014  05:55:00     -376.751     -106.208       -5.809      188.059      154.537       83.865    35366.225    23881.561     7033.277       10.975        3.314      391.435       90.192        0.053      335.775        6.629      852.253
04/25/2014  05:56:00     -294.290      -93.865       -4.171      185.695      140.903       78.488    34482.740    19853.634     6160.387        7.795        3.025      308.897       84.336        0.075      335.812        6.692      852.303
04/25/2014  05:57:00     -420.566     -135.001      -24.537      178.799      173.267       73.891    31969.194    30021.501     5459.936       13.156        3.373      441.703       91.178        0.043      335.819        6.703      852.340
04/25/2014  05:58:00     -302.967     -166.015      -10.499      150.351      162.557       79.854    22605.357    26424.866     6376.685        8.742        2.770      345.471       65.538        0.036      335.771        6.622      852.334
04/25/2014  05:59:00     -294.799      -68.608      -16.532      121.431       94.997       63.005    14745.546     9024.465     3969.614        5.981        1.387      302.678       59.655        0.039      335.733        6.561      852.325
04/25/2014  06:00:00     -317.375     -120.637      -24.878      120.374      148.097       65.526    14489.879    21932.864     4293.718        7.830        2.036      339.530       66.564        0.038      335.707        6.518      852.298
04/25/2014  06:01:00     -333.276      -77.134        3.739      204.526      158.472       97.355    41830.751    25113.289     9477.907        9.671        3.821      342.085      105.236        0.095      335.696        6.500      852.284
04/25/2014  06:02:00     -555.009     -141.452      -19.255      219.184      205.473      119.627    48041.651    42219.128    14310.693       21.647        5.229      572.751      130.720        0.052      335.681        6.474      852.344
04/25/2014  06:03:00     -423.478     -100.500      -17.877      183.188      154.159       89.015    33557.887    23764.871     7923.660       12.749        3.262      435.240       95.525        0.048      335.689        6.487      852.346
04/25/2014  06:04:00     -307.714      -21.851       -9.414      182.797      122.555       72.423    33414.664    15019.639     5245.111        7.446        2.684      308.489       85.983        0.078      335.677        6.465      852.337
04/25/2014  06:05:00     -442.854      -69.142      -11.957      205.699      123.449       76.916    42312.082    15239.700     5916.094       13.224        3.173      448.219       82.013        0.033      335.685        6.481      852.331
04/25/2014  06:06:00     -399.015      -68.647      -11.797      225.341      145.810       95.288    50778.546    21260.556     9079.877       12.258        4.056      404.877      114.660        0.080      335.720        6.537      852.382
04/25/2014  06:07:00     -241.138     -105.264       -7.284      127.430      127.266       59.119    16238.469    16196.628     3495.057        5.260        1.797      263.112       64.185        0.060      335.708        6.518      852.428
04/25/2014  06:08:00     -241.846     -147.327       -6.103      185.669      127.553       76.498    34473.134    16269.844     5851.981        6.840        2.830      283.186       81.724        0.083      335.742        6.575      852.454
04/25/2014  06:09:00     -316.405      -90.148      -17.848      151.535      169.089       67.484    22962.836    28591.206     4554.140        8.232        2.805      328.996       71.763        0.048      335.708        6.518      852.443
04/25/2014  06:10:00     -252.158       90.975      -33.280       98.317       82.141       53.892     9666.299     6747.205     2904.357        4.614        0.966      268.067       49.713        0.034      335.695        6.497      852.390
04/25/2014  06:11:00     -221.320       -9.872      -11.585      144.773       85.693       53.536    20959.266     7343.271     2866.098        4.019        1.558      221.540       67.498        0.093      335.706        6.517      852.374
04/25/2014  06:12:00     -215.557      -45.156        1.263      140.562      112.855       60.277    19757.799    12736.288     3633.359        4.231        1.806      220.236       68.982        0.098      335.772        6.625      852.365
04/25/2014  06:13:00     -271.175       -0.390      -18.694      206.886      135.645       79.038    42801.889    18399.450     6246.979        7.065        3.372      271.175       94.844        0.122      335.774        6.628      852.353
04/25/2014  06:14:00     -527.501      -87.710      -32.228      213.670      153.131       84.130    45654.845    23449.085     7077.787       18.157        3.809      534.743       98.149        0.034      335.750        6.588      852.395
04/25/2014  06:15:00     -508.928      -72.672      -13.174      200.512      150.585      104.920    40205.071    22675.693    11008.105       16.916        3.694      514.091      102.257        0.040      335.768        6.618      852.476
04/25/2014  06:16:00     -247.829      -42.371       -3.963      171.309      112.600       70.627    29346.931    12678.812     4988.104        5.511        2.351      251.425       89.990        0.128      335.818        6.702      852.430
04/25/2014  06:17:00     -400.255     -148.134      -13.609      260.653      141.978       88.049    67940.135    20157.752     7752.654       13.907        4.793      426.787      112.140        0.069      335.809        6.686      852.370
04/25/2014  06:18:00     -389.050        6.354      -23.356      172.745      132.897       71.540    29840.893    17661.510     5118.009       10.227        2.631      389.102       70.908        0.033      335.766        6.616      852.361
04/25/2014  06:19:00     -356.865       49.427      -28.690      127.937       81.034       47.379    16367.959     6566.495     2244.725        7.789        1.259      360.272       46.358        0.017      335.751        6.589      852.381
04/25/2014  06:20:00     -367.699      -55.188      -25.101      181.354      110.498       59.691    32889.428    12209.779     3562.977        9.376        2.433      371.818       67.415        0.033      335.763        6.609      852.434
04/25/2014  06:21:00     -188.956      -14.653       14.425      186.010      122.196       77.771    34599.723    14931.900     6048.255        4.584        2.779      189.523       99.188        0.274      335.810        6.690      852.440
04/25/2014  06:22:00     -306.086      -44.791       -1.547      219.168      109.761       84.532    48034.644    12047.407     7145.684        8.145        3.361      309.346      109.861        0.126      335.778        6.635      852.441
04/25/2014  06:23:00     -281.112       30.677      -27.986      105.634       99.972       58.648    11158.590     9994.381     3439.598        5.267        1.230      282.781       47.061        0.028      335.748        6.584      852.430
04/25/2014  06:24:00     -324.748      -29.402      -25.914      172.415      113.327       73.984    29727.016    12843.032     5473.563        7.751        2.402      326.076       91.611        0.079      335.730        6.555      852.409
04/25/2014  06:25:00     -159.170       29.475       -2.828      103.011       79.578       44.330    10611.323     6332.674     1965.118        2.256        0.945      161.876       45.809        0.080      335.735        6.565      852.398
04/25/2014  06:26:00     -281.781      -19.520      -27.495      130.304      102.116       57.725    16979.103    10427.670     3332.228        5.563        1.537      282.456       50.575        0.032      335.706        6.515      852.428
04/25/2014  06:27:00     -191.734      -22.305       12.485      126.257      107.076       57.091    15940.737    11465.231     3259.409        3.403        1.533      193.027       59.094        0.094      335.723        6.544      852.415
04/25/2014  06:28:00     -207.788       -4.134      -22.962       72.848       71.044       39.502     5306.816     5047.224     1560.423        2.781        0.596      207.829       30.220        0.021      335.712        6.526      852.395
04/25/2014  06:29:00     -201.270      -49.898      -11.573       84.083       68.007       44.569     7069.967     4624.941     1986.382        2.840        0.684      207.363       39.555        0.036      335.713        6.528      852.427
04/25/2014  06:30:00     -212.107       66.831      -21.675       98.939       77.197       37.515     9788.828     5959.342     1407.381        3.354        0.858      222.386       25.497        0.013      335.729        6.554      852.405
04/25/2014  06:31:00     -104.912       80.936      -12.242       87.536       87.576       46.268     7662.620     7669.631     2140.745        1.759        0.874      132.503       49.098        0.137      335.765        6.615      852.370
04/25/2014  06:32:00     -137.065        7.766      -10.266      118.293       60.546       45.340    13993.308     3665.855     2055.725        1.933        0.986      137.285       45.908        0.112      335.762        6.610      852.463
04/25/2014  06:33:00     -156.822       30.088      -13.690      127.461       51.470       43.447    16246.255     2649.155     1887.650        2.323        1.039      159.682       55.815        0.122      335.738        6.569      852.448
04/25/2014  06:34:00     -196.806      -23.008        1.029      107.875       76.899       46.823    11636.920     5913.414     2192.351        2.950        0.987      198.146       46.901        0.056      335.751        6.590      852.373
04/25/2014  06:35:00      -38.903      112.737      -14.470       48.054       43.822       31.836     2309.205     1920.392     1013.532        0.984        0.262      119.261       25.363        0.045      335.807        6.686      852.437
04/25/2014  06:36:00       37.250       55.179       17.250       57.142       65.430       39.395     3265.254     4281.078     1551.985        0.691        0.455       66.575       33.849        0.259      335.890        6.825      852.456
04/25/2014  06:37:00       15.776       11.265       15.976       56.909       45.546       39.893     3238.609     2074.437     1591.479        0.377        0.345       19.385       31.715        2.677      335.797        6.671      852.452
04/25/2014  06:38:00     -259.909     -104.970      -19.186      145.167      110.033       64.352    21073.600    12107.186     4141.196        5.812        1.866      280.306       60.322        0.046      335.747        6.583      852.472
04/25/2014  06:39:00     -114.524       80.454       -8.263      135.186      110.288       60.853    18275.280    12163.363     3703.048        2.689        1.707      139.959       71.667        0.262      335.759        6.607      852.393
04/25/2014  06:40:00      -95.833      127.847      -16.791       98.471      111.938       54.617     9696.448    12530.216     2983.040        2.551        1.260      159.777       54.594        0.117      335.756        6.601      852.390
04/25/2014  06:41:00      -99.942      -18.260       -8.607       59.871       69.734       38.543     3584.548     4862.796     1485.532        1.016        0.497      101.596       35.477        0.122      335.726        6.550      852.500
04/25/2014  06:42:00      -20.237      106.170        8.832       68.265      123.292       43.356     4660.067    15200.813     1879.757        1.675        1.087      108.082       55.037        0.259      335.818        6.706      852.448
04/25/2014  06:43:00      -23.401      370.580      -31.009       84.198      158.233       54.882     7089.325    25037.813     3012.064        8.698        1.757      371.319       60.172        0.026      335.445        6.083      852.419
04/25/2014  06:44:00     -120.360      176.189      -30.297       83.678      146.336       49.262     7001.939    21414.176     2426.774        3.864        1.542      213.375       45.364        0.045      335.197        5.668      852.460
04/25/2014  06:45:00     -249.898      233.064      -57.006      111.634      162.738       71.310    12462.196    26483.705     5085.168        8.202        2.202      341.713       65.215        0.036      335.056        5.434      852.509
04/25/2014  06:46:00     -102.915      164.908       -4.017      143.677      112.674       70.691    20642.991    12695.539     4997.241        3.806        1.917      194.387       65.837        0.115      335.147        5.587      852.560
04/25/2014  06:47:00     -127.307      325.962      -37.621       92.409      150.819       67.032     8539.355    22746.408     4493.342        7.982        1.789      349.940       68.298        0.038      335.081        5.475      852.566
04/25/2014  06:48:00     -104.393      373.641      -45.662      119.300      174.902       67.754    14232.585    30590.714     4590.555       10.099        2.471      387.950       73.131        0.036      335.053        5.431      852.505
04/25/2014  06:49:00       38.218      387.079      -39.391      105.769      206.819       84.692    11187.140    42774.081     7172.654       10.698        3.057      388.961      102.046        0.069      335.088        5.490      852.380
04/25/2014  06:50:00       78.328      297.641      -25.216      125.982      189.757       97.458    15871.346    36007.748     9498.049        7.836        3.069      307.775       89.948        0.085      335.103        5.514      852.338
04/25/2014  06:51:00      -10.038      380.458      -55.511       92.220      110.046       56.448     8504.440    12110.032     3186.427        8.586        1.190      380.591       57.657        0.023      335.214        5.696      852.432
04/25/2014  06:52:00     -166.199      503.196      -51.948      136.201      173.593       82.150    18550.624    30134.477     6748.570       16.947        2.772      529.932       85.290        0.026      335.215        5.699      852.383
04/25/2014  06:53:00     -176.011      260.306      -56.706      114.603      214.815       70.201    13133.961    46145.615     4928.180        8.307        3.210      314.228       67.179        0.046      335.233        5.729      852.337
04/25/2014  06:54:00      -32.516       63.134       -8.346       85.221       91.337       42.205     7262.622     8342.468     1781.253        1.125        0.869       71.016       40.838        0.331      335.197        5.672      852.317
04/25/2014  06:55:00       19.222       12.066       40.033       82.198       44.575       39.565     6756.448     1986.948     1565.428        0.621        0.515       22.695       34.452        2.304      335.332        5.895      852.406
04/25/2014  06:56:00      -83.462       78.082      -17.592      105.121      102.476       50.546    11050.511    10501.257     2554.948        1.873        1.205      114.292       54.764        0.230      335.312        5.859      852.481
04/25/2014  06:57:00      -84.062      313.409      -28.496       85.848       99.498       56.924     7369.805     9899.803     3240.314        6.330        1.025      324.487       45.050        0.019      335.337        5.899      852.483
04/25/2014  06:58:00      -96.786      200.273      -24.432       80.506      101.364       44.935     6481.191    10274.692     2019.157        3.442        0.939      222.434       45.240        0.041      335.372        5.958      852.502
04/25/2014  06:59:00       17.824       61.048       26.591       92.693       76.512       44.230     8591.936     5854.083     1956.249        1.057        0.820       63.596       47.630        0.561      335.466        6.118      852.504
04/25/2014  07:00:00     -112.572      117.771      -26.895       81.383       71.324       57.732     6623.146     5087.134     3333.001        2.115        0.752      162.918       47.333        0.084      335.343        5.912      852.469
04/25/2014  07:01:00       -6.142      298.504      -24.968      111.278      181.680       77.698    12382.902    33007.740     6037.038        7.059        2.571      298.567       89.718        0.090      335.436        6.067      852.505
04/25/2014  07:02:00       50.837      257.007      -15.623       91.704      147.008       66.946     8409.622    21611.443     4481.796        5.168        1.725      261.986       76.722        0.086      335.391        5.990      852.526
04/25/2014  07:03:00       72.252      200.875       -6.782      109.374      140.504       79.253    11962.752    19741.457     6280.995        4.179        1.899      213.474       83.687        0.154      335.418        6.035      852.540
04/25/2014  07:04:00      -27.333      221.245      -33.081       64.047      104.120       48.138     4102.024    10840.957     2317.256        3.402        0.863      222.927       60.416        0.073      335.461        6.109      852.578
04/25/2014  07:05:00       26.253       70.890        9.141       53.011       80.709       45.753     2810.174     6513.913     2093.334        0.861        0.571       75.595       45.945        0.369      335.500        6.173      852.544
04/25/2014  07:06:00       39.188      167.153      -20.966       46.425       84.138       41.951     2155.304     7079.137     1759.897        2.045        0.550      171.686       48.156        0.079      335.444        6.080      852.551
04/25/2014  07:07:00       18.462       76.743        2.519       61.334       74.697       37.317     3761.800     5579.649     1392.582        0.848        0.537       78.932       32.484        0.169      335.470        6.124      852.563
04/25/2014  07:08:00      -29.028      180.655      -20.973      104.541       90.507       45.105    10928.864     8191.557     2034.473        2.753        1.058      182.972       45.405        0.062      335.442        6.077      852.563
04/25/2014  07:09:00       12.842      153.840      -17.667       72.456       53.054       34.720     5249.844     2814.775     1205.457        1.671        0.464      154.375       33.419        0.047      335.408        6.019      852.545
04/25/2014  07:10:00       28.904      386.451      -54.939       68.778      128.810       53.642     4730.356    16592.046     2877.493        8.869        1.210      387.531       60.955        0.025      335.381        5.972      852.539
04/25/2014  07:11:00       37.152      237.117      -20.740      122.802       98.823       73.449    15080.239     9765.924     5394.754        4.413        1.512      240.010       66.860        0.078      335.391        5.990      852.542
04/25/2014  07:12:00      -39.423      233.988      -23.033       78.649      151.919       57.987     6185.666    23079.323     3362.545        4.472        1.631      237.285       71.155        0.090      335.404        6.012      852.530
04/25/2014  07:13:00      -29.547      317.181      -30.212       82.812       95.211       54.578     6857.900     9065.220     2978.767        6.064        0.945      318.554       49.161        0.024      335.330        5.887      852.567
04/25/2014  07:14:00       57.882      299.453      -28.533       85.568      137.569       72.575     7321.805    18925.350     5267.146        6.267        1.576      304.996       77.843        0.065      335.356        5.931      852.591
04/25/2014  07:15:00      133.846      243.806       -5.362      141.671      163.082       92.357    20070.802    26595.587     8529.737        6.628        2.760      278.130       95.907        0.119      335.344        5.913      852.589
04/25/2014  07:16:00       19.788      153.274      -19.484       49.651      128.506       43.755     2465.268    16513.818     1914.525        2.257        1.045      154.546       57.907        0.140      335.387        5.985      852.595
04/25/2014  07:17:00      -62.829      164.065      -28.023       66.468       79.686       43.156     4418.038     6349.901     1862.429        2.214        0.632      175.684       40.405        0.053      335.409        6.021      852.561
04/25/2014  07:18:00      -14.839      205.261      -13.526       86.987      150.191       51.301     7566.721    22557.239     2631.762        3.764        1.638      205.796       67.104        0.106      335.382        5.976      852.545
04/25/2014  07:19:00       60.649       79.787       13.458       77.973       76.999       43.580     6079.718     5928.833     1899.248        1.206        0.695      100.221       28.473        0.081      335.398        6.003      852.561
04/25/2014  07:20:00       22.235      278.549      -29.563       86.361       95.218       53.909     7458.274     9066.390     2906.234        4.919        0.972      279.435       50.484        0.033      335.359        5.936      852.601
04/25/2014  07:21:00      -14.878      185.654      -11.695       66.297       72.251       49.377     4395.327     5220.219     2438.066        2.344        0.603      186.249       42.991        0.053      335.457        6.101      852.650
04/25/2014  07:22:00      -74.832      126.171      -12.273       39.422       63.514       25.299     1554.094     4034.014      640.025        1.395        0.311      146.693       11.920        0.007      335.525        6.217      852.683
04/25/2014  07:23:00      -64.183       33.517       -9.693       37.634       40.686       27.671     1416.310     1655.377      765.694        0.459        0.192       72.407       29.152        0.162      335.497        6.170      852.665
04/25/2014  07:24:00     -103.969      105.946      -24.327      119.454       83.490       50.584    14269.148     6970.507     2558.782        2.321        1.190      148.438       55.813        0.141      335.471        6.126      852.661
04/25/2014  07:25:00        2.237      171.334      -29.226      156.747      113.493       69.344    24569.573    12880.690     4808.575        3.623        2.113      171.349       56.128        0.107      335.454        6.096      852.641
04/25/2014  07:26:00       75.742      139.889        8.979      112.763       75.684       60.614    12715.585     5728.055     3674.105        2.375        1.106      159.078       43.657        0.075      335.455        6.097      852.647
04/25/2014  07:27:00       14.057       38.629       47.456       55.419       54.832       37.975     3071.253     3006.525     1442.114        0.573        0.376       41.108       13.697        0.111      335.515        6.200      852.661
04/25/2014  07:28:00       76.733       56.028       51.037      101.239       69.524       44.978    10249.411     4833.642     2022.986        1.437        0.855       95.010       34.420        0.131      335.555        6.266      852.664
04/25/2014  07:29:00      171.495       82.435       16.058       51.975       55.481       46.751     2701.373     3078.157     2185.692        2.221        0.398      190.279       16.531        0.008      335.495        6.165      852.699
04/25/2014  07:30:00      103.314       71.407       14.835       61.720       43.646       47.338     3809.298     1904.960     2240.856        1.197        0.398      125.589       23.174        0.034      335.574        6.300      852.685
04/25/2014  07:31:00        8.069        5.539       14.693       26.788       46.673       28.911      717.582     2178.401      835.838        0.202        0.187        9.788       19.613        4.015      335.691        6.493      852.646
04/25/2014  07:32:00       48.984       85.884        3.636       50.541       54.927       37.869     2554.429     3016.923     1434.039        0.840        0.350       98.871       32.700        0.109      335.574        6.300      852.657
04/25/2014  07:33:00       39.258       83.254        9.849       46.752       59.512       34.852     2185.786     3541.712     1214.681        0.775        0.347       92.046       33.780        0.135      335.570        6.292      852.677
04/25/2014  07:34:00       26.100      141.600      -21.471       38.393       48.272       25.018     1474.045     2330.143      625.875        1.281        0.222      143.985       26.763        0.035      335.501        6.175      852.692
04/25/2014  07:35:00      -28.377      190.228      -28.536       28.797       38.235       18.353      829.273     1461.902      336.847        2.022        0.131      192.333       15.329        0.006      335.560        6.275      852.698
04/25/2014  07:36:00      -41.031      187.115      -22.338       36.101       46.559       22.108     1303.281     2167.750      488.783        2.058        0.198      191.561       19.591        0.010      335.638        6.405      852.725
04/25/2014  07:37:00        7.379      176.412      -13.944       32.843       52.913       29.667     1078.682     2799.835      880.126        1.806        0.238      176.567       29.135        0.027      335.561        6.276      852.715
04/25/2014  07:38:00       18.103       91.314        6.542       53.222       77.505       40.537     2832.598     6007.059     1643.258        0.959        0.524       93.091       43.372        0.217      335.613        6.364      852.689
04/25/2014  07:39:00       31.528       66.908       -0.945       47.420       52.233       25.932     2248.687     2728.270      672.453        0.556        0.282       73.964       19.564        0.070      335.664        6.449      852.710
04/25/2014  07:40:00        6.451      127.803      -20.186       26.885       37.020       19.210      722.795     1370.451      369.039        0.962        0.123      127.966       17.797        0.019      335.649        6.423      852.716
04/25/2014  07:41:00      -41.116       25.217      -10.145       29.082       38.673       25.001      845.789     1495.600      625.047        0.270        0.148       48.233       17.505        0.132      335.795        6.666      852.707
04/25/2014  07:42:00       -6.444       52.145        4.060       24.232       28.556       24.812      587.171      815.435      615.639        0.240        0.101       52.542       16.032        0.093      335.786        6.654      852.731
04/25/2014  07:43:00       76.899       45.990       21.513       39.841       24.162       28.906     1587.270      583.805      835.570        0.575        0.150       89.602       14.523        0.026      335.711        6.526      852.737
04/25/2014  07:44:00      108.109       53.424       -9.913       41.451       41.213       32.839     1718.215     1698.548     1078.381        0.957        0.225      120.589       20.864        0.030      335.728        6.556      852.707
04/25/2014  07:45:00       77.144       58.963        0.198       36.210       35.438       21.136     1311.165     1255.874      446.737        0.622        0.151       97.097       15.192        0.024      335.693        6.496      852.720
04/25/2014  07:46:00       64.506       68.414       -7.045       32.067       35.030       21.865     1028.275     1227.127      478.097        0.581        0.137       94.029       16.906        0.032      335.747        6.588      852.756
04/25/2014  07:47:00       50.349       62.015       11.158       51.455       37.926       29.227     2647.619     1438.377      854.197        0.572        0.247       79.881       23.049        0.083      335.790        6.659      852.771
04/25/2014  07:48:00      136.172       54.175        8.585       54.508       38.766       34.121     2971.108     1502.778     1164.240        1.359        0.282      146.552       23.254        0.025      335.775        6.634      852.768
04/25/2014  07:49:00      153.937       98.032       20.947       38.697       30.629       32.448     1497.445      938.120     1052.842        1.862        0.174      182.501       26.971        0.022      335.777        6.637      852.764
04/25/2014  07:50:00      101.763       76.306        9.770       46.054       43.862       38.017     2120.974     1923.880     1445.317        1.088        0.275      127.194       22.267        0.031      335.837        6.736      852.774
04/25/2014  07:51:00       65.736       45.042        8.537       39.943       33.483       27.797     1595.444     1121.095      772.694        0.496        0.174       79.687       16.015        0.040      335.817        6.703      852.800
04/25/2014  07:52:00       34.539       39.513       16.984       44.134       31.284       32.419     1947.811      978.688     1050.980        0.351        0.199       52.481        4.164        0.006      335.833        6.730      852.811
04/25/2014  07:53:00        3.798       31.204       49.610       20.065       36.705       23.711      402.621     1347.281      562.191        0.288        0.116       31.434       25.102        0.638      335.949        6.922      852.808
04/25/2014  07:54:00      129.525       80.565       14.646       29.973       24.168       26.909      898.373      584.115      724.112        1.284        0.110      152.537       15.950        0.011      335.739        6.574      852.797
04/25/2014  07:55:00      110.732       76.546       30.687       42.816       40.376       31.448     1833.210     1630.217      988.959        1.176        0.223      134.613       22.697        0.028      335.815        6.702      852.777
04/25/2014  07:56:00       57.272       54.960       48.913       51.823       31.695       32.222     2685.619     1004.572     1038.280        0.671        0.236       79.377       28.965        0.133      335.904        6.848      852.804
04/25/2014  07:57:00       69.543       80.135       77.221      113.149       60.821       60.015    12802.702     3699.195     3601.815        1.866        1.005      106.103       73.077        0.474      335.820        6.707      852.839
04/25/2014  07:58:00      110.728      146.895      114.990       76.764       60.038       63.657     5892.726     3604.546     4052.256        3.030        0.677      183.953       54.143        0.087      335.718        6.536      852.816
04/25/2014  07:59:00       57.727      118.552       92.506       90.297       64.193       64.906     8153.469     4120.706     4212.833        2.121        0.824      131.859       61.771        0.219      335.752        6.594      852.831
04/25/2014  08:00:00      117.050       77.858       18.893       56.979       36.158       38.042     3246.633     1307.391     1447.179        1.306        0.300      140.580       20.392        0.021      335.682        6.481      852.860
04/25/2014  08:01:00      114.481       49.326       27.033       32.479       48.638       29.603     1054.904     2365.664      876.356        1.028        0.215      124.656       11.427        0.008      335.718        6.540      852.881
04/25/2014  08:02:00       84.941       31.204       47.765       46.721       70.929       47.709     2182.839     5030.980     2276.149        0.998        0.474       90.492       45.538        0.253      335.784        6.649      852.875
04/25/2014  08:03:00       97.128       84.628       34.834       56.492       45.321       52.852     3191.332     2053.981     2793.386        1.292        0.402      128.825       35.087        0.074      335.707        6.519      852.871
04/25/2014  08:04:00       -8.543       12.476        3.790       50.377       37.394       22.725     2537.883     1398.288      516.447        0.235        0.223       15.121       12.215        0.653      335.863        6.781      852.912
04/25/2014  08:05:00      -21.437       25.339       -5.127       20.512       41.065       18.909      420.726     1686.340      357.549        0.180        0.123       33.190        9.090        0.075      335.928        6.889      852.941
04/25/2014  08:06:00       -5.224       -5.025        1.986       26.393       13.727       17.403      696.584      188.440      302.866        0.062        0.059        7.248        4.376        0.364      336.078        7.138      852.915
04/25/2014  08:07:00        8.555       14.433       23.765       30.171       29.428       23.450      910.293      865.995      549.900        0.159        0.116       16.778       19.569        1.360      336.055        7.100      852.898
04/25/2014  08:08:00      -30.122       44.018      -16.496       38.612       29.779       15.117     1490.918      886.774      228.538        0.286        0.130       53.338       13.995        0.069      335.808        6.688      852.920
04/25/2014  08:09:00     -111.304        3.396        3.466       76.861       88.046       51.796     5907.619     7752.125     2682.787        1.437        0.817      111.356       47.406        0.181      335.722        6.546      852.937
04/25/2014  08:10:00     -114.833      -40.538      -14.365      102.911       76.363       40.986    10590.653     5831.308     1679.851        1.657        0.905      121.778       15.107        0.015      335.428        6.053      852.914
04/25/2014  08:11:00       18.568       11.747       20.944       88.819       57.130       51.262     7888.763     3263.827     2627.764        0.735        0.689       21.972       31.503        2.056      335.659        6.442      852.892
04/25/2014  08:12:00       78.310       -4.596       58.442       88.328       58.179       49.668     7801.759     3384.810     2466.920        1.161        0.683       78.444       26.996        0.118      335.733        6.563      852.902
04/25/2014  08:13:00       22.275     -125.446       -0.446       37.305       67.987       30.233     1391.693     4622.196      914.051        1.158        0.346      127.409       35.499        0.078      335.762        6.611      852.922
04/25/2014  08:14:00       87.454       80.933       73.096       91.150      103.092       71.849     8308.313    10627.929     5162.290        2.182        1.205      119.157       57.138        0.230      335.544        6.247      852.930
04/25/2014  08:15:00      -20.392      -63.535       -9.350       76.445       99.756       52.514     5843.884     9951.196     2757.715        1.154        0.928       66.727       50.303        0.568      335.497        6.170      852.939
04/25/2014  08:16:00      -38.556      -18.901       10.518       55.365       35.682       27.645     3065.228     1273.172      764.247        0.353        0.255       42.939       32.410        0.570      335.600        6.343      852.938
04/25/2014  08:17:00     -227.383      -57.069       -1.824      157.365      110.676       68.268    24763.841    12249.088     4660.477        4.831        2.084      234.435       66.488        0.080      335.430        6.055      852.922
04/25/2014  08:18:00     -282.197       11.839      -19.610       72.327       96.604       52.014     5231.236     9332.336     2705.447        4.871        0.863      282.445       39.829        0.020      335.343        5.910      852.928
04/25/2014  08:19:00     -133.774      -46.035      -10.841       89.712       99.568       47.516     8048.279     9913.818     2257.798        2.017        1.011      141.474       46.682        0.109      335.444        6.082      852.933
04/25/2014  08:20:00     -249.905       -0.685      -23.633      152.890       92.403       62.321    23375.472     8538.365     3883.910        4.940        1.790      249.906       65.042        0.068      335.402        6.009      852.911
04/25/2014  08:21:00     -434.726      -60.706      -29.332      147.928      121.273       65.700    21882.811    14707.090     4316.424       11.721        2.045      438.944       72.971        0.028      335.390        5.988      852.883
04/25/2014  08:22:00     -468.589      -28.380      -40.105      168.646      137.455       71.265    28441.358    18893.819     5078.636       13.719        2.621      469.447       76.602        0.027      335.379        5.971      852.855
04/25/2014  08:23:00     -133.136       21.877       24.480      137.650      136.890       71.847    18947.635    18738.814     5162.027        3.082        2.142      134.922       84.105        0.389      335.554        6.264      852.837
04/25/2014  08:24:00     -396.987      -56.762      -17.031      141.010      130.710       75.290    19883.685    17085.058     5668.589       10.187        2.132      401.024       72.902        0.033      335.417        6.033      852.823
04/25/2014  08:25:00     -412.751      -37.944      -12.983      143.236      129.153       65.730    20516.577    16680.474     4320.465       10.674        2.076      414.492       67.543        0.027      335.407        6.018      852.820
04/25/2014  08:26:00     -542.454      -42.644      -43.976      193.452      195.538       90.156    37423.741    38234.995     8128.183       19.088        4.189      544.128       89.391        0.027      335.395        5.997      852.826
04/25/2014  08:27:00     -355.311      -97.780      -17.421      232.046      135.264       78.425    53845.360    18296.241     6150.424       10.719        3.915      368.520      101.859        0.076      335.447        6.084      852.839
04/25/2014  08:28:00     -349.450     -112.638      -17.187      142.010      113.918       67.207    20166.904    12977.334     4516.813        8.637        1.883      367.155       69.348        0.036      335.477        6.134      852.850
04/25/2014  08:29:00     -297.119      -63.680       -5.709      142.334      108.033       69.797    20259.028    11671.044     4871.562        6.458        1.840      303.867       75.011        0.061      335.479        6.138      852.855
04/25/2014  08:30:00     -317.617       -0.602      -18.088      170.739      147.452       71.732    29151.954    21742.041     5145.449        7.861        2.802      317.618       63.336        0.040      335.500        6.173      852.845
04/25/2014  08:31:00     -204.406      -64.040        1.734      185.553      122.512       79.433    34429.870    15009.195     6309.640        5.081        2.787      214.203       63.182        0.087      335.577        6.300      852.828
04/25/2014  08:32:00     -234.499       -3.527        0.335      119.750      106.241       64.140    14340.084    11287.136     4114.001        4.237        1.487      234.525       59.533        0.064      335.574        6.296      852.846
04/25/2014  08:33:00     -555.360      -13.659      -52.199      211.370      187.624       83.877    44677.099    35202.702     7035.328       19.911        4.346      555.528       95.652        0.030      335.407        6.017      852.823
04/25/2014  08:34:00     -538.860     -153.811      -11.042      196.115      167.136       72.423    38461.247    27934.378     5245.098       19.288        3.582      560.382       60.311        0.012      335.343        5.908      852.801
04/25/2014  08:35:00     -391.041      -81.378      -14.178      190.547      122.735       83.455    36308.083    15063.934     6964.726       10.903        2.917      399.419       99.091        0.062      335.420        6.039      852.808
04/25/2014  08:36:00     -497.026     -138.483      -23.959      187.452      159.812       86.338    35138.321    25539.983     7454.275       16.745        3.407      515.958       75.286        0.021      335.329        5.887      852.815
04/25/2014  08:37:00     -341.491     -155.040       -7.513      148.758      130.702       78.987    22128.916    17082.926     6238.961        9.307        2.273      375.038       87.707        0.055      335.401        6.007      852.813
04/25/2014  08:38:00     -316.469     -144.884       -4.749      142.631       98.027       62.006    20343.486     9609.211     3844.742        7.748        1.690      348.058       68.987        0.039      335.415        6.030      852.856
04/25/2014  08:39:00     -263.413      -46.794       -4.353      147.759       96.771       60.064    21832.791     9364.570     3607.664        5.319        1.740      267.537       69.666        0.068      335.448        6.086      852.859
04/25/2014  08:40:00     -288.375      -54.039       -2.932      202.376      121.299       54.549    40956.067    14713.368     2975.615        7.236        2.932      293.395       72.097        0.060      335.440        6.073      852.869
04/25/2014  08:41:00     -292.678      -76.310      -17.237      131.546      105.745       56.446    17304.466    11182.065     3186.115        6.172        1.584      302.463       62.144        0.042      335.430        6.056      852.856
04/25/2014  08:42:00     -270.548      -12.167       -6.862      172.488      133.905       61.744    29751.977    17930.472     3812.369        6.243        2.575      270.822       78.473        0.084      335.476        6.133      852.883
04/25/2014  08:43:00     -499.199     -141.230      -23.267      199.669      143.343       72.952    39867.539    20547.325     5322.013       16.770        3.287      518.792       66.644        0.017      335.416        6.031      852.881
04/25/2014  08:44:00     -383.304     -179.000      -13.800      160.266      126.404       79.943    25685.144    15977.929     6390.821       11.359        2.403      423.040       76.534        0.033      335.407        6.016      852.877
04/25/2014  08:45:00     -275.321       -9.075      -24.192      113.836      112.294       58.009    12958.527    12609.921     3365.102        5.270        1.447      275.470       57.893        0.044      335.513        6.193      852.897
04/25/2014  08:46:00     -413.583      -62.800      -29.973      157.294      116.054       78.933    24741.558    13468.585     6230.434       11.016        2.222      418.324       62.651        0.022      335.424        6.045      852.894
04/25/2014  08:47:00     -302.764      -98.423       -1.343      163.720      139.186       67.314    26804.216    19372.753     4531.207        7.602        2.535      318.360       74.499        0.055      335.507        6.185      852.896
04/25/2014  08:48:00     -204.122        1.361      -10.390      112.314       99.652       68.417    12614.480     9930.511     4680.911        3.450        1.361      204.126       64.343        0.099      335.510        6.190      852.912
04/25/2014  08:49:00     -294.109      -53.992      -23.166      135.040      106.889       56.727    18235.756    11425.323     3217.985        6.141        1.644      299.024       59.459        0.040      335.504        6.179      852.930
04/25/2014  08:50:00     -245.613      -11.063      -17.627       89.242       88.418       50.050     7964.216     7817.714     2504.992        3.952        0.914      245.862       42.327        0.030      335.532        6.223      852.939
04/25/2014  08:51:00     -246.372      -45.162      -21.305       97.171       79.146       60.537     9442.264     6264.053     3664.690        4.128        0.969      250.477       58.533        0.055      335.567        6.283      852.948
04/25/2014  08:52:00     -229.539     -117.469       -0.250      112.839       76.531       51.047    12732.732     5856.954     2605.834        4.384        1.060      257.850       52.262        0.041      335.586        6.315      852.940
04/25/2014  08:53:00     -265.296       15.277      -14.115      127.180      114.344       45.742    16174.796    13074.558     2092.301        5.107        1.567      265.735       52.404        0.039      335.559        6.271      852.965
04/25/2014  08:54:00     -240.828       25.751      -34.024       82.944      115.680       42.825     6879.707    13381.884     1834.000        4.095        1.105      242.201       49.444        0.042      335.635        6.396      852.970
04/25/2014  08:55:00     -302.940       -3.863      -44.320       84.345       72.013       54.697     7114.094     5185.889     2991.719        5.452        0.765      302.965       50.751        0.028      335.571        6.290      852.957
04/25/2014  08:56:00     -136.824       83.312      -12.154       82.519       66.946       46.974     6809.455     4481.807     2206.595        1.965        0.675      160.193       29.292        0.033      335.654        6.430      852.959
04/25/2014  08:57:00     -228.155       33.455      -12.308       94.132       71.080       47.986     8860.821     5052.410     2302.663        3.477        0.811      230.594       46.607        0.041      335.677        6.467      852.964
04/25/2014  08:58:00     -214.873      -44.755        9.244      131.110      104.493       54.170    17189.841    10918.834     2934.417        3.964        1.552      219.485       56.597        0.066      335.706        6.516      852.963
04/25/2014  08:59:00     -133.385      -78.769       -0.217      100.130       75.804       57.827    10026.072     5746.219     3343.912        2.155        0.956      154.907       57.575        0.138      335.677        6.468      852.952
04/25/2014  09:00:00     -120.542       -1.569      -11.672       77.282       83.371       45.613     5972.484     6950.766     2080.560        1.483        0.750      120.552       40.695        0.114      335.689        6.489      852.958
04/25/2014  09:01:00     -220.826      -28.760      -23.615      146.374       94.863       55.425    21425.469     8999.005     3071.898        4.182        1.675      222.691       45.155        0.041      335.565        6.282      852.950
04/25/2014  09:02:00      -26.747        0.380        0.862       66.644       71.756       35.147     4441.361     5148.853     1235.276        0.577        0.541       26.749       29.412        1.209      335.722        6.545      852.946
04/25/2014  09:03:00      -85.363      -26.613       17.359       94.807       60.975       54.454     8988.407     3717.917     2965.231        1.198        0.784       89.415       56.465        0.399      335.874        6.798      852.933
04/25/2014  09:04:00     -197.254      -15.826      -13.984       93.498      106.469       56.209     8741.954    11335.558     3159.458        3.129        1.162      197.888       46.971        0.056      335.730        6.556      852.941
04/25/2014  09:05:00     -333.262      -13.060      -23.656      113.931      100.632       56.631    12980.332    10126.793     3207.043        6.905        1.316      333.517       40.748        0.015      335.526        6.215      852.955
04/25/2014  09:06:00     -245.288      -88.050      -20.447       90.472      102.375       48.720     8185.093    10480.636     2373.590        4.468        1.052      260.613       30.354        0.014      335.647        6.417      852.942
04/25/2014  09:07:00     -133.372      -13.589       -6.024       97.966       71.171       43.819     9597.257     5065.328     1920.135        1.729        0.829      134.062       40.769        0.092      335.669        6.457      852.935
04/25/2014  09:08:00     -263.350       12.345      -24.005       87.023       66.392       49.979     7572.954     4407.958     2497.919        4.228        0.724      263.639       36.378        0.019      335.584        6.312      852.939
04/25/2014  09:09:00     -110.981      -38.544      -15.895       87.325       81.358       37.300     7625.639     6619.064     1391.257        1.484        0.782      117.484       34.600        0.087      335.711        6.527      852.946
04/25/2014  09:10:00     -299.907        9.936      -28.013       75.244       70.525       43.445     5661.625     4973.756     1887.435        5.167        0.626      300.072       32.306        0.012      335.559        6.269      852.943
04/25/2014  09:11:00     -279.394        9.028      -25.857      119.382      112.248       61.444    14252.017    12599.605     3775.304        5.471        1.531      279.540       51.653        0.034      335.594        6.328      852.936
04/25/2014  09:12:00     -437.714      -66.965      -33.587      133.571      122.475       56.010    17841.341    15000.125     3137.145       11.659        1.799      442.807       55.018        0.015      335.570        6.289      852.907
04/25/2014  09:13:00     -152.510      -89.974       -5.653      133.922       88.344       62.225    17935.102     7804.694     3871.921        3.049        1.481      177.072       65.574        0.137      335.768        6.617      852.929
04/25/2014  09:14:00     -226.194      -87.748       -0.494      158.767      115.383       73.654    25206.858    13313.277     5424.847        5.140        2.197      242.618       82.422        0.115      335.794        6.663      852.937
04/25/2014  09:15:00     -399.372     -179.692      -22.722      139.856      119.733       62.890    19559.626    14335.972     3955.206       11.507        1.893      437.935       63.062        0.021      335.563        6.277      852.918
04/25/2014  09:16:00     -168.296      -17.751       -2.895      142.727       96.495       57.338    20371.052     9311.376     3287.628        3.080        1.649      169.229       67.945        0.161      335.982        6.977      852.914
04/25/2014  09:17:00     -112.438       -0.501       -3.152      103.983       70.516       46.398    10812.544     4972.563     2152.753        1.529        0.897      112.439       51.381        0.209      335.795        6.666      852.904
04/25/2014  09:18:00     -181.345      -62.105       -2.033       80.054       76.541       41.641     6408.596     5858.601     1733.950        2.537        0.700      191.685       33.146        0.030      335.808        6.685      852.881
04/25/2014  09:19:00     -160.038       -4.461       -9.629      149.231       66.148       53.146    22269.995     4375.596     2824.510        2.759        1.474      160.100       73.701        0.212      336.171        7.296      852.878
04/25/2014  09:20:00     -194.152      -60.903       -5.401      112.030      116.449       62.615    12550.619    13560.299     3920.608        3.573        1.502      203.481       56.330        0.077      335.847        6.751      852.871
04/25/2014  09:21:00     -227.292       56.443      -24.450      105.454       97.700       47.756    11120.532     9545.245     2280.675        3.919        1.147      234.195       41.492        0.031      335.773        6.626      852.866
04/25/2014  09:22:00     -295.111      -93.728      -18.866      149.767      121.733       65.717    22430.232    14819.028     4318.694        6.889        2.078      309.638       54.917        0.031      335.653        6.427      852.844
04/25/2014  09:23:00     -190.083      -20.548       -6.784      114.574       81.020       51.893    13127.191     6564.306     2692.869        2.949        1.119      191.190       50.125        0.069      335.867        6.785      852.880
04/25/2014  09:24:00     -258.506       11.661      -17.158       97.801       94.513       41.354     9565.093     8932.665     1710.127        4.373        1.010      258.769       36.873        0.020      335.798        6.668      852.897
04/25/2014  09:25:00     -190.420      -17.300        7.518      123.064       91.059       59.179    15144.778     8291.721     3502.149        3.177        1.347      191.204       66.451        0.121      335.890        6.823      852.903
04/25/2014  09:26:00     -187.256       32.144      -18.394       80.298       64.981       45.044     6447.723     4222.571     2029.003        2.457        0.635      189.995       27.432        0.021      335.839        6.738      852.871
04/25/2014  09:27:00     -198.279       -5.605       -4.974       72.681       97.689       35.875     5282.521     9543.226     1287.021        2.774        0.806      198.359       23.687        0.014      335.812        6.693      852.851
04/25/2014  09:28:00     -120.946      -38.857        4.469      178.625       97.138       52.707    31906.856     9435.741     2778.052        3.013        2.206      127.034       63.296        0.248      336.012        7.028      852.824
04/25/2014  09:29:00     -111.071       19.880      -13.952      161.548       92.998       61.374    26097.722     8648.607     3766.780        2.571        1.926      112.836       56.739        0.253      335.892        6.826      852.824
04/25/2014  09:30:00     -200.816       50.980        2.385      152.311      192.335       85.782    23198.693    36992.871     7358.475        5.523        3.378      207.186       71.942        0.121      336.022        7.043      852.844
04/25/2014  09:31:00     -117.494      -18.262        8.276      122.123      108.561       54.242    14914.108    11785.418     2942.166        2.192        1.482      118.905       47.277        0.158      335.994        6.998      852.857
04/25/2014  09:32:00      -76.990      133.352       -8.093      106.483       91.418       53.875    11338.607     8357.305     2902.484        2.318        1.130      153.982       53.517        0.121      335.593        6.328      852.881
04/25/2014  09:33:00     -147.737      115.954      -25.676      104.651       96.982       46.989    10951.918     9405.413     2207.968        2.924        1.128      187.807       28.744        0.023      335.594        6.328      852.903
04/25/2014  09:34:00     -356.368      -60.793      -14.328      215.768      165.879       81.986    46555.930    27515.983     6721.701       10.583        4.040      361.516       98.729        0.075      335.720        6.540      852.856
04/25/2014  09:35:00     -175.622       50.674      -26.483      120.291      113.730       46.476    14469.843    12934.472     2160.032        3.183        1.478      182.787       43.660        0.057      335.716        6.534      852.872
04/25/2014  09:36:00      -60.920      260.735      -28.889       88.156       87.796       52.715     7771.431     7708.197     2778.914        4.539        0.913      267.757       47.339        0.031      335.585        6.313      852.880
04/25/2014  09:37:00     -126.883      194.732      -26.158       75.579       89.536       60.501     5712.243     8016.749     3660.365        3.604        0.869      232.421       50.374        0.047      335.585        6.314      852.904
04/25/2014  09:38:00     -175.348      180.954      -33.422       97.838      100.056       57.599     9572.293    10011.181     3317.694        4.375        1.145      251.975       57.460        0.052      335.423        6.044      852.867
04/25/2014  09:39:00     -236.759      315.915      -59.384       88.936       96.636       51.382     7909.677     9338.522     2640.161        8.963        0.994      394.787       50.132        0.016      335.403        6.010      852.843
04/25/2014  09:40:00      -81.164      113.318       -2.671       79.857       92.661       53.074     6377.135     8585.981     2816.822        1.860        0.889      139.386       35.843        0.066      335.527        6.217      852.847
04/25/2014  09:41:00     -149.471      118.259      -25.320       84.534      102.273       50.100     7145.916    10459.722     2510.001        2.854        1.006      190.596       43.135        0.051      335.578        6.303      852.840
04/25/2014  09:42:00     -139.657      166.928      -21.888       89.072      156.539       58.324     7933.857    24504.415     3401.730        4.184        1.792      217.644       56.927        0.068      335.430        6.055      852.845
04/25/2014  09:43:00     -178.357      135.480      -22.622       94.574      112.410       61.019     8944.195    12636.109     3723.305        3.799        1.265      223.977       51.938        0.054      335.539        6.238      852.835
04/25/2014  09:44:00     -195.983      149.389      -20.165       98.744      126.872       62.040     9750.428    16096.453     3848.984        4.541        1.485      246.428       58.871        0.057      335.536        6.232      852.847
04/25/2014  09:45:00     -202.180      -54.027      -30.594      120.829       96.266       60.204    14599.576     9267.164     3624.488        3.611        1.375      209.274       59.663        0.081      335.556        6.265      852.838
04/25/2014  09:46:00     -201.530      -21.900      -19.377      148.909       84.781       62.721    22173.896     7187.756     3933.903        3.738        1.665      202.717       42.959        0.045      335.391        5.992      852.837
04/25/2014  09:47:00     -177.999       16.991      -18.766       69.115       94.077       49.064     4776.932     8850.398     2407.300        2.418        0.802      178.808       30.428        0.029      335.430        6.056      852.846
04/25/2014  09:48:00     -157.842       95.350      -23.050       61.723      140.357       49.926     3809.768    19700.031     2492.593        3.026        1.300      184.406       33.047        0.032      335.470        6.123      852.828
04/25/2014  09:49:00     -160.950      141.989      -27.941      102.797      146.737       74.968    10567.174    21531.742     5620.256        4.228        1.886      214.629       64.501        0.090      335.305        5.848      852.837
04/25/2014  09:50:00     -182.304       85.850      -21.220      135.009       84.165       49.462    18227.429     7083.813     2446.515        3.440        1.388      201.506       35.409        0.031      335.323        5.878      852.830
04/25/2014  09:51:00     -190.755      104.975      -15.959       90.210       81.038       71.638     8137.824     6567.152     5132.046        3.375        0.992      217.732       52.665        0.059      335.282        5.809      852.821
04/25/2014  09:52:00     -109.770      227.946      -21.788       83.754      116.460       59.887     7014.795    13562.933     3586.499        4.432        1.208      252.999       62.243        0.061      335.362        5.944      852.802
04/25/2014  09:53:00     -117.783      252.526      -41.378       65.390      102.088       47.898     4275.792    10422.040     2294.229        4.817        0.850      278.643       44.257        0.025      335.314        5.863      852.775
04/25/2014  09:54:00      -86.382      263.174      -29.268       58.583      102.975       47.779     3431.960    10603.924     2282.796        4.695        0.816      276.988       46.465        0.028      335.311        5.858      852.775
04/25/2014  09:55:00     -102.640      205.766      -22.653      110.306      118.241       50.483    12167.428    13980.911     2548.539        4.104        1.435      229.945       50.972        0.049      335.444        6.080      852.768
04/25/2014  09:56:00     -134.639      218.647      -41.583      103.728      113.134       53.340    10759.579    12799.403     2845.149        4.703        1.320      256.776       42.256        0.027      335.420        6.038      852.767
04/25/2014  09:57:00      -76.025      113.101        1.249       72.030       80.230       56.676     5188.319     6436.843     3212.216        1.670        0.742      136.278       31.380        0.053      335.570        6.291      852.770
04/25/2014  09:58:00     -228.223       13.280      -33.590      123.887      123.181       61.329    15348.032    15173.486     3761.190        4.383        1.714      228.610       40.605        0.032      335.400        6.008      852.796
04/25/2014  09:59:00     -124.203       98.739      -29.152       73.133       92.648       51.579     5348.484     8583.733     2660.363        2.131        0.830      158.669       31.792        0.040      335.449        6.088      852.796
04/25/2014  10:00:00      -72.614       51.743      -10.763      104.741       96.660       52.728    10970.580     9343.123     2780.225        1.558        1.155       89.164       64.605        0.525      335.603        6.346      852.791
04/25/2014  10:01:00     -118.988       99.366      -32.132       87.850       90.544       53.342     7717.621     8198.298     2845.415        2.191        0.938      155.022       57.952        0.140      335.418        6.037      852.797
04/25/2014  10:02:00     -182.601      233.876      -27.251       97.357       85.023       67.082     9478.296     7228.982     4499.960        5.499        1.060      296.717       63.426        0.046      335.386        5.983      852.793
04/25/2014  10:03:00     -152.318      159.382      -22.757      101.799      104.978       43.497    10362.956    11020.368     1891.969        3.619        1.164      220.462       36.920        0.028      335.486        6.149      852.788
04/25/2014  10:04:00     -245.261      226.313      -45.319      109.552      103.532       67.150    12001.662    10718.902     4509.118        7.032        1.361      333.722       66.253        0.039      335.345        5.914      852.776
04/25/2014  10:05:00     -214.119      251.625      -46.710      158.465      123.818       68.342    25111.004    15330.848     4670.581        7.822        2.256      330.397       88.315        0.071      335.373        5.961      852.775
04/25/2014  10:06:00     -193.646      193.149      -27.924      100.519       96.579       58.903    10104.155     9327.553     3469.545        4.924        1.145      273.505       66.368        0.059      335.369        5.956      852.762
04/25/2014  10:07:00     -175.373      103.797      -23.638       94.583       94.311       46.010     8945.883     8894.525     2116.877        3.102        0.998      203.788       45.703        0.050      335.452        6.092      852.766
04/25/2014  10:08:00     -211.923      316.854      -58.137       91.728      146.288       68.218     8414.061    21400.114     4653.672        9.157        1.723      381.193       61.665        0.026      335.224        5.712      852.784
04/25/2014  10:09:00     -157.345      260.382      -38.395       92.720      117.844       63.485     8597.063    13887.133     4030.338        6.027        1.326      304.231       59.918        0.039      335.258        5.770      852.777
04/25/2014  10:10:00     -147.410      151.224      -29.348       79.907      139.197       58.598     6385.140    19375.701     3433.682        3.732        1.460      211.184       31.380        0.022      335.351        5.923      852.756
04/25/2014  10:11:00     -128.897      155.232      -20.870       79.260       81.364       61.787     6282.145     6620.121     3817.615        2.893        0.836      201.771       54.620        0.073      335.382        5.976      852.748
04/25/2014  10:12:00     -142.675      195.380      -30.061       77.291      121.879       55.749     5973.953    14854.581     3107.917        4.168        1.197      241.928       54.430        0.051      335.373        5.960      852.745
04/25/2014  10:13:00     -139.421      283.415      -29.425       81.052      111.628       58.422     6569.452    12460.863     3413.130        6.153        1.122      315.852       51.855        0.027      335.451        6.089      852.768
04/25/2014  10:14:00      -73.232      179.877       -7.024       59.822      115.391       52.645     3578.731    13315.022     2771.481        2.871        0.983      194.213       52.351        0.073      335.543        6.245      852.773
04/25/2014  10:15:00      -56.292      196.711      -23.349       56.769       93.910       46.478     3222.674     8819.067     2160.178        2.830        0.710      204.607       45.976        0.050      335.568        6.285      852.774
04/25/2014  10:16:00      -96.514      112.205       -5.795       95.162       73.908       45.289     9055.876     5462.381     2051.138        1.925        0.828      148.003       51.461        0.121      335.727        6.552      852.763
04/25/2014  10:17:00     -197.254       30.561      -18.974       50.302       68.298       44.090     2530.271     4664.606     1943.919        2.467        0.457      199.608       38.351        0.037      335.447        6.085      852.749
04/25/2014  10:18:00      -33.923       99.836       -7.068       50.719      100.042       39.567     2572.457    10008.432     1565.541        1.265        0.707      105.442       25.970        0.061      335.686        6.483      852.739
04/25/2014  10:19:00     -126.968      152.732      -19.956       79.109      109.939       53.446     6258.186    12086.646     2856.517        3.052        1.060      198.615       56.270        0.080      335.564        6.278      852.744
04/25/2014  10:20:00      -59.080      130.557      -20.752       77.139      126.770       47.887     5950.494    16070.576     2293.198        2.264        1.216      143.302       41.664        0.085      335.714        6.529      852.745
04/25/2014  10:21:00      -21.946       30.967       11.347       45.391       56.031       27.865     2060.309     3139.425      776.460        0.377        0.299       37.955       30.300        0.637      335.843        6.748      852.732
04/25/2014  10:22:00      -10.809       54.911        5.013       45.637       86.299       44.627     2082.764     7447.463     1991.527        0.734        0.576       55.965       24.605        0.193      335.886        6.819      852.721
04/25/2014  10:23:00      -63.458      131.525        9.873       69.423       84.869       56.335     4819.619     7202.736     3173.662        1.831        0.760      146.034       47.853        0.107      335.881        6.809      852.735
04/25/2014  10:24:00     -119.492       13.137        4.491       90.149       82.942       42.014     8126.925     6879.379     1765.209        1.562        0.839      120.211       36.426        0.092      335.907        6.853      852.741
04/25/2014  10:25:00     -106.810      115.823       -9.250       70.166       87.272       39.182     4923.290     7616.395     1535.216        1.949        0.704      157.555       37.976        0.058      335.823        6.713      852.754
04/25/2014  10:26:00      -83.885       -5.458       10.083      100.941       52.733       40.564    10189.030     2780.745     1645.448        1.089        0.731       84.063       45.206        0.289      335.875        6.800      852.734
04/25/2014  10:27:00     -180.110      228.364      -53.572      104.784      114.521       58.481    10979.712    13115.110     3420.084        5.748        1.376      290.843       71.476        0.060      335.560        6.272      852.745
04/25/2014  10:28:00     -116.297      112.971       16.897      103.785      107.752       63.891    10771.368    11610.587     4082.007        2.651        1.323      162.134       61.449        0.144      335.648        6.422      852.738
04/25/2014  10:29:00      -97.780       75.776       -9.794       64.510       45.279       30.838     4161.576     2050.218      950.997        1.128        0.358      123.705       27.270        0.049      335.791        6.661      852.719
04/25/2014  10:30:00     -104.652      138.724      -15.236       90.528       91.553       51.999     8195.350     8381.884     2703.880        2.485        0.964      173.771       46.537        0.072      335.692        6.493      852.710
04/25/2014  10:31:00     -129.323      163.907      -20.396       85.673      104.764       55.102     7339.878    10975.526     3036.177        3.267        1.068      208.782       47.826        0.052      335.672        6.458      852.703
04/25/2014  10:32:00     -185.175      225.985      -22.962       87.898      167.392       67.669     7726.035    28020.114     4579.117        6.310        2.016      292.163       53.241        0.033      335.509        6.187      852.700
04/25/2014  10:33:00     -117.208      205.418      -15.291       85.470      100.347       62.917     7305.065    10069.584     3958.511        3.875        1.067      236.505       46.456        0.039      335.550        6.255      852.716
04/25/2014  10:34:00     -193.459      282.682      -50.616       77.554      113.466       57.049     6014.700    12874.603     3254.596        7.102        1.107      342.542       52.743        0.024      335.397        6.000      852.711
04/25/2014  10:35:00     -137.789      159.780      -23.740       85.429       90.535       46.063     7298.060     8196.527     2121.757        3.134        0.881      210.986       45.866        0.047      335.705        6.514      852.708
04/25/2014  10:36:00     -112.911      132.473      -15.793       76.615       56.135       45.477     5869.807     3151.178     2068.169        2.082        0.554      174.063       47.123        0.073      335.762        6.610      852.713
04/25/2014  10:37:00      -52.558       55.366       -0.786       58.852      112.126       45.002     3463.501    12572.175     2025.208        1.194        0.903       76.340       25.027        0.107      335.921        6.875      852.702
04/25/2014  10:38:00     -105.454      104.796        0.324       91.188      110.340       54.836     8315.186    12174.999     3007.035        2.280        1.175      148.669       49.308        0.110      335.795        6.665      852.690
04/25/2014  10:39:00     -181.954      258.213      -44.429       97.681      103.309       54.417     9541.504    10672.710     2961.235        6.246        1.159      315.882       43.949        0.019      335.401        6.007      852.712
04/25/2014  10:40:00     -262.564      223.627      -56.595      126.208      135.407       66.723    15928.450    18334.924     4451.927        8.043        1.936      344.890       69.373        0.040      335.359        5.937      852.705
04/25/2014  10:41:00     -234.039      213.198      -54.434      117.941      104.340       62.198    13910.053    10886.797     3868.541        6.592        1.433      316.588       68.979        0.047      335.379        5.972      852.703
04/25/2014  10:42:00     -126.373      107.723      -25.348       72.252       82.088       42.591     5220.418     6738.507     1813.980        2.099        0.689      166.056       32.481        0.038      335.438        6.070      852.685
04/25/2014  10:43:00      -42.640      235.591      -13.242       63.365      100.983       52.366     4015.071    10197.476     2742.236        3.722        0.848      239.419       51.070        0.046      335.654        6.429      852.688
04/25/2014  10:44:00     -108.346       68.212      -14.101       61.194       84.500       44.941     3744.682     7140.298     2019.731        1.475        0.645      128.030       27.503        0.046      335.803        6.679      852.698
04/25/2014  10:45:00      -80.205       32.655        4.451       54.084       73.707       40.107     2925.057     5432.653     1608.535        0.874        0.498       86.598       19.075        0.049      335.980        6.974      852.705
04/25/2014  10:46:00     -147.083      -37.041       -6.253       98.697       72.377       55.817     9741.174     5238.447     3115.504        2.057        0.905      151.676       46.794        0.095      335.919        6.872      852.707
04/25/2014  10:47:00     -123.413      126.753      -23.959       96.781      144.860       67.403     9366.582    20984.287     4543.160        3.338        1.745      176.910       58.327        0.109      335.767        6.618      852.724
04/25/2014  10:48:00     -176.906      107.211      -20.395      163.903       78.498       67.663    26864.152     6161.890     4578.228        4.040        1.880      206.857       77.446        0.140      335.680        6.473      852.738
04/25/2014  10:49:00     -146.751      125.831       -5.575      107.094      142.800       61.474    11469.115    20391.740     3779.092        3.651        1.782      193.311       51.974        0.072      335.762        6.608      852.732
04/25/2014  10:50:00     -129.952       35.192       -9.096       93.579       74.018       61.621     8757.118     5478.601     3797.098        1.812        0.902      134.632       56.247        0.175      335.903        6.846      852.728
04/25/2014  10:51:00     -251.338      -63.328      -21.189       97.197       68.481       50.238     9447.265     4689.599     2523.850        4.214        0.833      259.194       46.650        0.032      335.719        6.537      852.754
04/25/2014  10:52:00     -301.294       -2.447      -33.510      131.948      132.641       58.052    17410.326    17593.585     3370.078        6.513        1.919      301.304       63.327        0.044      335.736        6.565      852.758
04/25/2014  10:53:00     -193.587      -22.478      -13.473      102.001       98.093       44.468    10404.278     9622.285     1977.402        3.008        1.100      194.887       36.690        0.035      335.905        6.848      852.741
04/25/2014  10:54:00     -165.919        8.081      -25.716       95.400      109.907       54.457     9101.191    12079.581     2965.557        2.620        1.207      166.116       52.244        0.099      335.840        6.741      852.745
04/25/2014  10:55:00     -179.740       76.103      -24.882       64.688      101.403       45.285     4184.511    10282.532     2050.700        2.761        0.826      195.187       24.796        0.016      335.803        6.677      852.729
04/25/2014  10:56:00     -117.517       59.724      -20.640       74.743       82.157       35.111     5586.494     6749.722     1232.760        1.568        0.678      131.823       24.641        0.035      335.810        6.691      852.722
04/25/2014  10:57:00      -97.971       91.652      -19.363       95.345       98.518       56.835     9090.645     9705.710     3230.273        2.020        1.101      134.158       50.521        0.142      335.829        6.722      852.693
04/25/2014  10:58:00     -160.047       98.552      -12.349       89.527      161.710       59.978     8015.064    26150.042     3597.375        3.661        1.888      187.957       49.569        0.070      335.801        6.675      852.689
04/25/2014  10:59:00     -371.149      -67.147      -19.123      201.158      118.591       60.329    40464.396    14063.712     3639.576       10.039        2.908      377.174       74.301        0.039      335.656        6.432      852.691
04/25/2014  11:00:00     -206.437     -103.324       -1.334      177.888      126.866       69.871    31644.310    16094.946     4881.939        5.295        2.631      230.850       75.821        0.108      335.817        6.701      852.682
04/25/2014  11:01:00     -232.897       -0.975      -22.952      163.566       93.326       57.527    26753.999     8709.719     3309.308        4.676        1.939      232.899       69.024        0.088      335.768        6.620      852.698
04/25/2014  11:02:00     -421.560      -44.324      -37.269      134.507      103.069       63.393    18092.257    10623.194     4018.646       10.689        1.637      423.884       52.525        0.015      335.505        6.180      852.711
04/25/2014  11:03:00     -329.266      -43.611      -24.801      103.015      111.624       54.668    10612.112    12459.913     2988.579        6.849        1.303      332.141       45.245        0.019      335.553        6.260      852.703
04/25/2014  11:04:00     -314.552      -98.594      -10.477      148.093      131.213       68.931    21931.623    17216.940     4751.516        7.633        2.195      329.641       72.346        0.048      335.552        6.260      852.679
04/25/2014  11:05:00      -42.279       -0.550       33.689      103.505       85.146       43.468    10713.325     7249.768     1889.458        1.138        0.993       42.282       51.092        1.460      335.929        6.888      852.683
04/25/2014  11:06:00     -114.691      -20.024      -11.169      113.726       66.102       52.847    12933.607     4369.433     2792.831        1.688        1.005      116.426       58.595        0.253      335.887        6.819      852.675
04/25/2014  11:07:00     -186.227       89.225      -28.666      142.807      157.441       56.432    20393.882    24787.545     3184.576        4.590        2.418      206.498       55.848        0.073      335.933        6.894      852.688
04/25/2014  11:08:00     -170.140       97.423      -14.808       91.161       91.840       57.803     8310.319     8434.626     3341.184        2.937        1.004      196.059       45.655        0.054      335.886        6.816      852.672
04/25/2014  11:09:00     -266.456       59.566      -36.730      115.354       93.690       51.211    13306.480     8777.727     2622.596        5.030        1.235      273.033       53.506        0.038      335.646        6.417      852.674
04/25/2014  11:10:00     -232.218       51.447      -23.122      108.465       97.731       45.528    11764.722     9551.256     2072.787        4.024        1.169      237.849       43.262        0.033      335.623        6.376      852.676
04/25/2014  11:11:00     -285.630      -11.131      -27.734      124.540       90.721       44.342    15510.213     8230.385     1966.185        5.409        1.285      285.847       55.854        0.038      335.649        6.420      852.660
04/25/2014  11:12:00     -258.592      -39.015       -7.403      113.610      102.553       49.253    12907.147    10517.035     2425.905        4.714        1.293      261.518       27.092        0.011      335.716        6.532      852.673
04/25/2014  11:13:00     -362.566      -66.383      -24.211       85.917       93.733       44.520     7381.794     8785.911     1982.047        7.729        0.907      368.593       40.199        0.012      335.477        6.134      852.693
04/25/2014  11:14:00     -140.502      -32.952       -5.715       94.814       68.689       44.918     8989.631     4718.172     2017.671        1.829        0.786      144.314       54.358        0.142      335.807        6.684      852.695
04/25/2014  11:15:00     -145.994      -47.220       -3.499      119.602       77.900       50.160    14304.683     6068.371     2516.054        2.322        1.144      153.440       47.088        0.094      335.945        6.915      852.693
04/25/2014  11:16:00     -303.830      -89.944      -38.389      100.334       86.216       47.025    10066.837     7433.175     2211.358        6.079        0.986      316.864       18.368        0.003      335.647        6.415      852.676
04/25/2014  11:17:00     -175.884      -81.976       -1.324      115.948       81.797       53.899    13444.005     6690.774     2905.095        3.034        1.152      194.049       65.574        0.114      335.847        6.752      852.670
04/25/2014  11:18:00     -242.309      -40.585      -15.244      172.909       72.618       41.070    29897.468     5273.302     1686.735        4.872        1.843      245.685       45.909        0.035      335.829        6.722      852.676
04/25/2014  11:19:00     -212.642      -37.668       -2.074       89.943      100.146       49.026     8089.669    10029.259     2403.589        3.358        1.026      215.952       47.504        0.048      335.804        6.678      852.672
04/25/2014  11:20:00     -186.814      -18.613       -4.893       99.041       90.929       50.685     9809.022     8268.120     2569.017        2.795        1.032      187.739       50.867        0.073      335.766        6.616      852.666
04/25/2014  11:21:00      -77.481       50.398       23.922      123.823       89.235       79.934    15332.104     7962.814     6389.426        1.939        1.484       92.430       71.444        0.597      335.760        6.607      852.641
04/25/2014  11:22:00     -231.511       68.764      -28.305      106.886       97.420       52.167    11424.576     9490.593     2721.437        4.138        1.182      241.508       44.454        0.034      335.484        6.144      852.628
04/25/2014  11:23:00     -217.202       -8.537      -14.307      117.845      115.073       53.033    13887.508    13241.879     2812.546        3.869        1.497      217.370       63.329        0.085      335.506        6.182      852.617
04/25/2014  11:24:00     -130.187      -16.471       -2.735       92.070       96.129       58.160     8476.930     9240.863     3382.573        1.916        1.055      131.225       32.223        0.060      335.687        6.486      852.624
04/25/2014  11:25:00     -252.109     -104.159      -21.477       94.936       65.192       48.908     9012.854     4250.052     2391.968        4.526        0.783      272.779       35.459        0.017      335.754        6.595      852.613
04/25/2014  11:26:00     -202.518      -73.510      -21.780       98.865       96.579       44.714     9774.294     9327.586     1999.306        3.399        1.055      215.446       35.446        0.027      335.805        6.681      852.617
04/25/2014  11:27:00     -279.068      -32.880      -19.180       85.652      100.432       45.312     7336.216    10086.494     2053.193        4.940        0.974      280.998       36.862        0.017      335.818        6.701      852.615
04/25/2014  11:28:00     -315.695       98.769      -30.847      139.278       76.198       41.437    19398.402     5806.194     1717.048        6.864        1.346      330.785       40.261        0.015      335.647        6.418      852.619
04/25/2014  11:29:00     -226.667       42.175      -18.198      168.021       92.823       45.489    28231.162     8616.080     2069.221        4.619        1.946      230.557       63.310        0.075      335.740        6.575      852.623
04/25/2014  11:30:00     -279.627      -28.225      -16.952       99.811      118.531       54.772     9962.167    14049.713     2999.972        5.314        1.351      281.048       49.945        0.032      335.613        6.360      852.637
04/25/2014  11:31:00     -282.225       36.014      -18.871      145.106      118.781       53.241    21055.729    14108.938     2834.593        5.964        1.900      284.513       60.841        0.046      335.834        6.729      852.649
04/25/2014  11:32:00     -388.116        8.735      -38.574      124.546       97.891       70.103    15511.689     9582.620     4914.406        9.110        1.500      388.215       72.200        0.035      335.655        6.430      852.633
04/25/2014  11:33:00     -321.124      -88.714      -15.867      165.464       92.471       66.902    27378.173     8550.895     4475.814        7.582        2.020      333.153       66.727        0.040      335.601        6.340      852.640
04/25/2014  11:34:00     -231.374        1.006       -7.290      175.845      112.808       70.293    30921.433    12725.657     4941.167        5.108        2.429      231.376       71.858        0.096      335.739        6.571      852.617
04/25/2014  11:35:00     -338.747      -94.066      -34.313      211.742      123.866       59.945    44834.499    15342.755     3593.412        9.426        3.189      351.565       65.798        0.035      335.724        6.546      852.611
04/25/2014  11:36:00     -363.794       -6.644      -36.161      118.555      136.501       63.718    14055.382    18632.506     4060.006        8.522        1.837      363.854       47.116        0.017      335.615        6.365      852.617
04/25/2014  11:37:00     -393.344      -90.817      -30.236      160.452      136.191       58.423    25744.721    18547.946     3413.244       10.578        2.385      403.692       60.626        0.023      335.641        6.407      852.616
04/25/2014  11:38:00     -349.021      -21.697      -36.219      107.512      154.865       67.832    11558.925    23983.150     4601.194        8.186        2.007      349.695       57.160        0.027      335.606        6.350      852.642
04/25/2014  11:39:00     -347.751       12.427      -32.847      159.718      184.434       74.587    25509.847    34015.974     5563.235        9.361        3.254      347.973       63.075        0.033      335.656        6.433      852.631
04/25/2014  11:40:00     -349.155     -100.140        2.002      191.418      132.619       78.525    36640.900    17587.867     6166.133        9.616        3.020      363.232       92.411        0.065      335.622        6.376      852.625
04/25/2014  11:41:00     -498.825      -72.300      -35.929      183.770      167.494       74.117    33771.372    28054.255     5493.388       16.132        3.366      504.038       63.902        0.016      335.461        6.106      852.638
04/25/2014  11:42:00     -369.283      -28.420      -30.916      176.361      109.921       65.242    31103.128    12082.552     4256.468        9.278        2.372      370.375       84.715        0.052      335.658        6.434      852.641
04/25/2014  11:43:00     -294.368      -25.845       -5.509      145.487      166.933       63.916    21166.572    27866.546     4085.216        7.022        2.656      295.501       70.929        0.058      335.687        6.483      852.614
04/25/2014  11:44:00     -257.126      -76.953       -9.851      147.767       75.808       53.149    21835.199     5746.798     2824.819        5.126        1.520      268.394       66.905        0.062      335.858        6.769      852.619
04/25/2014  11:45:00     -241.686       22.592      -29.980      211.982      105.332       62.515    44936.187    11094.848     3908.079        5.987        2.997      242.740       89.349        0.135      335.912        6.860      852.625
04/25/2014  11:46:00     -355.594      -32.974      -25.205      165.207      141.365       82.727    27293.414    19984.036     6843.764        9.113        2.706      357.119       84.236        0.056      335.816        6.697      852.618
04/25/2014  11:47:00     -182.159       -1.903       -2.848      128.136      161.476       61.355    16418.718    26074.526     3764.415        3.972        2.313      182.169       58.671        0.104      336.080        7.140      852.612
04/25/2014  11:48:00     -207.888       -1.127        2.071      104.499      135.416       74.290    10919.987    18337.402     5519.058        3.899        1.739      207.891       61.497        0.088      335.875        6.798      852.597
04/25/2014  11:49:00     -361.062      -79.805      -16.084      132.402       99.373       59.488    17530.232     9875.024     3538.840        8.396        1.547      369.777       54.227        0.022      335.539        6.236      852.597
04/25/2014  11:50:00     -364.755     -101.561      -16.037      144.116       99.166       71.576    20769.535     9833.883     5123.160        8.967        1.786      378.630       73.672        0.038      335.667        6.450      852.563
04/25/2014  11:51:00     -233.075       81.953      -37.675      120.163      112.735       53.496    14439.174    12709.194     2861.866        4.623        1.501      247.063       54.082        0.048      335.590        6.320      852.561
04/25/2014  11:52:00     -274.064       17.337      -28.270      150.108      119.619       46.367    22532.548    14308.809     2149.876        5.759        1.950      274.612       53.110        0.037      335.472        6.127      852.545
04/25/2014  11:53:00     -278.120      -40.246      -12.700      161.584      103.090       53.200    26109.414    10627.552     2830.231        5.934        1.978      281.017       65.111        0.054      335.718        6.535      852.553
04/25/2014  11:54:00     -124.781      -49.936        9.459      172.392       96.281       66.948    29719.010     9270.116     4482.084        3.080        2.174      134.402       63.731        0.225      335.875        6.799      852.530
04/25/2014  11:55:00     -274.609      -98.011       -9.660       96.165       88.396       43.839     9247.750     7813.799     1921.840        5.204        0.949      291.575       40.651        0.019      335.256        5.767      852.519
04/25/2014  11:56:00     -273.167       46.217       -4.042      173.437      110.558       62.913    30080.423    12223.004     3958.025        6.151        2.313      277.049       79.479        0.082      335.513        6.194      852.499
04/25/2014  11:57:00     -276.430      -48.069      -11.955      185.622      139.398       64.877    34455.569    19431.690     4208.991        6.847        2.905      280.578       78.607        0.078      335.615        6.364      852.468
04/25/2014  11:58:00     -339.314     -128.322      -18.375      152.778      166.626       73.235    23341.239    27764.269     5363.423        9.419        2.823      362.768       68.866        0.036      335.411        6.023      852.450
04/25/2014  11:59:00     -192.305      -38.042       -4.316      112.306      127.182       56.525    12612.742    16175.368     3195.039        3.521        1.599      196.031       46.568        0.056      335.732        6.558      852.436
04/25/2014  12:00:00     -191.121      111.828      -26.520       91.421      105.055       48.033     8357.834    11036.622     2307.152        3.571        1.085      221.434       52.244        0.056      335.958        6.936      852.490
04/25/2014  12:01:00     -236.910      -85.844        1.304      138.249      107.138       54.842    19112.784    11478.534     3007.599        4.854        1.680      251.983       56.693        0.051      335.963        6.944      852.463
04/25/2014  12:02:00     -145.884      -40.284       10.635      134.905      100.119       50.426    18199.458    10023.794     2542.749        2.689        1.538      151.344       59.080        0.152      335.926        6.884      852.428
04/25/2014  12:03:00     -189.371      -37.304      -12.896      109.518      120.701       55.003    11994.296    14568.754     3025.359        3.350        1.479      193.010       38.726        0.040      335.652        6.426      852.403
04/25/2014  12:04:00     -222.435        8.642       -9.259      110.377       87.939       51.287    12183.105     7733.332     2630.403        3.609        1.127      222.603       50.296        0.051      335.819        6.702      852.385
04/25/2014  12:05:00     -271.578      -58.365      -14.164      118.613      106.874       60.239    14069.114    11421.994     3628.758        5.324        1.456      277.779       66.004        0.056      335.763        6.610      852.343
04/25/2014  12:06:00     -293.585      -81.041       -8.768      128.317      101.178       53.845    16465.139    10237.042     2899.254        6.121        1.480      304.565       49.500        0.026      335.729        6.555      852.314
04/25/2014  12:07:00     -255.605      -83.312      -15.717       88.469       79.435       58.875     7826.695     6309.904     3466.218        4.506        0.880      268.839       57.386        0.046      335.634        6.395      852.303
04/25/2014  12:08:00     -159.249      -19.349       -3.362       98.473       61.927       45.714     9696.931     3834.966     2089.732        2.068        0.781      160.421       44.373        0.077      336.020        7.042      852.277
04/25/2014  12:09:00     -226.631     -133.650        6.255      111.519      129.520       66.449    12436.578    16775.510     4415.451        5.144        1.681      263.105       64.232        0.060      335.986        6.983      852.239
04/25/2014  12:10:00     -201.077      -21.888       -9.645      110.726      121.702       61.983    12260.336    14811.323     3841.914        3.595        1.546      202.265       56.215        0.077      336.012        7.025      852.218
04/25/2014  12:11:00     -191.263      -45.344       -5.154      166.995       91.760       59.673    27887.380     8419.914     3560.839        3.926        1.993      196.564       69.558        0.125      336.387        7.653      852.206
04/25/2014  12:12:00     -128.605      -18.810       16.733       97.072       88.449       56.836     9422.984     7823.211     3230.311        1.882        1.024      129.973       50.765        0.153      336.394        7.665      852.198
04/25/2014  12:13:00     -252.637      -90.609       -9.021      102.637       82.882       52.066    10534.321     6869.391     2710.846        4.611        1.006      268.394       44.757        0.028      336.009        7.020      852.160
04/25/2014  12:14:00     -194.825      -20.899      -10.982       84.975       67.063       47.348     7220.718     4497.503     2241.842        2.623        0.698      195.943       51.031        0.068      336.027        7.051      852.148
04/25/2014  12:15:00      -52.150       -7.310       21.760       99.164       71.532       53.346     9833.464     5116.801     2845.823        1.052        0.890       52.660       64.028        1.478      336.503        7.849      852.106
04/25/2014  12:16:00     -110.237      -60.880        7.978      127.105       82.936       53.859    16155.637     6878.414     2900.741        2.092        1.297      125.931       53.191        0.178      336.539        7.908      852.099
04/25/2014  12:17:00      -81.270      -97.340        8.382      144.655      111.728       55.821    20924.969    12483.229     3115.962        2.633        1.826      126.807       67.128        0.280      336.072        7.127      852.097
04/25/2014  12:18:00     -134.872      -48.330      -22.216      103.773      107.477       51.973    10768.758    11551.389     2701.219        2.302        1.251      143.270       51.451        0.129      336.209        7.356      852.097
04/25/2014  12:19:00     -113.660       10.148       -0.374      123.876       85.164       45.978    15345.354     7252.871     2113.950        1.886        1.236      114.112       51.290        0.202      336.350        7.593      852.081
04/25/2014  12:20:00     -230.840      -34.039        2.658      124.398      109.145       61.189    15474.859    11912.695     3744.118        4.279        1.557      233.336       56.525        0.059      336.047        7.085      852.084
04/25/2014  12:21:00     -300.754        1.573      -29.983      143.531      118.684       55.739    20601.170    14085.996     3106.879        6.457        1.890      300.758       50.028        0.028      336.170        7.290      852.053
04/25/2014  12:22:00     -166.815      -22.173        8.025       91.142       95.618       48.925     8306.793     9142.782     2393.636        2.411        0.992      168.282       47.204        0.079      336.310        7.525      852.018
04/25/2014  12:23:00     -160.308     -137.732        8.978      159.924      129.850       83.428    25575.531    16860.976     6960.249        4.706        2.470      211.350      101.527        0.231      336.362        7.610      851.956
04/25/2014  12:24:00     -209.129     -121.329        8.993      120.868      111.301       55.709    14609.177    12387.992     3103.500        4.431        1.505      241.776       69.005        0.081      336.175        7.298      851.913
04/25/2014  12:25:00      -72.588      -37.957      -13.090       57.789       91.764       42.431     3339.599     8420.671     1800.347        1.022        0.678       81.913       24.451        0.089      336.490        7.827      851.908
04/25/2014  12:26:00     -231.231      -66.746      -14.310      185.047      119.062       51.571    34242.377    14175.838     2659.609        5.459        2.554      240.672       63.211        0.069      336.485        7.816      851.872
04/25/2014  12:27:00     -364.372       26.754      -44.046       99.319       81.670       58.115     9864.307     6670.018     3377.362        7.766        0.996      365.353       55.312        0.023      336.138        7.236      851.846
04/25/2014  12:28:00     -312.604       25.412      -38.940      102.023      126.923       53.296    10408.610    16109.339     2840.443        6.462        1.468      313.635       50.351        0.026      336.133        7.225      851.832
04/25/2014  12:29:00     -145.491      -34.351       -2.058      140.944       75.563       47.560    19865.103     5709.834     2261.972        2.509        1.392      149.492       64.980        0.189      336.222        7.378      851.794
04/25/2014  12:30:00     -188.054       48.996      -15.816      113.928      105.490       54.875    12979.586    11128.047     3011.217        3.256        1.356      194.332       59.607        0.094      336.508        7.854      851.776
04/25/2014  12:31:00     -168.422      -52.617       -5.167       97.338       98.212       52.763     9474.777     9645.592     2783.883        2.653        1.095      176.450       50.740        0.083      336.565        7.950      851.759
04/25/2014  12:32:00      -57.752      -11.994        6.685       97.298       44.166       40.815     9466.915     1950.672     1665.885        0.830        0.654       58.984       40.983        0.483      336.574        7.966      851.759
04/25/2014  12:33:00      -53.118      -13.058       10.880       80.662       48.445       36.165     6506.303     2346.953     1307.917        0.663        0.508       54.700       26.036        0.227      336.877        8.473      851.715
04/25/2014  12:34:00     -186.260      -89.012       -4.432      173.318       97.296       54.559    30039.026     9466.430     2976.641        4.255        2.124      206.436       47.224        0.052      336.563        7.949      851.675
04/25/2014  12:35:00     -180.563      -26.616        2.432      118.043       84.057       54.604    13934.035     7065.542     2981.593        2.864        1.199      182.514       60.093        0.108      336.769        8.293      851.663
04/25/2014  12:36:00     -285.991     -155.925       -9.198      131.997      111.580       61.278    17423.112    12450.073     3755.027        6.990        1.681      325.736       69.024        0.045      336.459        7.774      851.647
04/25/2014  12:37:00     -304.164     -167.233       -7.333      146.844      134.754       62.952    21563.250    18158.506     3962.969        8.210        2.184      347.106       74.220        0.046      336.325        7.548      851.630
04/25/2014  12:38:00     -259.614     -230.332       -4.638      162.972      136.754       84.914    26559.712    18701.539     7210.314        8.646        2.624      347.063       83.795        0.058      336.283        7.478      851.601
04/25/2014  12:39:00     -169.563      -95.355        5.787      108.744       82.055       53.839    11825.156     6733.017     2898.630        2.966        1.073      194.536       49.481        0.065      336.479        7.807      851.611
04/25/2014  12:40:00     -157.719     -173.086       10.794      130.100       94.405       67.039    16926.130     8912.326     4494.219        4.264        1.517      234.167       73.875        0.100      336.328        7.553      851.588
04/25/2014  12:41:00     -200.723     -109.646       -4.380      114.156       86.503       57.002    13031.573     7482.727     3249.270        3.804        1.188      228.718       56.857        0.062      336.304        7.513      851.575
04/25/2014  12:42:00     -173.922      -27.763       12.486      132.779      118.123       59.638    17630.136    13952.954     3556.713        3.315        1.757      176.124       72.529        0.170      336.742        8.246      851.544
04/25/2014  12:43:00     -180.581      -70.985        7.743      106.421      113.735       54.959    11325.327    12935.715     3020.542        3.249        1.364      194.032       53.159        0.075      336.657        8.103      851.548
04/25/2014  12:44:00     -281.455     -188.002        2.211      160.058      117.985       71.416    25618.715    13920.534     5100.246        7.959        2.232      338.470       80.309        0.056      336.406        7.683      851.545
04/25/2014  12:45:00     -227.712     -173.048        5.586      140.561      137.671       78.120    19757.525    18953.432     6102.723        6.331        2.241      286.004       72.948        0.065      336.471        7.791      851.520
04/25/2014  12:46:00     -252.217      -51.509        2.672      129.101      121.341       72.244    16666.974    14723.649     5219.242        5.143        1.830      257.423       82.020        0.102      336.499        7.837      851.526
04/25/2014  12:47:00     -223.411      -12.640       21.063      189.033       89.824       82.603    35733.521     8068.410     6823.333        5.056        2.531      223.768       97.276        0.189      336.757        8.271      851.509
04/25/2014  12:48:00     -112.398      -87.350       -1.364      149.282      110.333       76.400    22285.106    12173.284     5836.918        3.027        2.015      142.350       89.275        0.393      336.867        8.456      851.470
04/25/2014  12:49:00     -213.975      -67.429       -4.241      113.178      136.544       65.552    12809.356    18644.263     4297.083        4.304        1.788      224.348       55.332        0.061      336.568        7.956      851.484
04/25/2014  12:50:00     -273.233      -64.525      -20.551      124.409      123.621       58.663    15477.497    15282.239     3441.320        5.671        1.710      280.749       67.099        0.057      336.599        8.006      851.480
04/25/2014  12:51:00     -221.050     -179.923        8.428      167.987      144.043       83.227    28219.716    20748.453     6926.773        6.859        2.795      285.018       91.772        0.104      336.569        7.955      851.467
04/25/2014  12:52:00     -283.738     -184.294        3.888      158.063      128.898       69.954    24983.912    16614.675     4893.539        8.048        2.325      338.336       73.319        0.047      336.336        7.565      851.463
04/25/2014  12:53:00     -241.243      -30.857      -20.063      170.835      119.357       60.199    29184.745    14246.203     3623.887        5.329        2.353      243.209       67.244        0.076      336.368        7.620      851.467
04/25/2014  12:54:00     -217.224     -146.534       -2.128      140.109       91.062       58.318    19630.409     8292.343     3400.974        4.999        1.566      262.028       57.472        0.048      336.534        7.898      851.447
04/25/2014  12:55:00     -349.022     -156.800      -15.139      166.760      115.539       59.812    27808.886    13349.311     3577.437        9.567        2.237      382.626       68.938        0.032      336.283        7.478      851.432
04/25/2014  12:56:00     -383.537     -217.877      -13.927      141.777       96.288       68.360    20100.760     9271.451     4673.051       11.440        1.702      441.102       67.665        0.024      336.260        7.439      851.424
04/25/2014  12:57:00     -262.551      -70.990       -3.041      168.362      114.184       59.297    28345.910    13037.880     3516.179        5.943        2.245      271.979       73.302        0.073      336.607        8.022      851.448
04/25/2014  12:58:00     -138.943     -135.469        3.769      101.203       75.861       55.900    10241.990     5754.849     3124.766        2.839        0.956      194.054       48.820        0.063      336.563        7.946      851.463
04/25/2014  12:59:00     -132.985     -168.627       29.024      154.407      104.113       81.568    23841.603    10839.590     6653.358        4.414        2.067      214.756       88.920        0.171      336.535        7.900      851.439
04/25/2014  13:00:00     -230.721       -5.120        2.809      113.024      117.871       45.851    12774.404    13893.524     2102.301        4.101        1.439      230.778       45.547        0.039      336.372        7.628      851.432
04/25/2014  13:01:00     -202.621      -25.871        9.935      149.464      123.092       61.884    22339.505    15151.522     3829.649        4.156        2.066      204.266       76.075        0.139      336.572        7.960      851.413
04/25/2014  13:02:00     -121.437      -63.989       -4.088       87.688       70.570       40.338     7689.167     4980.192     1627.150        1.657        0.715      137.265       33.607        0.060      336.618        8.038      851.382
04/25/2014  13:03:00     -199.136     -113.290        2.764      134.258      106.396       48.955    18025.298    11320.189     2396.628        4.211        1.587      229.107       54.093        0.056      336.504        7.848      851.363
04/25/2014  13:04:00     -322.191     -193.681       -6.779      110.719       80.082       59.269    12258.684     6413.103     3512.777        8.177        1.109      375.925       62.985        0.028      336.348        7.586      851.342
04/25/2014  13:05:00     -160.961     -186.638        6.432      121.710      105.181       60.388    14813.286    11063.004     3646.729        4.515        1.476      246.459       60.664        0.061      336.391        7.657      851.333
04/25/2014  13:06:00     -169.994     -123.409       11.543      126.125       89.225       66.132    15907.432     7961.055     4373.485        3.625        1.412      210.066       75.846        0.130      336.570        7.960      851.324
04/25/2014  13:07:00     -171.492      -51.953        7.139      105.258       88.033       51.495    11079.200     7749.733     2651.750        2.682        1.074      179.189       51.143        0.081      336.664        8.115      851.311
04/25/2014  13:08:00     -215.503      -65.408       -5.363      147.152      118.339       47.026    21653.740    14004.142     2211.460        4.430        1.893      225.210       57.841        0.066      336.590        7.992      851.305
04/25/2014  13:09:00     -237.584     -112.073      -10.680      122.341       84.469       48.669    14967.198     7135.080     2368.697        4.679        1.224      262.691       41.309        0.025      336.490        7.822      851.271
04/25/2014  13:10:00     -241.932      -93.496       -3.099      187.949      104.790       78.457    35324.719    10980.977     6155.501        5.986        2.623      259.369       96.552        0.139      336.551        7.926      851.265
04/25/2014  13:11:00     -143.847      -75.943       28.285      172.066      138.957       85.568    29606.788    19309.151     7321.892        4.174        2.812      162.663      109.904        0.457      336.698        8.172      851.257
04/25/2014  13:12:00     -258.636     -133.636      -10.165      156.863      145.485       71.242    24605.997    21165.996     5075.370        6.784        2.542      291.121       80.617        0.077      336.539        7.905      851.311
04/25/2014  13:13:00     -285.340      -44.519      -11.933      248.379       84.717       91.286    61692.231     7177.054     8333.048        8.036        3.860      288.792      122.718        0.181      336.406        7.682      851.316
04/25/2014  13:14:00     -227.182      -96.294       -7.992      223.717       90.103       71.018    50049.399     8118.624     5043.607        6.207        3.161      246.747       97.746        0.157      336.464        7.782      851.315
04/25/2014  13:15:00     -344.365     -149.173      -20.214      170.473       98.129       56.028    29060.893     9629.258     3139.138        9.153        2.091      375.287       70.843        0.036      336.304        7.513      851.301
04/25/2014  13:16:00     -368.524     -126.918      -14.940      132.598      121.848       69.026    17582.334    14846.821     4764.623        9.466        1.860      389.767       72.981        0.035      336.307        7.516      851.273
04/25/2014  13:17:00     -121.859      -77.834        8.611      103.993      114.705       73.965    10814.461    13157.263     5470.824        2.521        1.472      144.595       64.663        0.200      336.562        7.945      851.262
04/25/2014  13:18:00     -187.925       -4.740      -10.023      173.695       69.295       43.953    30169.980     4801.823     1931.885        3.616        1.845      187.985       68.460        0.133      336.682        8.146      851.231
04/25/2014  13:19:00     -222.388      -76.234       -1.524      169.104      105.444       67.800    28596.088    11118.418     4596.846        4.978        2.216      235.091       76.574        0.106      336.631        8.061      851.223
04/25/2014  13:20:00     -254.003     -103.183       -3.077      113.482       98.991       67.478    12878.095     9799.125     4553.289        5.120        1.362      274.161       61.167        0.050      336.551        7.925      851.227
04/25/2014  13:21:00     -370.694      -76.865      -11.811      174.281       92.345       61.516    30373.815     8527.630     3784.260        9.307        2.134      378.579       80.303        0.045      336.234        7.395      851.220
04/25/2014  13:22:00     -297.790     -110.376       -4.855      185.636      104.649       62.143    34460.589    10951.320     3861.750        7.507        2.464      317.588       75.187        0.056      336.340        7.573      851.213
04/25/2014  13:23:00     -355.468      -56.832       -6.586      126.542      123.387       69.822    16012.769    15224.367     4875.120        8.286        1.806      359.983       66.922        0.035      336.304        7.513      851.216
04/25/2014  13:24:00     -288.038      -88.274        6.550      163.308      111.549       58.623    26669.521    12443.083     3436.684        6.667        2.127      301.261       68.763        0.052      336.335        7.564      851.202
04/25/2014  13:25:00     -287.477      -64.385       -6.397      118.106      110.488       59.506    13949.145    12207.545     3541.013        5.826        1.485      294.599       58.056        0.039      336.468        7.786      851.200
04/25/2014  13:26:00     -201.334      -75.589      -10.296      127.994      106.741       47.097    16382.500    11393.565     2218.115        3.817        1.500      215.056       52.237        0.059      336.613        8.031      851.205
04/25/2014  13:27:00     -173.524      -46.869       -1.171      133.457       81.826       56.389    17810.742     6695.453     3179.688        2.999        1.384      179.743       63.915        0.126      336.653        8.096      851.197
04/25/2014  13:28:00     -304.863      -26.296      -10.436      144.629      105.173       59.804    20917.502    11061.339     3576.484        6.464        1.778      305.995       69.975        0.052      336.392        7.660      851.197
04/25/2014  13:29:00     -225.704     -114.527      -10.558      146.065       93.250       56.200    21335.039     8695.628     3158.448        4.867        1.659      253.098       48.766        0.037      336.319        7.538      851.188
04/25/2014  13:30:00     -296.925      -22.685      -26.105      114.948       93.687       55.283    13212.951     8777.285     3056.191        5.720        1.252      297.791       52.838        0.031      336.467        7.786      851.178
04/25/2014  13:31:00     -249.200      -38.069        8.480      158.977      126.956       60.998    25273.621    16117.772     3720.757        5.436        2.256      252.091       70.086        0.077      336.512        7.859      851.167
04/25/2014  13:32:00     -261.157     -107.690       -3.736      159.773      153.646       74.413    25527.551    23607.128     5537.311        6.723        2.734      282.489       69.558        0.061      336.385        7.648      851.167
04/25/2014  13:33:00     -261.411     -128.282       -0.247      159.103      143.044       70.978    25313.886    20461.645     5037.864        6.779        2.541      291.191       62.065        0.045      336.345        7.583      851.148
04/25/2014  13:34:00     -237.421     -188.248       -7.529      156.265      125.296       74.757    24418.623    15698.966     5588.600        6.878        2.285      302.995       70.486        0.054      336.306        7.517      851.151
04/25/2014  13:35:00     -232.436     -157.361       -3.129      183.220      159.064       76.795    33569.718    25301.228     5897.495        7.177        3.238      280.694       82.931        0.087      336.329        7.555      851.143
04/25/2014  13:36:00     -297.892      -60.959       -7.828      137.105      119.913       68.393    18797.784    14379.106     4677.646        6.518        1.893      304.066       58.693        0.037      336.322        7.543      851.185
04/25/2014  13:37:00     -303.858      -82.438       -9.541      175.663      135.225       70.862    30857.324    18285.857     5021.490        7.668        2.708      314.842       80.701        0.066      336.216        7.365      851.191
04/25/2014  13:38:00     -396.611     -208.528       -9.256      161.702      155.125       90.177    26147.567    24063.782     8131.938       12.959        2.917      448.089       82.041        0.034      336.049        7.087      851.180
04/25/2014  13:39:00     -411.014      -75.263      -30.567      161.385      117.005       65.138    26045.262    13690.275     4242.947       10.975        2.199      417.848       63.374        0.023      335.967        6.949      851.183
04/25/2014  13:40:00     -288.236      -93.244      -16.223      106.414      131.189       51.270    11323.996    17210.625     2628.637        6.159        1.558      302.943       56.117        0.034      336.182        7.308      851.197
04/25/2014  13:41:00     -233.063      -37.650      -27.023      156.700       86.864       54.304    24554.951     7545.273     2948.950        4.575        1.752      236.085       61.232        0.067      336.270        7.455      851.204
04/25/2014  13:42:00     -299.531      -41.072      -18.787      125.234       96.449       52.456    15683.564     9302.322     2751.595        5.974        1.387      302.333       63.862        0.045      336.385        7.648      851.199
04/25/2014  13:43:00     -317.678      -62.703       -8.767      139.038      148.044       56.712    19331.643    21916.905     3216.304        7.469        2.223      323.807       58.671        0.033      336.305        7.514      851.191
04/25/2014  13:44:00     -291.685     -154.526       20.385      262.511      145.976       85.971    68912.206    21309.050     7391.063       10.347        4.881      330.088      116.325        0.124      336.195        7.331      851.163
04/25/2014  13:45:00     -322.534      -86.027      -15.651      118.773      147.960       61.679    14107.042    21892.096     3804.311        7.573        1.990      333.810       41.595        0.016      336.121        7.207      851.176
04/25/2014  13:46:00     -379.000        6.198      -17.867      151.619      152.519       60.633    22988.407    23262.197     3676.365        9.695        2.496      379.050       65.826        0.030      335.951        6.924      851.185
04/25/2014  13:47:00     -252.845      -72.826      -14.406      142.774       98.756       62.094    20384.546     9752.660     3855.639        5.171        1.700      263.124       56.336        0.046      336.043        7.077      851.174
04/25/2014  13:48:00     -247.068       11.413      -23.382      108.986      109.190       44.217    11877.887    11922.512     1955.139        4.373        1.288      247.332       42.225        0.029      336.125        7.214      851.174
04/25/2014  13:49:00     -234.979      -62.044       -7.018      128.095       83.412       49.820    16408.320     6957.588     2481.998        4.248        1.292      243.032       47.265        0.038      336.161        7.274      851.171
04/25/2014  13:50:00     -224.076     -156.776        2.824      111.435      111.557       54.886    12417.825    12444.955     3012.454        5.133        1.394      273.475       62.099        0.052      336.118        7.202      851.178
04/25/2014  13:51:00      -98.130       26.850       21.247      105.818      130.253       59.565    11197.438    16965.782     3547.962        2.125        1.586      101.737       49.239        0.234      336.347        7.586      851.190
04/25/2014  13:52:00     -257.894      113.504      -24.926      100.273       83.841       59.878    10054.741     7029.237     3585.434        5.034        1.033      281.767       44.819        0.025      336.202        7.340      851.187
04/25/2014  13:53:00     -225.992       68.114      -16.139       83.124       77.185       45.682     6909.527     5957.521     2086.869        3.546        0.748      236.033       33.927        0.021      336.312        7.526      851.208
04/25/2014  13:54:00     -148.911        7.630        0.560       98.312      134.253       60.547     9665.184    18023.969     3665.992        2.679        1.568      149.107       54.187        0.132      336.258        7.437      851.200
04/25/2014  13:55:00     -182.762      -46.306       31.194      190.124      108.289       78.977    36147.001    11726.403     6237.441        4.530        2.706      188.536       93.213        0.244      336.279        7.472      851.180
04/25/2014  13:56:00     -106.166       13.436       -4.935      101.233       55.136       46.942    10248.077     3039.959     2203.557        1.348        0.775      107.012       56.977        0.283      336.359        7.609      851.205
04/25/2014  13:57:00     -201.517      -21.074      -14.931       86.353      113.956       53.605     7456.846    12985.876     2873.516        3.229        1.166      202.616       50.655        0.063      336.315        7.531      851.225
04/25/2014  13:58:00     -163.189       17.489      -17.120      111.489       79.462       43.680    12429.901     6314.206     1907.909        2.394        1.033      164.123       34.346        0.044      336.264        7.447      851.233
04/25/2014  13:59:00     -149.488       17.506      -17.989       69.396       72.311       46.191     4815.841     5228.809     2133.583        1.758        0.609      150.510       34.206        0.052      336.205        7.349      851.253
04/25/2014  14:00:00     -256.949       37.007      -22.412      103.663      106.063       55.457    10745.964    11249.334     3075.493        4.648        1.254      259.600       47.358        0.033      336.019        7.037      851.255
04/25/2014  14:01:00      -77.561       86.366        4.717       68.795       75.151       50.338     4732.730     5647.672     2533.896        1.320        0.646      116.081       51.261        0.195      336.179        7.305      851.254
04/25/2014  14:02:00     -142.646       -7.940       10.029       94.806       92.798       58.233     8988.238     8611.444     3391.070        2.075        1.050      142.867       64.609        0.205      336.057        7.103      851.263
04/25/2014  14:03:00     -141.371       82.096      -35.996      120.352      104.648       47.962    14484.543    10951.248     2300.351        2.787        1.387      163.480       60.112        0.135      335.953        6.928      851.281
04/25/2014  14:04:00     -109.736      106.172      -17.303       69.652      105.400       50.782     4851.470    11109.077     2578.782        2.107        0.927      152.691       52.254        0.117      335.898        6.836      851.269
04/25/2014  14:05:00     -170.707       28.309      -25.208      119.873      101.612       62.812    14369.555    10325.025     3945.396        2.960        1.432      173.038       54.630        0.100      335.962        6.944      851.231
04/25/2014  14:06:00     -111.279      114.882      -15.088      111.383       64.137       48.301    12406.262     4113.542     2333.022        2.233        0.943      159.940       42.428        0.070      336.055        7.098      851.226
04/25/2014  14:07:00     -132.256      195.508      -25.589       91.118       87.503       55.527     8302.521     7656.860     3083.279        3.770        0.952      236.041       53.529        0.051      335.841        6.740      851.228
04/25/2014  14:08:00     -179.287      236.744      -35.730       96.582      121.239       54.648     9328.115    14698.951     2986.356        5.824        1.351      296.971       54.000        0.033      335.609        6.354      851.224
04/25/2014  14:09:00     -123.601      177.616      -14.567      110.213       98.209       55.820    12146.955     9645.102     3115.883        3.597        1.245      216.390       52.732        0.059      335.673        6.459      851.204
04/25/2014  14:10:00     -157.335      193.565      -33.429       94.590      130.300       48.855     8947.330    16978.199     2386.764        4.582        1.416      249.442       52.208        0.044      335.737        6.568      851.197
04/25/2014  14:11:00     -110.734      334.301      -32.275       82.042      120.427       52.522     6730.921    14502.652     2758.586        7.452        1.200      352.164       55.835        0.025      335.598        6.335      851.213
04/25/2014  14:12:00     -173.194      240.121      -39.274       91.660      125.074       57.911     8401.640    15643.537     3353.627        5.829        1.370      296.065       44.507        0.023      335.602        6.341      851.207
04/25/2014  14:13:00     -104.013       94.753      -12.246       95.140       67.266       51.788     9051.657     4524.729     2682.001        1.810        0.813      140.701       33.794        0.058      335.800        6.675      851.209
04/25/2014  14:14:00     -134.830      123.233      -21.454       77.044      105.939       48.291     5935.776    11223.003     2332.043        2.665        0.975      182.662       36.304        0.040      335.812        6.693      851.218
04/25/2014  14:15:00     -173.537      280.618      -51.185      108.590       82.922       62.102    11791.786     6876.000     3856.628        6.700        1.126      329.941       56.210        0.029      335.614        6.362      851.240
04/25/2014  14:16:00     -189.923      232.890      -38.706      133.095      183.482       75.175    17714.227    33665.474     5651.290        7.441        2.852      300.514       84.027        0.078      335.627        6.385      851.239
04/25/2014  14:17:00     -163.356      251.598      -39.334       79.513      157.968       58.262     6322.334    24953.781     3394.471        6.310        1.734      299.978       59.865        0.040      335.617        6.368      851.250
04/25/2014  14:18:00      -84.141      157.581      -14.418       54.686       99.501       50.090     2990.520     9900.545     2509.053        2.376        0.770      178.638       34.936        0.038      335.818        6.702      851.238
04/25/2014  14:19:00      -61.517      221.123      -29.780       77.132      113.734       46.996     5949.349    12935.481     2208.650        3.733        1.055      229.521       36.672        0.026      335.740        6.573      851.225
04/25/2014  14:20:00      -54.413      280.230      -30.609       69.588      115.072       48.104     4842.497    13241.490     2314.041        5.141        1.020      285.464       49.143        0.030      335.689        6.488      851.197
04/25/2014  14:21:00     -239.211      215.880      -60.018       81.776      141.215       53.124     6687.239    19941.794     2822.164        6.843        1.473      322.221       71.666        0.049      335.575        6.296      851.217
04/25/2014  14:22:00     -125.171      199.392      -17.695       95.831       97.632       64.080     9183.599     9531.921     4106.226        3.928        1.141      235.425       63.634        0.073      335.625        6.379      851.217
04/25/2014  14:23:00     -127.876      178.682      -24.863       62.931       94.226       46.517     3960.279     8878.526     2163.819        3.195        0.750      219.726       43.608        0.039      335.627        6.386      851.212
04/25/2014  14:24:00     -147.449      193.552      -15.543       95.547      115.642       71.562     9129.239    13373.055     5121.189        4.353        1.381      243.318       72.996        0.090      335.660        6.439      851.212
04/25/2014  14:25:00      -89.690      126.975       -5.468       67.417       78.274       38.808     4545.096     6126.863     1506.050        1.818        0.609      155.457       37.532        0.058      335.819        6.707      851.216
04/25/2014  14:26:00      -50.184       78.179        2.584       50.164       67.974       36.842     2516.400     4620.524     1357.324        0.856        0.425       92.900       30.197        0.106      335.888        6.822      851.217
04/25/2014  14:27:00      -68.436      334.476      -41.883       97.122      110.468       49.383     9432.699    12203.214     2438.648        7.119        1.204      341.405       45.535        0.018      335.520        6.206      851.219
04/25/2014  14:28:00      -89.834      275.147      -24.661       74.686      104.986       52.736     5578.025    11022.073     2781.054        5.188        0.969      289.441       49.078        0.029      335.642        6.408      851.216
04/25/2014  14:29:00     -154.658      236.374      -35.076       67.008       88.512       53.438     4490.008     7834.382     2855.629        4.810        0.759      282.474       47.119        0.028      335.516        6.198      851.242
04/25/2014  14:30:00     -108.517      254.971      -23.548       56.977      118.594       58.103     3246.355    14064.564     3375.985        4.901        1.034      277.103       57.368        0.043      335.554        6.263      851.234
04/25/2014  14:31:00      -39.362      175.105      -11.259       55.107       92.471       39.304     3036.820     8550.961     1544.822        2.273        0.657      179.474       47.904        0.071      335.730        6.556      851.225
04/25/2014  14:32:00     -160.203      115.996      -22.392      124.537      130.487       58.688    15509.572    17026.859     3444.324        3.779        1.799      197.788       58.651        0.088      335.709        6.521      851.239
04/25/2014  14:33:00     -174.802      270.712      -28.571       92.766      156.517       81.059     8605.602    24497.508     6570.480        7.216        1.984      322.243       77.866        0.058      335.464        6.112      851.250
04/25/2014  14:34:00      -65.224      183.296      -12.416       74.414       96.121       56.571     5537.466     9239.235     3200.299        2.799        0.899      194.555       51.187        0.069      335.695        6.498      851.255
04/25/2014  14:35:00      -49.775      118.593       -1.992       91.424       98.432       51.874     8358.301     9688.850     2690.943        1.864        1.037      128.616       43.140        0.113      335.679        6.472      851.246
04/25/2014  14:36:00      -59.024      175.307      -14.281       75.864      106.763       41.703     5755.359    11398.409     1739.148        2.665        0.945      184.977       30.186        0.027      335.693        6.495      851.250
04/25/2014  14:37:00      -79.298      175.338      -18.226       53.410       92.307       48.025     2852.611     8520.595     2306.405        2.552        0.684      192.436       49.423        0.066      335.697        6.499      851.266
04/25/2014  14:38:00     -166.418      269.094      -43.425      111.290      139.812       61.999    12385.400    19547.484     3843.934        6.888        1.789      316.396       62.486        0.039      335.512        6.193      851.283
04/25/2014  14:39:00     -185.303      278.711      -43.820      115.311      105.886       70.547    13296.628    11211.897     4976.931        7.171        1.474      334.690       69.008        0.043      335.387        5.985      851.286
04/25/2014  14:40:00      -62.085      277.556      -27.319       71.318      141.513       56.932     5086.260    20026.018     3241.247        5.499        1.418      284.414       66.306        0.054      335.350        5.923      851.290
04/25/2014  14:41:00      -83.406      242.553      -35.092       77.003      101.621       47.262     5929.485    10326.740     2233.704        4.275        0.924      256.493       43.367        0.029      335.410        6.022      851.280
04/25/2014  14:42:00     -164.591      178.395      -17.159      134.344      214.180       79.052    18048.298    45872.904     6249.226        6.468        3.509      242.724       98.797        0.166      335.400        6.008      851.292
04/25/2014  14:43:00     -143.335      198.813      -16.708      100.836      108.599       70.450    10167.859    11793.666     4963.257        4.363        1.346      245.095       64.034        0.068      335.280        5.805      851.298
04/25/2014  14:44:00     -257.398      319.491      -58.779      147.272      139.456       84.209    21689.027    19447.847     7091.091       11.000        2.411      410.278       85.775        0.044      335.093        5.496      851.313
04/25/2014  14:45:00     -217.247      309.083      -51.305      123.726      125.014       70.508    15308.241    15628.624     4971.405        9.063        1.795      377.794       69.175        0.034      334.960        5.276      851.329
04/25/2014  14:46:00     -202.025      204.768      -36.968      127.295       90.333       61.539    16203.901     8160.057     3787.077        5.613        1.408      287.653       61.102        0.045      335.108        5.521      851.313
04/25/2014  14:47:00     -162.730      278.059      -28.217      105.286      137.316       81.903    11085.146    18855.799     6708.183        7.061        1.832      322.177       82.658        0.066      335.090        5.491      851.295
04/25/2014  14:48:00     -193.277      317.144      -45.994      100.371      151.533       73.941    10074.310    22962.381     5467.261        8.927        1.925      371.398       58.708        0.025      334.993        5.331      851.286
04/25/2014  14:49:00     -172.045      285.638      -43.751      102.585      176.518       64.164    10523.611    31158.463     4116.988        7.944        2.290      333.450       77.334        0.054      335.003        5.347      851.275
04/25/2014  14:50:00     -192.547      274.293      -34.826      118.462      138.276       66.447    14033.258    19120.129     4415.238        7.554        1.878      335.129       55.479        0.027      334.974        5.297      851.266
04/25/2014  14:51:00     -156.217      277.996      -45.823      149.577      119.837       68.216    22373.402    14360.788     4653.441        7.258        2.069      318.882       71.852        0.051      335.009        5.356      851.268
04/25/2014  14:52:00      -88.889      326.728      -26.617       78.049      141.018       52.770     6091.655    19886.051     2784.676        7.206        1.438      338.604       43.446        0.016      335.042        5.412      851.262
04/25/2014  14:53:00     -116.492      235.331      -19.206       94.654       99.442       60.068     8959.352     9888.612     3608.176        4.588        1.123      262.586       65.572        0.062      335.082        5.477      851.261
04/25/2014  14:54:00     -114.424      352.368      -40.226       80.486      119.412       51.038     6477.999    14259.313     2604.881        8.110        1.167      370.481       44.309        0.014      335.033        5.395      851.250
04/25/2014  14:55:00     -180.410      160.687      -33.195      106.826       87.043       56.026    11411.880     7576.485     3138.866        4.079        1.106      241.594       38.139        0.025      335.016        5.367      851.267
04/25/2014  14:56:00     -161.876      259.412      -39.169       74.937       88.766       56.414     5615.556     7879.415     3182.492        5.585        0.834      305.775       47.639        0.024      334.982        5.312      851.287
04/25/2014  14:57:00     -165.689      203.615      -19.198      128.847      114.323       64.287    16601.531    13069.656     4132.846        5.154        1.690      262.511       57.761        0.048      334.978        5.305      851.296
04/25/2014  14:58:00     -197.323      227.797      -33.208      126.145      132.449       54.863    15912.596    17542.664     3009.960        6.419        1.823      301.377       54.079        0.032      334.989        5.323      851.308
04/25/2014  14:59:00     -143.230      207.307      -30.351       50.939       82.959       46.254     2594.800     6882.235     2139.399        3.801        0.581      251.974       36.131        0.021      334.972        5.294      851.301
04/25/2014  15:00:00     -148.581      193.105      -17.487      127.693      114.986       52.165    16305.375    13221.709     2721.138        4.595        1.612      243.651       49.248        0.041      335.041        5.410      851.282
04/25/2014  15:01:00     -186.837      195.811      -33.678      101.496      121.817       50.703    10301.422    14839.459     2570.837        5.104        1.386      270.647       43.412        0.026      334.986        5.317      851.252
04/25/2014  15:02:00     -117.514      244.379      -28.015      106.684      112.472       63.341    11381.455    12649.878     4012.030        5.117        1.402      271.165       74.565        0.076      334.962        5.277      851.220
04/25/2014  15:03:00     -156.289      242.228      -28.245      108.731       99.870       64.578    11822.367     9974.059     4170.302        5.493        1.298      288.272       49.877        0.030      334.983        5.312      851.193
04/25/2014  15:04:00     -114.941      246.852      -12.844       79.863      135.213       59.614     6378.157    18282.489     3553.769        5.126        1.411      272.301       55.598        0.042      335.029        5.390      851.184
04/25/2014  15:05:00      -43.926      246.724      -25.086       65.147      119.380       44.544     4244.117    14251.673     1984.181        4.195        1.024      250.604       52.371        0.044      335.035        5.400      851.179
04/25/2014  15:06:00      -80.347      208.990      -22.108       88.706      118.195       59.916     7868.689    13970.059     3589.901        3.802        1.271      223.903       54.800        0.060      335.046        5.417      851.178
04/25/2014  15:07:00      -79.283      375.105      -42.063       62.840      114.626       52.779     3948.883    13139.027     2785.578        8.431        0.994      383.392       50.855        0.018      334.883        5.145      851.169
04/25/2014  15:08:00     -103.357      353.429      -34.746       76.409      125.031       49.437     5838.287    15632.855     2444.012        8.035        1.196      368.231       53.085        0.021      334.918        5.205      851.160
04/25/2014  15:09:00     -150.686      206.018      -37.263      110.586      114.274       56.533    12229.294    13058.557     3195.954        4.751        1.424      255.245       68.870        0.073      335.031        5.393      851.149
04/25/2014  15:10:00      -77.944      297.258      -40.131      101.259      149.351       59.688    10253.484    22305.822     3562.640        6.608        1.806      307.307       49.767        0.026      335.068        5.454      851.139
04/25/2014  15:11:00     -126.551      398.358      -41.047      103.916      163.108       65.225    10798.479    26604.119     4254.316       10.901        2.083      417.977       78.408        0.035      334.947        5.252      851.130
04/25/2014  15:12:00     -146.502      464.528      -51.453       98.956      119.911       61.429     9792.346    14378.576     3773.525       13.391        1.397      487.082       47.369        0.009      334.858        5.105      851.105
04/25/2014  15:13:00     -161.580      312.677      -35.598       78.869       86.853       58.680     6220.256     7543.515     3443.322        7.117        0.860      351.959       46.606        0.018      334.983        5.313      851.124
04/25/2014  15:14:00      -95.799      321.117      -33.129       53.292      122.622       50.120     2840.073    15036.192     2512.036        6.689        1.019      335.102       50.314        0.023      334.895        5.166      851.147
04/25/2014  15:15:00     -102.732      277.011      -19.431       67.368       89.026       48.921     4538.438     7925.662     2393.307        5.126        0.743      295.447       44.244        0.022      334.938        5.236      851.148
04/25/2014  15:16:00      -90.674      261.797      -17.863       74.889       97.729       52.204     5608.364     9550.974     2725.263        4.748        0.894      277.055       48.971        0.031      334.974        5.297      851.150
04/25/2014  15:17:00      -96.213      303.712      -29.042       57.877       99.906       43.643     3349.711     9981.134     1904.690        5.879        0.762      318.588       34.466        0.012      334.986        5.318      851.140
04/25/2014  15:18:00     -103.917      292.068      -25.709       78.272      110.550       60.831     6126.433    12221.203     3700.387        5.940        1.102      310.004       44.441        0.021      335.048        5.419      851.130
04/25/2014  15:19:00      -88.277      194.911      -27.089       65.952      117.610       47.553     4349.651    13832.004     2261.310        3.348        1.022      213.970       35.240        0.027      335.160        5.607      851.101
04/25/2014  15:20:00      -78.775      181.770       -9.880       68.900      123.277       47.037     4747.187    15197.314     2212.440        3.075        1.108      198.105       44.800        0.051      335.133        5.563      851.083
04/25/2014  15:21:00      -70.302      122.208       -5.009       63.669       62.998       41.258     4053.683     3968.759     1702.248        1.481        0.486      140.987       37.370        0.070      335.263        5.781      851.055
04/25/2014  15:22:00      -95.045      172.199      -20.756      102.787      104.715       70.308    10565.267    10965.221     4943.194        3.279        1.324      196.687       69.345        0.124      335.216        5.701      851.051
04/25/2014  15:23:00      -65.329      100.105       -0.710       59.640       80.064       37.182     3556.953     6410.324     1382.476        1.282        0.567      119.536       29.366        0.060      335.232        5.727      851.065
04/25/2014  15:24:00     -105.973      297.892      -32.367       69.169       73.139       47.788     4784.388     5349.283     2283.704        5.672        0.621      316.180       34.504        0.012      334.997        5.337      851.092
04/25/2014  15:25:00      -88.936      182.354      -11.143       66.811      108.275       41.187     4463.695    11723.400     1696.391        2.958        0.894      202.886       31.394        0.024      335.065        5.449      851.105
04/25/2014  15:26:00      -81.271      169.086      -21.699       92.171       97.091       47.374     8495.468     9426.705     2244.265        2.791        1.008      187.603       37.795        0.041      335.036        5.402      851.127
04/25/2014  15:27:00     -175.214      169.436      -32.996       95.855      100.784       60.738     9188.091    10157.510     3689.069        4.176        1.152      243.739       51.326        0.044      334.904        5.180      851.116
04/25/2014  15:28:00     -187.246      125.687      -32.628       55.650       64.358       46.080     3096.931     4141.923     2123.390        3.064        0.468      225.518       34.012        0.023      334.886        5.152      851.103
04/25/2014  15:29:00      -75.788       33.379       -5.193       71.645       67.442       43.480     5132.964     4548.377     1890.553        0.923        0.579       82.813       32.022        0.150      334.962        5.280      851.066
04/25/2014  15:30:00     -102.092      138.071      -26.492       85.420       99.208       41.323     7296.533     9842.136     1707.611        2.451        0.942      171.716       53.938        0.099      335.104        5.515      851.060
04/25/2014  15:31:00     -101.531      117.286       -8.776       75.348      121.465       42.236     5677.302    14753.633     1783.876        2.317        1.111      155.127       47.634        0.094      335.065        5.449      851.063
04/25/2014  15:32:00      -66.183      230.383      -11.819       77.273       92.835       53.965     5971.142     8618.370     2912.194        3.755        0.875      239.701       48.738        0.041      334.925        5.216      851.051
04/25/2014  15:33:00      -87.799      246.225      -22.179       79.392      137.649       47.716     6303.124    18947.314     2276.838        4.817        1.376      261.410       48.335        0.034      334.902        5.179      851.041
04/25/2014  15:34:00      -64.258      257.186      -16.349       84.157      101.646       54.597     7082.323    10331.938     2980.868        4.546        1.020      265.092       46.261        0.030      334.874        5.131      851.016
04/25/2014  15:35:00     -140.416      313.615      -35.648       96.040       88.339       54.554     9223.607     7803.854     2976.111        6.967        1.000      343.615       54.017        0.025      334.765        4.949      851.018
04/25/2014  15:36:00     -106.784      276.884      -30.480       87.898      104.578       49.422     7726.001    10936.660     2442.517        5.505        1.055      296.762       42.576        0.021      334.779        4.973      851.035
04/25/2014  15:37:00     -107.996      291.095      -33.820       89.181       87.717       55.804     7953.289     7694.255     3114.139        5.815        0.938      310.483       41.047        0.017      334.787        4.985      851.062
04/25/2014  15:38:00     -102.485      174.917      -19.098       83.363       92.533       47.422     6949.355     8562.277     2248.888        2.961        0.888      202.729       55.049        0.074      334.865        5.118      851.081
04/25/2014  15:39:00      -58.113      255.523      -16.571       70.860      111.707       59.699     5021.127    12478.519     3564.025        4.500        1.053      262.048       57.698        0.048      334.872        5.128      851.111
04/25/2014  15:40:00      -49.294      339.775      -30.614       63.922      112.891       47.695     4086.012    12744.275     2274.848        6.896        0.955      343.332       50.923        0.022      334.783        4.978      851.117
04/25/2014  15:41:00      -76.551      303.590      -19.837       74.127       89.223       49.425     5494.834     7960.767     2442.787        5.716        0.795      313.093       43.843        0.020      334.822        5.043      851.127
04/25/2014  15:42:00      -59.708      165.603      -16.923       62.131      103.251       42.812     3860.232    10660.834     1832.887        2.381        0.818      176.038       43.854        0.062      334.870        5.126      851.130
04/25/2014  15:43:00      -76.120      114.808       -4.887       62.275      102.665       39.535     3878.226    10540.064     1562.990        1.749        0.799      137.750       40.443        0.086      335.029        5.392      851.128
04/25/2014  15:44:00      -42.694      111.153      -14.946       40.598       97.978       35.866     1648.162     9599.641     1286.372        1.347        0.627      119.071       44.819        0.142      335.114        5.532      851.114
04/25/2014  15:45:00     -112.611      205.641      -21.414       68.092       85.253       49.425     4636.546     7268.056     2442.826        3.488        0.717      234.456       48.492        0.043      334.947        5.253      851.115
04/25/2014  15:46:00      -58.764      228.053      -12.603       66.111       90.611       51.494     4370.606     8210.440     2651.642        3.542        0.762      235.503       50.465        0.046      334.973        5.295      851.092
04/25/2014  15:47:00      -41.318      132.933      -15.244       40.194       45.179       31.230     1615.573     2041.105      975.323        1.212        0.232      139.206       24.282        0.030      335.002        5.346      851.089
04/25/2014  15:48:00      -69.058       75.266      -24.286       48.632       75.963       40.705     2365.064     5770.355     1656.878        1.041        0.490      102.147       25.625        0.063      335.120        5.543      851.089
04/25/2014  15:49:00      -28.569       83.140      -12.212       34.457       61.959       23.205     1187.285     3838.924      538.471        0.672        0.278       87.911       22.132        0.063      335.094        5.501      851.074
04/25/2014  15:50:00       23.525       15.865        1.656       48.515       33.421       21.783     2353.715     1116.985      474.511        0.238        0.197       28.375       17.011        0.359      335.152        5.599      851.060
04/25/2014  15:51:00        2.915      194.151      -26.269       49.215       77.400       38.427     2422.150     5990.819     1476.645        2.414        0.494      194.173       32.887        0.029      334.912        5.196      851.065
04/25/2014  15:52:00      -25.916      155.250       -4.893       44.157       73.748       38.836     1949.814     5438.799     1508.256        1.685        0.445      157.398       31.947        0.041      334.981        5.311      851.084
04/25/2014  15:53:00      -28.947      255.330      -33.438       59.140       90.200       39.759     3497.590     8136.002     1580.802        4.018        0.661      256.965       42.506        0.027      334.768        4.954      851.100
04/25/2014  15:54:00      -30.905      169.106      -16.371       59.323       60.559       39.775     3519.167     3667.434     1582.082        1.929        0.438      171.907       42.382        0.061      335.014        5.366      851.116
04/25/2014  15:55:00     -105.681      161.338      -29.593       94.307       69.682       50.348     8893.824     4855.524     2534.885        2.718        0.814      192.869       43.651        0.051      334.941        5.243      851.137
04/25/2014  15:56:00       -6.335      130.524        5.263       78.546       84.539       53.972     6169.455     7146.843     2912.938        1.666        0.811      130.678       54.608        0.175      335.016        5.368      851.129
04/25/2014  15:57:00     -132.541      245.744      -32.179       84.836      101.666       48.251     7197.213    10336.016     2328.167        4.942        0.993      279.208       44.442        0.025      334.786        4.986      851.146
04/25/2014  15:58:00      -69.834      175.486      -17.039       82.977       94.947       48.706     6885.126     9015.014     2372.296        2.711        0.914      188.871       49.852        0.070      334.867        5.120      851.140
04/25/2014  15:59:00      -84.734      152.298      -16.173       99.736       71.035       50.120     9947.185     5046.041     2512.052        2.407        0.875      174.283       53.288        0.093      334.873        5.130      851.145
04/25/2014  16:00:00      -31.339      181.148      -10.840       53.454       91.393       39.796     2857.277     8352.634     1583.718        2.335        0.640      183.839       41.727        0.052      334.909        5.192      851.139
04/25/2014  16:01:00      -20.451      260.033      -30.726       51.795       76.608       37.880     2682.677     5868.852     1434.894        3.948        0.499      260.835       38.193        0.021      334.842        5.078      851.135
04/25/2014  16:02:00      -21.942      168.343      -16.160       47.252       73.420       47.254     2232.711     5390.458     2232.902        1.947        0.493      169.767       47.596        0.079      334.953        5.265      851.134
04/25/2014  16:03:00      -24.177      186.795       -2.032       62.802       86.663       52.417     3944.138     7510.537     2747.504        2.484        0.710      188.353       55.396        0.086      334.921        5.210      851.126
04/25/2014  16:04:00      -41.354      202.193      -30.308       96.056       93.269       34.005     9226.762     8699.120     1156.348        3.129        0.954      206.379       35.981        0.030      334.862        5.113      851.113
04/25/2014  16:05:00      -43.590      234.906      -23.209       55.448       72.517       38.575     3074.526     5258.783     1488.049        3.372        0.491      238.917       36.309        0.023      334.844        5.080      851.107
04/25/2014  16:06:00      -62.762      216.682      -20.247       56.277       41.241       26.398     3167.049     1700.814      696.865        2.843        0.278      225.589       21.892        0.009      334.854        5.097      851.122
04/25/2014  16:07:00      -29.388      200.227      -27.954       68.914       66.171       40.731     4749.172     4378.563     1659.017        2.626        0.539      202.372       41.301        0.042      334.820        5.043      851.131
04/25/2014  16:08:00      -79.404      141.566      -32.506       67.461       73.840       30.844     4550.964     5452.328      951.363        1.918        0.548      162.315       29.525        0.033      334.897        5.171      851.134
04/25/2014  16:09:00      -13.183       93.735       -4.496       41.622       57.338       29.147     1732.398     3287.598      849.533        0.742        0.293       94.657       22.226        0.055      334.976        5.305      851.143
04/25/2014  16:10:00      -15.409      190.396      -23.741       56.674       74.700       30.842     3211.987     5580.105      951.221        2.340        0.487      191.018       31.492        0.027      334.861        5.110      851.141
04/25/2014  16:11:00       -4.831      168.497      -14.220       51.279       68.233       34.987     2629.495     4655.798     1224.107        1.856        0.425      168.566       35.252        0.044      334.946        5.253      851.124
04/25/2014  16:12:00      -34.334      128.568       -6.117       46.937       81.188       36.844     2203.104     6591.421     1357.462        1.395        0.508      133.073       40.491        0.093      334.984        5.318      851.082
04/25/2014  16:13:00      -26.914      160.509      -15.791       46.280       60.632       34.481     2141.824     3676.280     1188.961        1.687        0.350      162.750       28.946        0.032      335.025        5.384      851.042
04/25/2014  16:14:00      -33.540      234.232      -19.251       73.886       73.153       48.128     5459.133     5351.434     2316.287        3.474        0.656      236.621       40.962        0.030      334.781        4.976      850.997
04/25/2014  16:15:00      -19.235      215.933      -17.940       89.025       80.663       40.985     7925.435     6506.530     1679.800        3.171        0.806      216.788       36.729        0.029      334.766        4.952      850.960
04/25/2014  16:16:00      -75.646      192.403      -21.102       65.395       78.160       40.534     4276.524     6109.060     1643.010        2.761        0.601      206.739       21.312        0.011      334.783        4.980      850.985
04/25/2014  16:17:00      -80.517      159.465       -9.498       50.214       48.595       41.954     2521.421     2361.492     1760.153        1.932        0.332      178.639       31.796        0.032      334.748        4.924      850.995
04/25/2014  16:18:00      -73.380       98.263      -12.240       48.319       80.337       29.814     2334.714     6454.039      888.893        1.243        0.484      122.639       18.147        0.022      334.883        5.148      850.987
04/25/2014  16:19:00      -95.102       75.581      -24.984       86.693       76.834       35.034     7515.623     5903.450     1227.373        1.501        0.732      121.478       33.304        0.075      334.666        4.786      851.001
04/25/2014  16:20:00      -62.881      107.128      -27.278       40.120       74.833       34.537     1609.626     5599.917     1192.831        1.229        0.420      124.219       34.123        0.075      334.711        4.863      850.995
04/25/2014  16:21:00      -25.892       77.365       21.598       46.181       70.807       42.017     2132.669     5013.700     1765.439        0.802        0.446       81.582       19.016        0.054      335.015        5.369      850.963
04/25/2014  16:22:00      -28.682       44.049       15.484       35.326       43.124       23.699     1247.894     1859.701      561.656        0.334        0.183       52.564       21.449        0.167      334.984        5.318      850.928
04/25/2014  16:23:00        7.656      129.355        3.243       68.508      106.299       48.123     4693.343    11299.452     2315.836        1.755        0.915      129.581       58.875        0.206      334.753        4.932      850.888
04/25/2014  16:24:00        0.033      107.291        2.980       49.520       73.587       43.379     2452.241     5415.055     1881.695        1.063        0.487      107.291       46.008        0.184      334.746        4.920      850.825
04/25/2014  16:25:00       -7.912      130.670      -17.385       59.782       69.038       36.771     3573.876     4766.284     1352.079        1.356        0.485      130.909       26.139        0.040      334.934        5.233      850.764
04/25/2014  16:26:00       39.901      191.284      -12.196       81.046      109.719       54.991     6568.507    12038.159     3023.976        2.998        1.082      195.401       58.832        0.091      334.835        5.068      850.721
04/25/2014  16:27:00        0.624      218.727      -12.714       59.998      145.019       51.055     3599.716    21030.611     2606.633        3.761        1.362      218.728       70.983        0.105      334.796        5.003      850.688
04/25/2014  16:28:00       61.641      200.675      -14.960       61.790      160.711       67.199     3818.032    25827.874     4515.745        3.922        1.708      209.928       84.658        0.163      334.850        5.093      850.685
04/25/2014  16:29:00       32.794      210.562      -16.856       81.378      121.897       60.807     6622.394    14858.888     3697.483        3.543        1.259      213.101       68.351        0.103      334.805        5.016      850.701
04/25/2014  16:30:00       -1.260      234.547      -16.481       59.432      120.925       45.044     3532.166    14622.971     2028.927        3.773        1.009      234.550       55.416        0.056      334.871        5.127      850.715
04/25/2014  16:31:00       50.850      202.040        4.473       82.900       98.571       57.963     6872.460     9716.341     3359.665        3.168        0.997      208.341       60.737        0.085      334.831        5.060      850.719
04/25/2014  16:32:00      -40.317      274.389      -17.046       77.460       97.132       55.105     6000.042     9434.642     3036.518        4.783        0.924      277.335       48.957        0.031      334.902        5.178      850.700
04/25/2014  16:33:00       58.384      113.606       -5.865       88.312       79.242       64.508     7799.071     6279.246     4161.267        1.729        0.912      127.730       51.611        0.163      334.991        5.328      850.666
04/25/2014  16:34:00        3.236      351.234      -51.226       79.787      113.086       45.353     6366.002    12788.529     2056.920        7.360        1.061      351.249       45.350        0.017      334.803        5.013      850.628
04/25/2014  16:35:00       46.218      212.411      -21.492       77.178      116.713       63.624     5956.421    13621.965     4047.953        3.567        1.181      217.381       67.027        0.095      334.979        5.308      850.576
04/25/2014  16:36:00       44.124      209.578        5.203       90.555      120.452       73.541     8200.193    14508.712     5408.332        3.700        1.406      214.172       76.222        0.127      334.885        5.149      850.559
04/25/2014  16:37:00       -1.349      244.910      -33.878       75.904      111.793       48.768     5761.356    12497.771     2378.318        4.088        1.032      244.914       57.024        0.054      334.950        5.258      850.563
04/25/2014  16:38:00      -29.739      215.817      -12.840       73.134      104.438       62.019     5348.632    10907.273     3846.380        3.386        1.005      217.857       59.114        0.074      335.029        5.390      850.592
04/25/2014  16:39:00      -76.688      344.193      -32.010       62.810      125.970       54.530     3945.083    15868.439     2973.467        7.408        1.139      352.633       56.466        0.026      334.893        5.163      850.617
04/25/2014  16:40:00      -83.972      455.492      -51.922       62.874       94.816       41.737     3953.173     8990.159     1742.004       11.595        0.734      463.168       38.924        0.007      334.702        4.845      850.652
04/25/2014  16:41:00     -113.250      351.631      -45.150       81.222       93.160       45.212     6596.993     8678.780     2044.165        7.791        0.866      369.419       33.455        0.008      334.844        5.081      850.692
04/25/2014  16:42:00      -60.616      192.569      -25.561       58.702      103.901       47.472     3445.924    10795.408     2253.632        2.895        0.825      201.884       48.783        0.058      335.003        5.346      850.727
04/25/2014  16:43:00      -61.642      331.082      -34.257       76.623      135.368       61.045     5871.136    18324.483     3726.513        7.125        1.396      336.771       71.563        0.045      335.036        5.400      850.749
04/25/2014  16:44:00      -53.729      288.329      -28.245       80.073       86.685       46.657     6411.617     7514.328     2176.875        5.146        0.805      293.293       42.576        0.021      335.053        5.430      850.761
04/25/2014  16:45:00        0.282      367.409      -50.502       73.223      100.717       49.645     5361.670    10143.928     2464.617        7.775        0.899      367.409       42.983        0.014      334.940        5.241      850.738
04/25/2014  16:46:00       22.687      117.595      -19.094       75.406      123.288       51.042     5686.037    15199.858     2605.330        1.909        1.175      119.763       57.367        0.229      335.197        5.670      850.708
04/25/2014  16:47:00       64.607      167.106      -12.487       94.628      102.162       67.135     8954.383    10437.020     4507.054        2.807        1.195      179.161       60.682        0.115      335.294        5.830      850.679
04/25/2014  16:48:00        7.122      339.163      -25.261      111.671      161.212       86.240    12470.425    25989.240     7437.309        8.080        2.295      339.238       89.622        0.070      335.183        5.646      850.664
04/25/2014  16:49:00       16.695      366.643      -26.593       87.915      176.858       90.470     7729.038    31278.628     8184.782        9.129        2.360      367.023       94.550        0.066      335.202        5.676      850.658
04/25/2014  16:50:00     -112.850      393.445      -44.475      119.640      112.568       72.138    14313.712    12671.489     5203.935       10.084        1.609      409.309       63.408        0.024      335.110        5.524      850.665
04/25/2014  16:51:00      -82.488      292.643      -27.976       96.165       94.819       59.407     9247.710     8990.650     3529.217        5.749        1.088      304.046       40.277        0.018      335.118        5.536      850.665
04/25/2014  16:52:00     -124.298      298.475      -34.597      124.851      124.605       63.733    15587.804    15526.401     4061.860        7.045        1.759      323.323       70.264        0.047      335.152        5.594      850.648
04/25/2014  16:53:00      -56.184      367.970      -33.389       81.184      132.697       64.124     6590.859    17608.575     4111.847        8.399        1.416      372.235       68.255        0.034      335.102        5.511      850.650
04/25/2014  16:54:00     -118.776      399.673      -49.777       97.879      184.640       70.052     9580.332    34091.868     4907.336       11.244        2.429      416.949       77.219        0.034      334.960        5.274      850.678
04/25/2014  16:55:00      -70.805      482.558      -49.536       70.967      121.804       47.772     5036.287    14836.221     2282.134       13.124        1.108      487.725       49.344        0.010      334.892        5.161      850.671
04/25/2014  16:56:00      -46.331      445.912      -50.172       84.059      145.044       57.008     7065.991    21037.641     3249.864       11.742        1.568      448.313       69.821        0.024      334.864        5.114      850.651
04/25/2014  16:57:00      -84.494      452.332      -44.918       86.852      134.092       61.831     7543.343    17980.658     3823.064       12.155        1.467      460.156       56.087        0.015      334.959        5.273      850.628
04/25/2014  16:58:00     -129.529      260.647      -39.392       98.978      123.595       54.380     9796.554    15275.724     2957.197        5.714        1.401      291.058       57.484        0.039      334.991        5.326      850.607
04/25/2014  16:59:00     -170.134      331.009      -50.405      114.031      140.151       61.193    13003.014    19642.164     3744.547        8.871        1.819      372.173       57.881        0.024      334.989        5.323      850.596
04/25/2014  17:00:00     -176.625      275.681      -44.890      122.632      131.759       72.306    15038.687    17360.471     5228.128        7.341        1.881      327.408       82.424        0.063      335.025        5.383      850.601
04/25/2014  17:01:00     -104.760      318.062      -32.461      103.561      112.892       59.131    10724.901    12744.713     3496.434        7.007        1.348      334.870       51.875        0.024      335.045        5.415      850.615
04/25/2014  17:02:00      -81.146      397.975      -41.494       94.208      162.371       61.354     8875.187    26364.297     3764.365       10.284        1.950      406.163       74.137        0.033      334.909        5.191      850.615
04/25/2014  17:03:00      -55.730      562.823      -65.789       75.370      117.993       49.526     5680.628    13922.430     2452.824       17.313        1.103      565.575       45.224        0.006      334.743        4.913      850.599
04/25/2014  17:04:00     -105.826      350.620      -41.915       95.005      137.229       56.479     9025.935    18831.846     3189.933        8.346        1.552      366.242       55.913        0.023      334.955        5.265      850.596
04/25/2014  17:05:00     -126.414      463.524      -65.829      134.329      136.162       66.628    18044.282    18540.127     4439.236       13.809        2.051      480.453       60.848        0.016      334.884        5.147      850.582
04/25/2014  17:06:00      -80.136      429.473      -48.639       93.788      147.214       55.701     8796.193    21672.040     3102.612       11.340        1.679      436.886       59.178        0.018      334.882        5.144      850.583
04/25/2014  17:07:00      -82.380      373.128      -56.994       95.362       77.110       44.193     9094.005     5946.003     1953.045        8.312        0.850      382.114       36.571        0.009      334.880        5.142      850.563
04/25/2014  17:08:00     -115.786      351.973      -43.655      119.106      150.685       66.069    14186.289    22705.865     4365.065        9.022        2.063      370.529       66.747        0.032      334.952        5.262      850.544
04/25/2014  17:09:00     -137.341      253.395      -26.076      124.503      145.835       70.540    15501.053    21267.972     4975.880        6.274        2.087      288.221       71.568        0.062      335.058        5.437      850.529
04/25/2014  17:10:00     -181.264      344.934      -44.809       89.398      128.384       61.151     7991.981    16482.427     3739.492        9.102        1.411      389.661       65.615        0.028      334.988        5.320      850.508
04/25/2014  17:11:00     -114.393      356.318      -48.201       76.879      100.614       53.716     5910.420    10123.103     2885.451        8.064        0.946      374.231       50.342        0.018      334.930        5.223      850.496
04/25/2014  17:12:00      -94.999      323.544      -46.144       84.697      118.120       54.590     7173.656    13952.402     2980.038        6.997        1.205      337.202       58.053        0.030      334.976        5.300      850.482
04/25/2014  17:13:00     -128.375      402.407      -56.976      130.848      123.003       59.447    17121.255    15129.839     3533.965       10.871        1.789      422.388       50.001        0.014      334.897        5.170      850.461
04/25/2014  17:14:00     -108.781      324.542      -33.937      101.581      117.901       67.526    10318.634    13900.744     4559.758        7.354        1.439      342.287       73.448        0.046      334.921        5.208      850.467
04/25/2014  17:15:00     -128.634      353.804      -44.489       97.755      149.810       69.257     9556.000    22443.162     4796.507        9.024        1.840      376.462       76.215        0.041      334.872        5.128      850.472
04/25/2014  17:16:00      -93.813      531.000      -68.571       77.603       96.114       41.718     6022.288     9237.933     1740.363       15.623        0.850      539.224       40.644        0.006      334.764        4.948      850.476
04/25/2014  17:17:00      -49.352      489.051      -47.755       54.473      101.140       50.504     2967.300    10229.354     2550.658       12.981        0.787      491.535       46.968        0.009      334.792        4.994      850.479
04/25/2014  17:18:00      -46.585      383.678      -41.873       62.941       93.813       40.857     3961.591     8800.924     1669.272        8.278        0.722      386.496       37.743        0.010      334.878        5.139      850.502
04/25/2014  17:19:00      -70.625      403.358      -50.947       84.998      119.399       49.576     7224.706    14256.163     2457.820        9.711        1.197      409.494       50.031        0.015      334.944        5.247      850.518
04/25/2014  17:20:00      -83.402      253.635      -19.440       84.750      112.582       52.586     7182.498    12674.632     2765.285        4.714        1.131      266.995       55.556        0.043      334.952        5.262      850.538
04/25/2014  17:21:00      -85.663      340.059      -37.745       78.541      136.355       62.520     6168.747    18592.754     3908.722        7.653        1.434      350.683       57.852        0.027      334.902        5.179      850.539
04/25/2014  17:22:00     -112.425      313.754      -36.525       93.386      157.779       59.754     8720.919    24894.193     3570.597        7.479        1.859      333.288       60.398        0.033      334.932        5.227      850.548
04/25/2014  17:23:00      -79.149      458.624      -45.383       77.606       89.381       46.549     6022.740     7988.992     2166.803       11.742        0.809      465.404       44.244        0.009      334.815        5.032      850.543
04/25/2014  17:24:00     -118.612      288.405      -30.185       67.988      108.287       50.840     4622.325    11726.081     2584.669        5.854        0.947      311.844       49.586        0.025      334.947        5.253      850.554
04/25/2014  17:25:00     -123.649      277.287      -29.031      101.341      109.065       63.151    10269.973    11895.119     3988.024        5.958        1.308      303.607       63.464        0.044      334.925        5.216      850.553
04/25/2014  17:26:00      -96.129      397.159      -40.261       96.602      115.998       63.958     9332.004    13455.639     4090.592        9.773        1.344      408.627       48.908        0.014      334.862        5.110      850.534
04/25/2014  17:27:00     -135.179      287.493      -32.786      100.812      160.994       64.507    10162.988    25919.218     4161.216        7.111        2.012      317.688       68.494        0.046      334.930        5.226      850.518
04/25/2014  17:28:00     -189.306      278.813      -50.281      100.351      120.257       65.491    10070.352    14461.648     4289.084        7.246        1.441      337.006       68.239        0.041      334.910        5.191      850.510
04/25/2014  17:29:00     -126.612      317.756      -43.061      109.107      111.141       70.351    11904.397    12352.401     4949.209        7.402        1.460      342.052       59.672        0.030      334.940        5.241      850.503
04/25/2014  17:30:00     -157.574      256.093      -31.831      100.930      145.196       67.046    10186.879    21081.995     4495.210        6.359        1.788      300.688       67.859        0.051      334.913        5.195      850.483
04/25/2014  17:31:00     -167.799      231.013      -37.649      128.181      119.672       66.332    16430.261    14321.437     4399.932        5.904        1.758      285.523       73.400        0.066      334.917        5.202      850.458
04/25/2014  17:32:00      -87.841      113.714       -5.368       59.885      100.534       51.492     3586.197    10107.031     2651.433        1.851        0.817      143.691       45.202        0.099      335.083        5.481      850.435
04/25/2014  17:33:00     -169.550      163.898      -38.742       90.392      102.733       55.556     8170.696    10554.056     3086.519        3.946        1.091      235.817       47.351        0.040      335.025        5.381      850.416
04/25/2014  17:34:00     -180.246      228.122      -54.989       90.003      100.377       49.678     8100.503    10075.635     2467.924        5.409        1.032      290.738       46.694        0.026      334.884        5.148      850.409
04/25/2014  17:35:00     -139.856      257.014      -34.546       75.279       98.132       55.263     5666.923     9629.952     3054.049        5.258        0.918      292.602       48.800        0.028      334.970        5.291      850.380
04/25/2014  17:36:00     -176.078      292.103      -48.171       91.858       92.678       64.080     8437.975     8589.155     4106.261        6.989        1.057      341.069       52.461        0.024      334.920        5.207      850.369
04/25/2014  17:37:00     -154.008      281.424      -35.032       70.096      124.084       51.984     4913.505    15396.719     2702.339        6.357        1.151      320.808       48.227        0.023      334.968        5.287      850.371
04/25/2014  17:38:00     -138.464      151.318      -33.974       87.540       97.608       54.012     7663.218     9527.394     2917.305        3.166        1.005      205.108       64.185        0.098      335.115        5.534      850.374
04/25/2014  17:39:00     -215.055      259.659      -46.792      124.211      128.735       65.737    15428.480    16572.672     4321.397        7.608        1.816      337.152       67.825        0.040      334.942        5.245      850.374
04/25/2014  17:40:00      -80.138      106.514       -2.228      105.139       66.348       45.502    11054.305     4402.061     2070.463        1.765        0.876      133.294       35.488        0.071      335.170        5.625      850.358
04/25/2014  17:41:00     -151.909      151.745      -21.238       93.471       86.759       47.012     8736.772     7527.156     2210.098        3.251        0.924      214.716       50.235        0.055      335.168        5.621      850.356
04/25/2014  17:42:00     -159.282      262.913      -38.987      103.121      132.125       52.211    10633.974    17457.064     2725.951        6.341        1.541      307.398       57.919        0.036      334.966        5.284      850.363
04/25/2014  17:43:00     -109.035      392.054      -31.674       92.614      123.428       57.844     8577.297    15234.506     3345.976        9.687        1.358      406.933       48.970        0.014      334.936        5.236      850.365
04/25/2014  17:44:00      -55.641      227.896      -17.048       80.096      143.156       43.105     6415.296    20493.617     1858.083        4.204        1.438      234.590       61.064        0.068      335.095        5.499      850.355
04/25/2014  17:45:00      -85.196      193.579      -19.188       82.946      120.929       46.364     6880.069    14623.738     2149.648        3.437        1.183      211.497       54.806        0.067      335.133        5.562      850.350
04/25/2014  17:46:00      -85.075      320.110      -44.359       92.228      117.465       44.305     8506.031    13798.117     1962.929        6.797        1.213      331.222       47.857        0.021      334.996        5.335      850.336
04/25/2014  17:47:00      -44.218      322.410      -39.691       86.966      158.086       58.603     7563.067    24991.180     3434.306        7.173        1.799      325.428       68.467        0.044      335.003        5.345      850.330
04/25/2014  17:48:00      -96.402      454.187      -54.128       73.452      123.767       56.842     5395.171    15318.219     3231.033       12.122        1.197      464.305       54.160        0.014      334.856        5.101      850.319
04/25/2014  17:49:00      -56.578      323.634      -33.123       69.071      153.905       55.893     4770.734    23686.856     3124.056        7.030        1.579      328.543       81.608        0.062      334.972        5.294      850.317
04/25/2014  17:50:00      -90.810      160.619       -9.683       71.243      116.418       50.943     5075.539    13553.137     2595.189        2.768        1.061      184.513       50.353        0.074      335.165        5.616      850.324
04/25/2014  17:51:00     -118.766      271.111      -37.157       80.400      101.190       60.875     6464.155    10239.465     3705.821        5.469        1.020      295.984       65.498        0.049      335.014        5.364      850.323
04/25/2014  17:52:00      -41.055      383.787      -48.604       70.075      120.771       45.671     4910.561    14585.625     2085.803        8.646        1.079      385.976       53.128        0.019      334.923        5.213      850.343
04/25/2014  17:53:00      -18.754      385.415      -51.716      106.275       98.303       55.702    11294.382     9663.548     3102.724        8.781        1.203      385.871       57.139        0.022      334.877        5.137      850.341
04/25/2014  17:54:00      -56.442      369.094      -41.231       66.982      108.240       44.814     4486.608    11715.913     2008.327        7.966        0.911      373.384       43.302        0.013      334.826        5.051      850.335
04/25/2014  17:55:00      -20.232      161.815      -16.860       63.753      104.866       56.060     4064.426    10996.877     3142.770        2.254        0.910      163.075       63.271        0.151      335.032        5.395      850.331
04/25/2014  17:56:00      -53.262      219.030      -24.994       92.347      100.352       53.331     8528.048    10070.595     2844.227        3.643        1.072      225.413       39.268        0.030      335.033        5.396      850.339
04/25/2014  17:57:00      -32.130      254.657      -24.036       84.015      111.357       50.542     7058.481    12400.331     2554.482        4.423        1.101      256.676       54.385        0.045      334.959        5.275      850.337
04/25/2014  17:58:00      -31.416      215.155      -17.697       93.963       99.063       57.516     8829.019     9813.444     3308.116        3.477        1.098      217.437       49.137        0.051      335.056        5.435      850.331
04/25/2014  17:59:00      -47.533      223.836      -18.699       59.981      164.457       50.987     3597.774    27046.149     2599.721        4.297        1.662      228.827       74.413        0.106      335.066        5.452      850.333
04/25/2014  18:00:00      -35.736      185.467      -21.833       77.961      106.273       41.129     6077.892    11293.910     1691.566        2.760        0.953      188.879       45.518        0.058      335.076        5.468      850.319
04/25/2014  18:01:00      -56.373      137.366      -13.848       54.511       80.014       39.667     2971.414     6402.168     1573.463        1.659        0.547      148.483       29.696        0.040      335.179        5.641      850.306
04/25/2014  18:02:00       19.294      172.141       -9.965       56.810      109.831       47.894     3227.413    12062.852     2293.819        2.384        0.879      173.219       52.525        0.092      335.151        5.594      850.307
04/25/2014  18:03:00       -9.396      177.632      -23.788       80.748      106.193       57.586     6520.303    11276.884     3316.127        2.666        1.056      177.881       47.084        0.070      335.126        5.551      850.305
04/25/2014  18:04:00      -48.704      294.344      -31.267       67.796       95.215       45.675     4596.286     9065.885     2086.194        5.287        0.787      298.346       38.690        0.017      335.010        5.358      850.305
04/25/2014  18:05:00      -21.051      328.693      -46.681       67.074       92.532       43.149     4498.960     8562.112     1861.829        6.279        0.746      329.367       46.029        0.020      334.967        5.287      850.299
04/25/2014  18:06:00      -55.333      234.860      -15.688       85.118      156.302       63.787     7245.150    24430.460     4068.761        4.710        1.787      241.290       84.288        0.122      335.115        5.533      850.319
04/25/2014  18:07:00     -122.115      298.269      -38.014       92.751      110.512       65.721     8602.761    12213.010     4319.219        6.522        1.257      322.298       65.668        0.042      334.928        5.222      850.323
04/25/2014  18:08:00      -73.893      353.030      -39.426       71.045      126.745       47.435     5047.328    16064.301     2250.065        7.750        1.168      360.680       57.234        0.025      334.943        5.245      850.319
04/25/2014  18:09:00     -142.225      238.938      -39.943       63.175       94.097       44.730     3991.121     8854.198     2000.757        4.688        0.742      278.063       33.976        0.015      334.957        5.269      850.309
04/25/2014  18:10:00      -62.207      175.996      -15.584       61.884       53.980       42.914     3829.621     2913.878     1841.623        2.183        0.429      186.666       34.651        0.034      335.067        5.453      850.312
04/25/2014  18:11:00      -68.076      279.521      -32.000       91.951      144.582       53.771     8454.901    20903.930     2891.365        5.801        1.613      287.692       72.623        0.064      334.984        5.316      850.322
04/25/2014  18:12:00     -159.026      249.585      -48.312      119.175      121.844       52.913    14202.684    14846.062     2799.789        6.088        1.592      295.943       54.723        0.034      334.885        5.151      850.332
04/25/2014  18:13:00     -100.852      293.274      -43.105      110.638      124.282       49.178    12240.659    15446.010     2418.447        6.407        1.505      310.130       55.685        0.032      334.871        5.126      850.347
04/25/2014  18:14:00      -46.161      195.097       -5.684       56.335      121.062       50.337     3173.605    14655.901     2533.806        3.029        1.018      200.483       57.977        0.084      334.978        5.305      850.338
04/25/2014  18:15:00     -149.521      277.987      -36.101       73.864       86.704       54.005     5455.829     7517.655     2916.558        5.841        0.795      315.647       49.076        0.024      334.898        5.171      850.341
04/25/2014  18:16:00      -82.276      319.631      -51.717      128.952      111.616       49.869    16628.583    12458.144     2486.951        7.158        1.579      330.051       50.887        0.024      334.848        5.087      850.337
04/25/2014  18:17:00     -105.574      394.487      -56.576       94.273      115.185       50.548     8887.342    13267.645     2555.068        9.733        1.236      408.369       52.216        0.016      334.799        5.006      850.336
04/25/2014  18:18:00      -61.689      352.917      -45.297       60.418       98.619       39.718     3650.292     9725.793     1577.480        7.268        0.748      358.268       41.916        0.014      334.828        5.055      850.325
04/25/2014  18:19:00       -7.673      223.651      -31.989       83.756       90.445       49.283     7015.120     8180.276     2428.791        3.436        0.881      223.782       50.476        0.051      334.906        5.185      850.311
04/25/2014  18:20:00      -45.557      393.606      -57.887       70.987      115.899       50.609     5039.163    13432.551     2561.293        9.069        1.052      396.234       52.968        0.018      334.816        5.035      850.304
04/25/2014  18:21:00      -91.051      412.559      -51.865       75.252      115.091       54.013     5662.831    13246.053     2917.448       10.150        1.091      422.487       56.164        0.018      334.805        5.016      850.294
04/25/2014  18:22:00      -73.405      337.661      -41.490       73.706       85.753       44.435     5432.590     7353.644     1974.485        6.794        0.738      345.547       42.203        0.015      334.770        4.958      850.295
04/25/2014  18:23:00      -58.683      237.701      -24.401      102.611       95.433       51.539    10529.014     9107.536     2656.217        4.141        1.115      244.837       45.440        0.034      334.876        5.133      850.290
04/25/2014  18:24:00     -107.661      153.316      -10.395       78.588       97.922       58.095     6176.108     9588.793     3374.998        2.717        0.957      187.341       50.934        0.074      334.927        5.220      850.295
04/25/2014  18:25:00      -18.708      216.394      -25.756       67.638      109.572       38.756     4574.861    12006.093     1502.001        3.296        0.904      217.201       43.267        0.040      334.956        5.268      850.299
04/25/2014  18:26:00      -40.119      239.838      -31.879       58.631      124.718       43.603     3437.643    15554.468     1901.212        4.052        1.045      243.171       52.700        0.047      334.856        5.102      850.297
04/25/2014  18:27:00      -66.019      414.408      -56.029       63.082       65.652       39.995     3979.337     4310.205     1599.596        9.456        0.494      419.634       30.915        0.005      334.714        4.866      850.308
04/25/2014  18:28:00      -74.779      344.860      -56.458       55.147       79.033       33.774     3041.190     6246.171     1140.709        6.907        0.521      352.874       24.796        0.005      334.757        4.935      850.314
04/25/2014  18:29:00      -81.319      305.746      -38.473       62.497      126.198       43.584     3905.849    15925.998     1899.536        6.165        1.087      316.375       50.927        0.026      334.754        4.933      850.320
04/25/2014  18:30:00      -49.483      433.202      -51.192       62.380       82.644       37.400     3891.270     6830.100     1398.768       10.242        0.606      436.019       33.836        0.006      334.666        4.786      850.306
04/25/2014  18:31:00      -19.875      303.485      -29.592       51.857       90.643       40.269     2689.124     8216.222     1621.630        5.295        0.626      304.135       48.883        0.026      334.721        4.877      850.291
04/25/2014  18:32:00      -16.040      151.538       -4.233       59.809       80.091       46.175     3577.073     6414.613     2132.174        1.768        0.606      152.385       47.283        0.096      334.912        5.195      850.294
04/25/2014  18:33:00      -84.840      214.855      -16.666       77.208       93.583       46.514     5961.049     8757.761     2163.525        3.526        0.844      230.999       46.464        0.040      334.821        5.042      850.293
04/25/2014  18:34:00      -21.887      266.270      -31.705       75.393       64.327       41.408     5684.083     4137.938     1714.613        4.196        0.577      267.168       39.645        0.022      334.819        5.038      850.286
04/25/2014  18:35:00      -67.402      172.154      -18.716       58.493       73.764       43.856     3421.457     5441.110     1923.346        2.266        0.539      184.878       38.237        0.043      334.932        5.230      850.277
04/25/2014  18:36:00      -55.355      112.861        7.538       71.407       90.257       48.736     5099.018     8146.240     2375.200        1.574        0.781      125.705       55.743        0.197      334.913        5.197      850.265
04/25/2014  18:37:00      -99.331      248.484      -29.172       72.149       84.147       41.202     5205.528     7080.767     1697.602        4.322        0.699      267.602       44.897        0.028      334.714        4.863      850.276
04/25/2014  18:38:00      -68.135      232.733      -26.258       66.275      102.789       40.843     4392.419    10565.500     1668.152        3.806        0.831      242.502       45.168        0.035      334.780        4.976      850.263
04/25/2014  18:39:00      -38.150      283.613      -38.378       51.658       74.362       33.331     2668.598     5529.633     1110.952        4.633        0.465      286.167       35.175        0.015      334.693        4.828      850.247
04/25/2014  18:40:00        8.256      184.499      -23.806       54.112       75.113       47.284     2928.134     5641.915     2235.771        2.274        0.540      184.684       45.000        0.059      334.778        4.972      850.240
04/25/2014  18:41:00      -10.651       99.801       -4.445       47.302       71.261       36.318     2237.438     5078.093     1319.019        0.936        0.432      100.368       33.561        0.112      334.831        5.063      850.223
04/25/2014  18:42:00      -26.181       76.867      -13.901       25.281       34.696       23.882      639.135     1203.795      570.372        0.460        0.121       81.204       15.678        0.037      334.959        5.275      850.237
04/25/2014  18:43:00        1.013       51.502       -0.322       34.861       58.778       26.221     1215.262     3454.849      687.555        0.400        0.268       51.512       27.797        0.291      334.923        5.216      850.232
04/25/2014  18:44:00      -54.927      160.054      -26.590       53.303       50.828       40.148     2841.234     2583.534     1611.840        1.819        0.352      169.216       28.811        0.029      334.868        5.124      850.250
04/25/2014  18:45:00      -20.007      115.466      -10.130       43.766       98.187       27.731     1915.484     9640.687      769.030        1.308        0.616      117.186       38.484        0.108      334.871        5.129      850.244
04/25/2014  18:46:00      -79.671      170.948      -14.493       52.010       49.844       38.900     2704.992     2484.391     1513.188        2.124        0.335      188.602       28.867        0.023      334.925        5.218      850.218
04/25/2014  18:47:00       -8.998      142.356      -17.976       40.694       35.124       22.094     1655.974     1233.665      488.135        1.202        0.169      142.640       15.125        0.011      334.910        5.194      850.194
04/25/2014  18:48:00      -79.716       -2.858       -5.585       48.153       39.064       24.358     2318.718     1526.015      593.328        0.542        0.222       79.768       22.262        0.078      335.020        5.378      850.178
04/25/2014  18:49:00     -142.925       97.266      -22.193       83.377       89.047       49.745     6951.689     7929.389     2474.563        2.386        0.868      172.882       48.427        0.078      334.712        4.862      850.197
04/25/2014  18:50:00     -151.155       21.672      -14.582       69.382       68.042       42.420     4813.805     4629.665     1799.426        1.738        0.562      152.701       40.030        0.069      334.777        4.972      850.190
04/25/2014  18:51:00     -110.749        8.164        2.479       64.969       75.033       39.523     4220.943     5629.927     1562.065        1.187        0.571      111.050       36.051        0.105      334.704        4.851      850.190
04/25/2014  18:52:00      -64.213        1.633       -8.736       44.854       33.857       25.817     2011.845     1146.266      666.510        0.401        0.191       64.234       10.571        0.027      334.741        4.915      850.178
04/25/2014  18:53:00     -104.907        5.134      -13.937       47.501      101.223       29.109     2256.299    10246.124      847.339        1.229        0.667      105.033       21.214        0.041      334.721        4.879      850.184
04/25/2014  18:54:00     -112.313       28.178      -23.083       55.128       70.981       28.267     3039.100     5038.310      799.039        1.141        0.444      115.794       27.769        0.058      334.655        4.771      850.179
04/25/2014  18:55:00      -47.764       -9.329       10.255       49.365       38.354       28.784     2436.888     1470.991      828.545        0.360        0.237       48.666       30.644        0.396      334.840        5.078      850.163
04/25/2014  18:56:00      -60.705        0.514       22.658       42.428       44.092       27.316     1800.126     1944.115      746.137        0.434        0.225       60.707       19.930        0.108      334.725        4.888      850.165
04/25/2014  18:57:00      -38.104       85.969      -32.349       33.419       58.505       18.054     1116.853     3422.810      325.951        0.738        0.243       94.035       17.742        0.036      334.644        4.752      850.162
04/25/2014  18:58:00       -4.997      136.173        5.195       50.376       95.554       38.668     2537.750     9130.618     1495.220        1.588        0.658      136.264       39.974        0.086      334.721        4.878      850.152
04/25/2014  18:59:00      -58.814      151.429      -12.860       46.507       57.191       33.472     2162.935     3270.795     1120.402        1.655        0.328      162.449       31.404        0.037      334.736        4.903      850.143
04/25/2014  19:00:00      -61.328      108.086      -18.665       37.900       50.041       32.458     1436.386     2504.129     1053.507        1.039        0.250      124.273       23.912        0.037      334.697        4.840      850.134
04/25/2014  19:01:00      -56.241      105.261       -9.248       38.366       47.615       29.525     1471.980     2267.221      871.752        0.947        0.231      119.343       27.677        0.054      334.769        4.959      850.116
04/25/2014  19:02:00     -105.917       48.548      -11.761       75.697      113.750       33.033     5729.989    12938.971     1091.175        1.673        0.988      116.513       23.993        0.042      334.723        4.883      850.086
04/25/2014  19:03:00      -78.193       68.362       -9.693       78.749       60.845       30.239     6201.438     3702.121      914.387        1.085        0.541      103.863       22.228        0.046      334.685        4.820      850.068
04/25/2014  19:04:00      -39.176       -3.213        8.611       36.537       28.454       26.026     1334.966      809.620      677.331        0.222        0.141       39.307       18.259        0.216      334.680        4.813      850.037
04/25/2014  19:05:00      -66.756       20.695      -15.005       49.269       42.534       40.342     2427.442     1809.119     1627.478        0.549        0.293       69.891       32.571        0.217      334.695        4.837      850.013
04/25/2014  19:06:00      -38.178        5.454       -8.951       54.792       48.305       31.615     3002.216     2333.362      999.503        0.395        0.317       38.566       14.027        0.132      334.745        4.920      850.013
04/25/2014  19:07:00     -124.329       -7.345      -41.702       63.582       44.074       38.375     4042.620     1942.505     1472.642        1.235        0.373      124.546       27.564        0.049      334.673        4.801      850.007
04/25/2014  19:08:00     -100.506       59.361      -23.127       64.710       51.709       31.307     4187.326     2673.812      980.111        1.100        0.392      116.727       21.737        0.035      334.685        4.820      850.009
04/25/2014  19:09:00      -61.880       16.995       -6.585       38.152       25.329       20.287     1455.583      641.546      411.582        0.333        0.125       64.172       12.157        0.036      334.764        4.952      850.004
04/25/2014  19:10:00      -26.358       32.760        7.599       44.971       47.751       28.755     2022.415     2280.199      826.845        0.348        0.256       42.047       25.845        0.378      334.790        4.996      849.988
04/25/2014  19:11:00     -122.337       68.761      -29.975       81.270       64.617       21.788     6604.809     4175.319      474.712        1.592        0.563      140.337       32.759        0.054      334.716        4.869      849.984
04/25/2014  19:12:00     -157.513       20.668      -15.742       58.030       62.889       25.365     3367.468     3954.993      643.358        1.672        0.398      158.863       29.652        0.035      334.626        4.721      849.980
04/25/2014  19:13:00     -102.518        9.309      -12.273       65.124       46.178       30.902     4241.171     2132.445      954.911        0.904        0.366      102.940       33.008        0.103      334.683        4.816      849.963
04/25/2014  19:14:00      -97.079       40.435       -9.080       78.384       41.331       32.048     6144.098     1708.232     1027.060        1.001        0.444      105.163       27.176        0.067      334.723        4.884      849.962
04/25/2014  19:15:00       16.485       68.239       -3.965       22.190       36.507       22.936      492.411     1332.757      526.055        0.365        0.118       70.202       22.988        0.107      334.823        5.050      849.969
04/25/2014  19:16:00      -25.760        7.437       -1.996       41.804       36.540       25.888     1747.609     1335.158      670.212        0.224        0.188       26.812       12.763        0.227      334.843        5.082      849.955
04/25/2014  19:17:00      -55.323      115.765        1.347       34.633       58.507       33.079     1199.458     3423.120     1094.239        1.109        0.286      128.305       28.669        0.050      334.825        5.053      849.958
04/25/2014  19:18:00     -112.235      183.835      -24.899       53.921       88.294       42.414     2907.522     7795.918     1798.931        2.975        0.625      215.388       40.655        0.036      334.773        4.964      849.953
04/25/2014  19:19:00      -83.438      192.545       -4.770       68.366       85.321       46.830     4673.972     7279.737     2193.003        2.910        0.707      209.846       29.228        0.019      334.786        4.985      849.952
04/25/2014  19:20:00     -131.726      141.010      -26.564       57.852       93.483       39.303     3346.857     8739.059     1544.719        2.578        0.682      192.965       26.518        0.019      334.740        4.909      849.967
04/25/2014  19:21:00     -133.294      174.044      -20.385       65.834       98.321       43.241     4334.064     9666.932     1869.769        3.217        0.794      219.223       41.840        0.036      334.756        4.936      849.969
04/25/2014  19:22:00      -86.158      207.700      -32.900       96.603      177.123       44.483     9332.121    31372.668     1978.774        4.716        2.134      224.861       52.078        0.054      334.603        4.681      849.977
04/25/2014  19:23:00     -117.483      247.734      -33.356       81.792      110.336       56.047     6689.944    12173.980     3141.305        4.914        1.100      274.180       60.557        0.049      334.522        4.545      849.996
04/25/2014  19:24:00     -110.729      164.934      -18.544       57.324       89.072       47.294     3286.046     7933.887     2236.761        2.663        0.673      198.656       41.294        0.043      334.560        4.609      850.014
04/25/2014  19:25:00     -121.384      196.622      -16.461       65.684       83.179       50.209     4314.387     6918.756     2520.982        3.371        0.688      231.072       36.711        0.025      334.500        4.509      850.031
04/25/2014  19:26:00     -189.690      199.044      -27.219      113.920      104.843       72.171    12977.741    10992.032     5208.663        5.275        1.459      274.956       70.599        0.066      334.391        4.330      850.050
04/25/2014  19:27:00     -145.303      202.363      -28.418       58.290       75.422       52.004     3397.723     5688.459     2704.406        3.733        0.590      249.126       45.428        0.033      334.387        4.323      850.071
04/25/2014  19:28:00     -144.641      126.661      -18.719       75.952       85.699       45.933     5768.705     7344.246     2109.844        2.627        0.761      192.260       38.372        0.040      334.464        4.451      850.086
04/25/2014  19:29:00     -107.240       61.506      -17.938       68.799       60.779       32.281     4733.271     3694.085     1042.052        1.254        0.473      123.627       24.812        0.040      334.513        4.535      850.100
04/25/2014  19:30:00     -173.480       93.393      -28.998      113.031       74.077       45.206    12776.098     5487.464     2043.538        2.998        1.015      197.022       52.240        0.070      334.330        4.230      850.126
04/25/2014  19:31:00     -172.347      220.057      -34.141       82.167       97.749       53.737     6751.413     9554.902     2887.710        4.924        0.960      279.515       46.703        0.028      334.215        4.036      850.148
04/25/2014  19:32:00     -212.430       79.721      -19.324       86.241      107.981       47.967     7437.458    11659.852     2300.811        3.662        1.070      226.896       50.041        0.049      334.220        4.045      850.147
04/25/2014  19:33:00     -171.266      245.966      -41.416       87.161      141.233       55.180     7596.983    19946.894     3044.831        6.106        1.529      299.719       44.068        0.022      334.189        3.994      850.149
04/25/2014  19:34:00      -80.992      102.108      -11.309       57.609       53.239       35.566     3318.787     2834.349     1264.956        1.226        0.371      130.330       31.440        0.058      334.299        4.180      850.153
04/25/2014  19:35:00     -135.526       99.488      -23.075       60.633       54.186       34.485     3676.387     2936.078     1189.236        1.830        0.390      168.123       23.689        0.020      334.267        4.126      850.161
04/25/2014  19:36:00     -106.040      103.936      -17.626      100.192       97.081       53.657    10038.385     9424.650     2879.047        2.235        1.117      148.483       56.332        0.144      334.232        4.066      850.172
04/25/2014  19:37:00     -120.794      122.504      -26.810       88.283       93.314       53.994     7793.929     8707.528     2915.357        2.486        0.971      172.042       51.413        0.089      334.230        4.061      850.171
04/25/2014  19:38:00     -144.448      195.888      -22.647       54.745      109.655       54.504     2997.044    12024.257     2970.651        3.887        0.900      243.387       41.735        0.029      334.195        4.004      850.177
04/25/2014  19:39:00      -86.765      119.794      -22.052       58.113       78.373       43.920     3377.096     6142.286     1928.996        1.690        0.572      147.915       31.909        0.047      334.291        4.166      850.181
04/25/2014  19:40:00     -137.221      103.840      -35.704       43.338       45.113       27.506     1878.155     2035.219      756.583        1.778        0.233      172.082       14.410        0.007      334.274        4.138      850.191
04/25/2014  19:41:00     -126.501      135.528      -21.879       75.178      109.931       45.215     5651.701    12084.770     2044.375        2.731        0.989      185.393       45.272        0.060      334.247        4.091      850.200
04/25/2014  19:42:00      -78.713       80.878       -8.389       45.744      114.198       35.468     2092.547    13041.282     1257.952        1.460        0.820      112.858       28.222        0.063      334.350        4.264      850.203
04/25/2014  19:43:00      -93.581       35.826      -17.343       68.383       46.254       33.127     4676.278     2139.471     1097.374        0.913        0.396      100.204       23.362        0.054      334.373        4.303      850.233
04/25/2014  19:44:00     -186.016       65.448      -23.939       97.226       56.858       40.499     9452.847     3232.797     1640.194        2.689        0.716      197.193       32.245        0.027      334.310        4.194      850.248
04/25/2014  19:45:00     -176.631       44.154      -18.582      113.348      105.394       53.374    12847.866    11107.983     2848.768        3.014        1.340      182.066       43.216        0.056      334.257        4.107      850.251
04/25/2014  19:46:00     -122.675        6.980        3.089       99.456       96.685       44.863     9891.422     9348.029     2012.649        1.818        1.063      122.873       44.031        0.128      334.328        4.226      850.270
04/25/2014  19:47:00     -137.087       -2.420       -7.910       86.942       58.270       42.202     7558.829     3395.361     1780.983        1.580        0.637      137.109       37.123        0.073      334.288        4.160      850.275
04/25/2014  19:48:00     -132.988       48.770       -7.413       81.919      106.435       55.408     6710.752    11328.429     3070.042        2.061        1.055      141.648       36.726        0.067      334.253        4.102      850.279
04/25/2014  19:49:00     -202.729       47.578      -15.503      102.059      121.034       53.046    10416.013    14649.195     2813.882        3.574        1.394      208.238       60.591        0.085      334.242        4.083      850.291
04/25/2014  19:50:00     -238.065       -0.674       -8.910       99.671       90.845       46.551     9934.383     8252.831     2166.997        3.855        1.018      238.065       50.878        0.046      334.196        4.004      850.312
04/25/2014  19:51:00     -119.550      121.599      -26.895       65.569       68.231       47.552     4299.277     4655.485     2261.170        2.051        0.561      170.525       35.174        0.043      334.203        4.017      850.334
04/25/2014  19:52:00     -114.889       39.464      -15.050       65.243       74.761       47.371     4256.686     5589.180     2243.965        1.353        0.604      121.478       33.245        0.075      334.261        4.116      850.346
04/25/2014  19:53:00     -213.604       58.545      -28.405       86.241       73.389       53.242     7437.592     5385.984     2834.734        3.276        0.783      221.482       50.561        0.052      334.167        3.956      850.370
04/25/2014  19:54:00     -229.714       37.764      -24.062       97.794       69.909       52.585     9563.571     4887.301     2765.143        3.599        0.861      232.797       50.913        0.048      334.182        3.982      850.378
04/25/2014  19:55:00     -137.244       61.264      -26.783       84.632       75.792       38.693     7162.607     5744.495     1497.169        1.885        0.720      150.296       24.522        0.027      334.221        4.048      850.381
04/25/2014  19:56:00     -148.548       12.324      -19.126       95.490      113.979       55.640     9118.368    12991.162     3095.834        2.389        1.260      149.058       49.136        0.109      334.253        4.101      850.377
04/25/2014  19:57:00     -129.271      -12.212      -21.254       79.873       59.907       45.504     6379.657     3588.882     2070.592        1.467        0.602      129.846       49.109        0.143      334.226        4.057      850.397
04/25/2014  19:58:00     -121.984      -12.978      -10.899      110.567       98.141       46.540    12225.144     9631.578     2165.931        1.959        1.201      122.673       48.290        0.155      334.225        4.057      850.398
04/25/2014  19:59:00     -236.644       79.123      -51.093       71.826       79.037       58.491     5158.968     6246.894     3421.164        3.985        0.741      249.521       36.537        0.021      334.128        3.892      850.405
04/25/2014  20:00:00     -207.733       46.623      -35.541       86.271      122.654       46.725     7442.739    15043.960     2183.213        3.562        1.233      212.901       42.904        0.041      334.139        3.910      850.410
04/25/2014  20:01:00     -184.924        9.864      -31.188       71.179       80.847       42.999     5066.415     6536.257     1848.918        2.436        0.673      185.187       26.714        0.021      334.153        3.936      850.421
04/25/2014  20:02:00     -117.696       -5.929      -10.021      101.960      112.019       60.084    10395.877    12548.148     3610.113        2.027        1.328      117.845       63.961        0.295      334.155        3.939      850.422
04/25/2014  20:03:00     -249.971       52.925      -24.109      105.686       92.206       54.547    11169.580     8501.976     2975.402        4.425        1.132      255.513       41.520        0.026      334.062        3.783      850.432
04/25/2014  20:04:00     -144.298       -3.354       -6.767       60.426       62.869       45.284     3651.324     3952.554     2050.626        1.526        0.483      144.337       22.009        0.023      334.077        3.809      850.421
04/25/2014  20:05:00      -95.872       20.428      -11.692       70.749       60.967       39.620     5005.460     3716.990     1569.759        1.002        0.515       98.024       32.003        0.107      334.122        3.885      850.429
04/25/2014  20:06:00     -176.733      -22.669      -27.291       78.101       69.584       38.725     6099.728     4841.890     1499.661        2.246        0.622      178.180       37.905        0.045      334.054        3.771      850.447
04/25/2014  20:07:00     -137.437       28.492      -17.996       82.795       67.095       39.926     6854.964     4501.686     1594.087        1.649        0.648      140.360       39.077        0.078      333.983        3.655      850.457
04/25/2014  20:08:00     -102.084       28.264       -6.667       62.358       85.415       40.796     3888.555     7295.736     1664.285        1.205        0.642      105.924       37.894        0.128      334.031        3.734      850.475
04/25/2014  20:09:00     -141.392      -31.489      -24.400       78.506       51.914       36.035     6163.190     2695.043     1298.543        1.587        0.508      144.856       30.866        0.045      333.992        3.670      850.486
04/25/2014  20:10:00     -209.159      -10.458       -8.041       92.598       70.942       40.957     8574.311     5032.705     1677.449        2.960        0.764      209.421       29.176        0.019      333.955        3.607      850.493
04/25/2014  20:11:00     -151.941      -16.280      -26.840       85.967       91.736       29.681     7390.302     8415.405      880.969        2.038        0.834      152.811       19.175        0.016      333.979        3.648      850.498
04/25/2014  20:12:00     -225.379      -79.996        1.537      150.083       75.192       43.795    22524.933     5653.765     1917.971        4.364        1.505      239.155       57.147        0.057      333.870        3.465      850.514
04/25/2014  20:13:00     -130.600       31.802       -5.903       77.536       36.388       41.003     6011.806     1324.056     1681.253        1.356        0.451      134.417       48.702        0.131      333.965        3.626      850.538
04/25/2014  20:14:00     -148.601       46.118      -18.736      104.503       79.294       47.355    10920.962     6287.612     2242.538        2.200        0.973      155.593       58.357        0.141      333.946        3.593      850.544
04/25/2014  20:15:00     -166.550      -27.761        2.377       86.721       76.477       42.123     7520.476     5848.754     1774.368        2.183        0.757      168.848       41.699        0.061      333.966        3.626      850.574
04/25/2014  20:16:00     -174.165      -34.309       -9.610       86.990       63.901       41.163     7567.341     4083.354     1694.428        2.247        0.667      177.512       44.608        0.063      333.972        3.636      850.577
04/25/2014  20:17:00     -107.047       -6.573      -16.483       39.004       54.738       30.090     1521.325     2996.238      905.388        0.860        0.271      107.248       24.160        0.051      333.997        3.681      850.588
04/25/2014  20:18:00     -146.373      -68.615       -2.120       71.444       43.508       31.991     5104.190     1892.971     1023.428        1.708        0.401      161.657       33.037        0.042      333.977        3.646      850.611
04/25/2014  20:19:00      -67.054      -45.108        5.405       89.468       43.755       30.337     8004.516     1914.523      920.316        0.870        0.542       80.815       29.056        0.129      334.003        3.689      850.619
04/25/2014  20:20:00     -119.428      -42.518       -4.619       68.036       52.534       43.211     4628.855     2759.859     1867.190        1.267        0.463      126.771       42.950        0.115      333.982        3.653      850.627
04/25/2014  20:21:00     -210.333      -39.433        1.744       63.677       56.740       45.749     4054.802     3219.472     2092.954        2.758        0.468      213.998       39.874        0.035      333.910        3.531      850.644
04/25/2014  20:22:00     -147.214      -26.156       -7.919       69.034       55.373       38.156     4765.626     3066.149     1455.866        1.585        0.464      149.519       34.010        0.052      333.962        3.621      850.663
04/25/2014  20:23:00     -161.974      -45.447        0.158       84.642       63.598       39.429     7164.255     4044.740     1554.617        2.053        0.638      168.229       40.594        0.058      333.906        3.524      850.659
04/25/2014  20:24:00     -233.565      -41.554      -11.331       93.258       64.032       34.797     8697.080     4100.034     1210.862        3.521        0.700      237.233       32.165        0.018      333.845        3.422      850.673
04/25/2014  20:25:00     -141.162      -82.946       -7.633       87.570       76.409       33.664     7668.576     5838.315     1133.253        2.075        0.732      163.727       34.476        0.044      333.934        3.573      850.676
04/25/2014  20:26:00     -166.057     -134.587       -1.645      109.042       89.047       50.550    11890.207     7929.421     2555.321        3.403        1.119      213.749       56.244        0.069      333.763        3.288      850.691
04/25/2014  20:27:00     -172.369     -120.328        2.835       90.702       73.763       46.162     8226.795     5440.941     2130.946        3.000        0.790      210.214       47.255        0.051      333.651        3.102      850.701
04/25/2014  20:28:00     -162.286     -115.110       -1.053       79.157       67.031       46.756     6265.887     4493.221     2186.152        2.626        0.647      198.965       53.244        0.072      333.629        3.066      850.708
04/25/2014  20:29:00     -149.973     -125.961        2.508       78.355       72.031       40.128     6139.428     5188.476     1610.292        2.565        0.647      195.852       42.952        0.048      333.622        3.054      850.719
04/25/2014  20:30:00     -132.924     -113.062       -0.320       69.713       72.323       35.731     4859.889     5230.603     1276.718        2.091        0.568      174.505       27.177        0.024      333.642        3.087      850.734
04/25/2014  20:31:00     -117.132      -87.962       -7.134       64.347       48.013       32.903     4140.493     2305.264     1082.612        1.452        0.376      146.482       31.346        0.046      333.627        3.066      850.729
04/25/2014  20:32:00      -77.102      -47.141       -6.410       35.580       31.363       19.826     1265.912      983.639      393.055        0.542        0.132       90.371       13.604        0.023      333.620        3.053      850.717
04/25/2014  20:33:00      -78.628      -59.192       -1.146       47.808       53.384       24.288     2285.622     2849.840      589.891        0.771        0.286       98.418       29.120        0.088      333.690        3.169      850.727
04/25/2014  20:34:00     -100.831      -42.134       -9.417       18.573       17.131       11.512      344.967      293.464      132.526        0.640        0.039      109.280        5.049        0.002      333.624        3.059      850.711
04/25/2014  20:35:00      -70.973      -29.867       -1.658       46.117       33.526       19.065     2126.745     1123.988      363.477        0.477        0.181       77.001       11.713        0.023      333.677        3.148      850.695
04/25/2014  20:36:00      -97.502      -59.709       -3.465       42.813       43.504       19.418     1832.978     1892.561      377.075        0.859        0.205      114.332       14.542        0.016      333.721        3.221      850.686
04/25/2014  20:37:00     -124.552      -42.494      -10.329       51.257       32.325       19.612     2627.230     1044.900      384.614        1.074        0.203      131.602       21.047        0.026      333.531        2.906      850.682
04/25/2014  20:38:00     -120.000      -17.423        7.225       58.160       33.485       24.596     3382.528     1121.276      604.952        0.993        0.255      121.258       23.186        0.037      333.576        2.981      850.679
04/25/2014  20:39:00      -69.595       16.510       -2.083       16.044       21.238       17.941      257.417      451.055      321.888        0.308        0.052       71.527       13.707        0.037      333.564        2.960      850.663
04/25/2014  20:40:00      -34.255       25.078       -0.339       22.991       32.776       16.787      528.578     1074.246      281.809        0.184        0.094       42.454       15.988        0.142      333.602        3.023      850.662
04/25/2014  20:41:00      -30.159       41.930        1.510       34.311       36.159       19.491     1177.227     1307.481      379.888        0.277        0.143       51.649       24.845        0.231      333.690        3.170      850.662
04/25/2014  20:42:00      -34.433      -45.854        5.946       28.364       32.375       23.837      804.497     1048.172      568.211        0.287        0.121       57.343       24.280        0.179      333.697        3.181      850.666
04/25/2014  20:43:00      -25.771      -42.919        4.231       24.010       35.507       21.221      576.491     1260.722      450.344        0.241        0.114       50.062       12.677        0.064      333.618        3.052      850.662
04/25/2014  20:44:00      -37.701      -38.353        4.079       17.337       20.272       14.818      300.574      410.941      219.574        0.192        0.047       53.780       11.542        0.046      333.643        3.092      850.672
04/25/2014  20:45:00      -35.195      -21.868        4.475       28.385       24.006       13.348      805.700      576.298      178.164        0.165        0.078       41.435       15.756        0.145      333.653        3.108      850.689
04/25/2014  20:46:00      -79.981      -54.597        7.237       44.512       30.916       26.800     1981.274      955.804      718.215        0.654        0.183       96.839       20.165        0.043      333.694        3.176      850.719
04/25/2014  20:47:00     -135.470      -27.446      -17.801       26.163       26.419       13.272      684.511      697.964      176.155        1.049        0.078      138.223       10.926        0.006      333.489        2.837      850.745
04/25/2014  20:48:00      -65.165      -50.661       -2.736       45.917       36.847       27.175     2108.334     1357.668      738.474        0.551        0.210       82.541       28.879        0.122      333.592        3.007      850.767
04/25/2014  20:49:00      -51.459      -70.069        7.812       40.797       38.230       29.078     1664.415     1461.543      845.547        0.579        0.199       86.935       19.389        0.050      333.652        3.108      850.787
04/25/2014  20:50:00     -138.925      -58.970        1.257       62.156       52.987       28.786     3863.353     2807.584      828.650        1.514        0.375      150.923       30.792        0.042      333.580        2.987      850.798
04/25/2014  20:51:00      -56.815      -16.642       12.316       48.270       29.582       24.973     2329.954      875.103      623.670        0.374        0.191       59.203       29.730        0.252      333.626        3.065      850.811
04/25/2014  20:52:00      -51.535       10.582        3.464       29.543       36.488       24.933      872.783     1331.372      621.675        0.280        0.141       52.610       19.416        0.136      333.640        3.087      850.816
04/25/2014  20:53:00      -42.906      -50.222       10.412       40.185       23.096       20.969     1614.810      533.403      439.716        0.353        0.129       66.054       16.833        0.065      333.793        3.342      850.824
04/25/2014  20:54:00      -23.840      -35.176       21.421       48.307       35.140       32.412     2333.571     1234.810     1050.515        0.344        0.231       42.493       35.279        0.689      333.750        3.269      850.827
04/25/2014  20:55:00      -74.236      -71.518        2.416       37.443       28.337       20.865     1401.958      802.982      435.339        0.664        0.132      103.082       23.295        0.051      333.598        3.017      850.822
04/25/2014  20:56:00      -46.506      -68.314        4.419       30.323       22.938       17.893      919.477      526.158      320.170        0.431        0.088       82.642       18.337        0.049      333.641        3.089      850.814
04/25/2014  20:57:00      -65.665      -74.394       -8.065       24.988       19.323       15.436      624.397      373.378      238.283        0.557        0.062       99.229        5.215        0.003      333.532        2.907      850.804
04/25/2014  20:58:00      -92.312      -28.781       -5.375       44.008       39.175       24.000     1936.688     1534.705      576.002        0.671        0.202       96.695       18.133        0.035      333.609        3.037      850.796
04/25/2014  20:59:00      -80.346      -12.729      -23.239       29.343       26.482       17.172      861.039      701.314      294.884        0.451        0.093       81.348       15.204        0.035      333.507        2.866      850.802
04/25/2014  21:00:00      -53.283       10.481       -5.494       39.472       37.425       14.964     1558.014     1400.599      223.927        0.308        0.159       54.305       11.853        0.048      333.497        2.848      850.810
04/25/2014  21:01:00      -34.799      -40.533        6.787       35.406       19.751       18.014     1253.617      390.100      324.515        0.243        0.098       53.422       17.221        0.104      333.628        3.068      850.808
04/25/2014  21:02:00      -77.807      -60.319        0.661       53.571       26.019       20.868     2869.837      676.966      435.481        0.684        0.199       98.449       23.559        0.057      333.593        3.009      850.805
04/25/2014  21:03:00      -26.172      -58.246       15.401       50.950       33.726       31.844     2595.935     1137.451     1014.033        0.453        0.237       63.856       37.883        0.352      333.637        3.082      850.790
04/25/2014  21:04:00      -58.151      -68.151       -8.056       12.610       23.366        9.644      159.011      545.972       93.006        0.444        0.040       89.588        7.576        0.007      333.520        2.888      850.781
04/25/2014  21:05:00      -76.477      -60.657       -6.526       38.040       27.594       20.144     1447.023      761.405      405.770        0.609        0.131       97.612       21.792        0.050      333.620        3.055      850.784
04/25/2014  21:06:00      -72.869      -16.039       -6.532       22.338       15.573       14.897      498.996      242.503      221.927        0.329        0.048       74.613       14.119        0.036      333.508        2.868      850.784
04/25/2014  21:07:00     -106.451      -35.535       -8.207       28.198       23.382       15.746      795.138      546.737      247.947        0.713        0.079      112.225       11.867        0.011      333.605        3.030      850.798
04/25/2014  21:08:00      -76.695      -23.761       -3.879       31.165       22.841       17.409      971.238      521.693      303.077        0.413        0.090       80.291       10.489        0.017      333.525        2.897      850.817
04/25/2014  21:09:00      -76.721      -14.189       -6.450       36.031       26.056       18.604     1298.241      678.915      346.105        0.423        0.116       78.022       16.667        0.046      333.546        2.932      850.837
04/25/2014  21:10:00      -54.986      -58.288       -6.314       35.383       18.978       16.558     1251.987      360.158      274.158        0.417        0.094       80.131       10.817        0.018      333.618        3.050      850.844
04/25/2014  21:11:00      -61.800      -65.516        3.051       39.118       23.269       25.201     1530.184      541.462      635.091        0.541        0.135       90.064       19.918        0.049      333.746        3.262      850.848
04/25/2014  21:12:00     -103.221      -68.467       -1.730       39.228       33.920       21.422     1538.875     1150.561      458.899        0.925        0.157      123.864       15.185        0.015      333.562        2.958      850.857
04/25/2014  21:13:00      -93.011      -70.860        0.182       34.640       31.513       23.330     1199.955      993.070      544.311        0.820        0.137      116.928       20.408        0.030      333.584        2.994      850.874
04/25/2014  21:14:00      -25.051      -18.123       16.558       44.332       41.407       24.974     1965.291     1714.569      623.679        0.277        0.215       30.919       24.337        0.620      333.714        3.210      850.893
04/25/2014  21:15:00      -94.042      -50.042       -4.187       39.740       29.787       21.350     1579.297      887.284      455.834        0.714        0.146      106.527       22.770        0.046      333.549        2.936      850.909
04/25/2014  21:16:00     -122.160      -37.516       -9.988       33.049       32.340       19.432     1092.212     1045.861      377.590        0.947        0.126      127.791        8.769        0.005      333.533        2.909      850.924
04/25/2014  21:17:00      -98.262      -17.261       -0.733       36.770       27.137       19.072     1352.058      736.401      363.745        0.620        0.123       99.767       19.536        0.038      333.437        2.749      850.933
04/25/2014  21:18:00      -45.917      -21.443        7.702       32.654       26.043       18.140     1066.289      678.240      329.060        0.235        0.104       50.677       17.458        0.119      333.630        3.071      850.933
04/25/2014  21:19:00      -66.879      -41.151        5.472       56.073       27.532       21.788     3144.161      758.014      474.722        0.529        0.219       78.526       25.642        0.107      333.706        3.196      850.948
04/25/2014  21:20:00      -70.795      -64.920        4.323       47.298       43.889       25.890     2237.059     1926.272      670.304        0.704        0.242       96.055       30.900        0.103      333.692        3.173      850.956
04/25/2014  21:21:00      -91.033      -49.480      -12.349       43.542       24.336       16.844     1895.900      592.236      283.721        0.683        0.139      103.611       14.843        0.021      333.596        3.015      850.972
04/25/2014  21:22:00      -74.509       -4.823        6.982       54.003       39.032       23.106     2916.368     1523.479      533.896        0.530        0.249       74.665       22.477        0.091      333.624        3.060      850.979
04/25/2014  21:23:00     -136.630        3.719        0.515       63.010       57.609       37.180     3970.213     3318.784     1382.381        1.367        0.434      136.680       36.605        0.072      333.516        2.882      850.986
04/25/2014  21:24:00     -223.263      -70.211      -16.467       67.976       54.063       32.456     4620.738     2922.774     1053.361        3.182        0.430      234.042       34.598        0.022      333.395        2.677      850.995
04/25/2014  21:25:00     -138.692      -60.387       -6.184       57.058       49.276       30.091     3255.608     2428.078      905.483        1.475        0.329      151.268       28.098        0.035      333.415        2.715      850.995
04/25/2014  21:26:00      -94.902      -44.016        6.609       68.192       44.369       25.338     4650.088     1968.593      641.997        0.912        0.363      104.613       29.664        0.080      333.535        2.912      850.989
04/25/2014  21:27:00     -166.963      -88.228       -3.092       50.829       41.612       29.427     2583.605     1731.547      865.936        2.042        0.259      188.841       25.351        0.018      333.407        2.700      850.989
04/25/2014  21:28:00     -142.347      -52.398       -4.885       42.306       43.369       23.851     1789.786     1880.893      568.875        1.363        0.212      151.684       22.335        0.022      333.432        2.742      850.982
04/25/2014  21:29:00     -108.881      -28.065        5.924       63.456       40.999       26.934     4026.664     1680.924      725.417        0.955        0.322      112.440       32.766        0.085      333.486        2.833      850.974
04/25/2014  21:30:00      -61.703      -32.289        8.948       57.885       50.634       27.047     3350.728     2563.840      731.526        0.579        0.332       69.641       30.967        0.198      333.688        3.167      850.962
04/25/2014  21:31:00      -43.117       -0.486        5.653       39.677       19.897       23.886     1574.241      395.901      570.536        0.222        0.127       43.120       14.223        0.109      333.709        3.201      850.959
04/25/2014  21:32:00      -58.958      -37.851       15.829       57.370       59.547       26.870     3291.321     3545.866      722.005        0.636        0.378       70.062       24.389        0.121      333.697        3.181      850.945
04/25/2014  21:33:00     -118.334      -33.143       -0.166       59.118       55.380       29.065     3494.981     3066.994      844.801        1.125        0.370      122.888       29.443        0.057      333.625        3.062      850.945
04/25/2014  21:34:00     -205.634      -66.058       -4.858       50.364       46.719       29.570     2536.500     2182.676      874.377        2.613        0.280      215.983       24.989        0.013      333.533        2.907      850.941
04/25/2014  21:35:00     -169.181      -63.616       -4.790       57.757       41.390       34.490     3335.881     1713.101     1189.526        1.946        0.312      180.746       33.425        0.034      333.574        2.976      850.935
04/25/2014  21:36:00     -126.037      -36.352       -9.396       37.924       42.101       24.974     1438.202     1772.520      623.703        1.056        0.192      131.174       20.835        0.025      333.633        3.076      850.929
04/25/2014  21:37:00      -33.925      -23.905       23.114       62.058       37.150       31.317     3851.201     1380.121      980.732        0.423        0.311       41.501       34.449        0.689      333.785        3.328      850.916
04/25/2014  21:38:00      -66.713        8.382       21.585       45.301       45.490       33.244     2052.199     2069.351     1105.160        0.511        0.261       67.237       22.883        0.116      333.720        3.219      850.914
04/25/2014  21:39:00     -107.412      -56.489       -3.271       59.536       42.227       25.082     3544.570     1783.135      629.112        1.035        0.298      121.361       29.749        0.060      333.687        3.166      850.918
04/25/2014  21:40:00      -96.561      -37.401      -17.346       51.841       28.575       23.597     2687.501      816.558      556.840        0.754        0.203      103.551       13.390        0.017      333.722        3.223      850.919
04/25/2014  21:41:00      -64.970      -48.549       -7.355       46.776       38.454       15.571     2187.975     1478.744      242.443        0.527        0.195       81.106       16.278        0.040      333.667        3.133      850.914
04/25/2014  21:42:00      -32.851      -10.475       12.967       40.920       37.747       25.181     1674.446     1424.827      634.074        0.254        0.187       34.481       19.093        0.307      333.844        3.426      850.907
04/25/2014  21:43:00      -40.514       15.836        3.788       42.783       30.879       24.441     1830.417      953.503      597.377        0.264        0.169       43.499       21.224        0.238      333.882        3.489      850.909
04/25/2014  21:44:00      -29.185       -2.035       10.766       38.436       19.000       17.480     1477.353      361.008      305.544        0.156        0.107       29.256       19.271        0.434      333.918        3.548      850.908
04/25/2014  21:45:00      -85.288       28.568      -11.617       44.898       27.792       20.539     2015.791      772.374      421.840        0.572        0.161       89.946       20.620        0.053      333.747        3.265      850.913
04/25/2014  21:46:00      -57.004       22.131      -19.934       24.969       33.482       15.015      623.440     1121.057      225.465        0.305        0.098       61.149       15.430        0.064      333.698        3.183      850.907
04/25/2014  21:47:00      -91.062       41.819      -19.246       41.120       39.131       20.245     1690.879     1531.245      409.870        0.702        0.182      100.205       17.664        0.031      333.742        3.255      850.899
04/25/2014  21:48:00      -50.481      -40.296       -3.180       46.596       31.222       28.720     2171.196      974.806      824.865        0.408        0.199       64.592       24.138        0.140      333.805        3.360      850.892
04/25/2014  21:49:00      -53.510       -7.334        0.010       53.779       36.856       17.846     2892.226     1358.363      318.471        0.374        0.228       54.010       24.995        0.214      333.897        3.514      850.885
04/25/2014  21:50:00     -116.644        0.720      -11.645       30.603       29.197       20.993      936.514      852.484      440.722        0.799        0.111      116.646       20.087        0.030      333.741        3.255      850.879
04/25/2014  21:51:00     -105.000       13.142      -12.379       43.373       49.044       22.083     1881.184     2405.339      487.642        0.806        0.239      105.820       14.477        0.019      333.786        3.329      850.877
04/25/2014  21:52:00      -97.808      -21.128        4.220       47.122       31.179       21.033     2220.444      972.103      442.371        0.683        0.182      100.064       19.433        0.038      333.838        3.415      850.874
04/25/2014  21:53:00     -100.788       -9.424       -5.228       45.745       26.736       20.541     2092.621      714.793      421.932        0.675        0.161      101.228       21.560        0.045      333.843        3.422      850.877
04/25/2014  21:54:00     -108.810      -29.184       -1.977       38.929       25.229       19.596     1515.478      636.509      384.018        0.762        0.127      112.656       19.253        0.029      333.878        3.482      850.878
04/25/2014  21:55:00      -74.362      -39.597       10.061       53.752       30.426       19.923     2889.241      925.740      396.921        0.570        0.211       84.248       22.022        0.068      333.965        3.626      850.879
04/25/2014  21:56:00      -51.137      -23.416        4.322       55.371       27.594       18.966     3065.972      761.416      359.718        0.368        0.209       56.243       25.676        0.208      333.956        3.613      850.890
04/25/2014  21:57:00      -87.017      -34.454       -4.284       33.177       26.127       20.659     1100.746      682.597      426.781        0.549        0.111       93.589       20.843        0.050      333.895        3.510      850.906
04/25/2014  21:58:00      -26.577      -60.677        6.678       31.582       21.404       20.872      997.452      458.127      435.661        0.316        0.095       66.243       21.728        0.108      333.945        3.595      850.918
04/25/2014  21:59:00      -18.120       -9.273        9.681       21.738       20.607       13.944      472.528      424.646      194.422        0.080        0.055       20.355       12.065        0.351      334.066        3.794      850.925
04/25/2014  22:00:00      -23.576       -0.479        4.892       23.645       17.433       14.611      559.104      303.914      213.482        0.083        0.054       23.581       11.207        0.226      333.956        3.610      850.934
04/25/2014  22:01:00     -102.498        4.945       -7.424       21.950       25.166       15.632      481.796      633.303      244.351        0.597        0.068      102.617       13.905        0.018      333.932        3.572      850.939
04/25/2014  22:02:00      -80.370      -16.455       -5.126       30.846       20.391       16.183      951.459      415.799      261.886        0.419        0.081       82.037       14.931        0.033      333.924        3.560      850.940
04/25/2014  22:03:00     -100.686        7.168       -6.855       44.436       22.748       18.069     1974.521      517.469      326.493        0.653        0.141      100.941       20.678        0.042      333.954        3.610      850.938
04/25/2014  22:04:00      -44.759       72.172      -17.912       90.385       41.484       31.154     8169.392     1720.944      970.549        0.919        0.543       84.924       20.193        0.057      333.984        3.659      850.936
04/25/2014  22:05:00      -54.632       22.434        6.591       42.998       35.244       28.659     1848.853     1242.108      821.313        0.372        0.196       59.058       29.755        0.254      334.002        3.689      850.922
04/25/2014  22:06:00      -83.721      -15.001       -7.243       32.420       34.836       21.961     1051.042     1213.559      482.274        0.502        0.137       85.055       19.702        0.054      334.029        3.732      850.909
04/25/2014  22:07:00     -135.314      -37.924       -6.613       33.886       53.366       24.882     1148.256     2847.936      619.095        1.220        0.231      140.528       23.869        0.029      333.990        3.666      850.905
04/25/2014  22:08:00     -108.372       -6.837       -4.694       51.632       37.550       25.442     2665.904     1410.026      647.310        0.827        0.236      108.587       26.762        0.061      333.953        3.609      850.906
04/25/2014  22:09:00      -77.247      -35.005        0.830       32.406       27.772       15.948     1050.140      771.275      254.327        0.463        0.104       84.808       15.702        0.034      334.052        3.771      850.906
04/25/2014  22:10:00      -92.062      -28.810        3.284       49.660       22.740       21.478     2466.132      517.105      461.299        0.638        0.172       96.465       21.205        0.048      334.103        3.855      850.903
04/25/2014  22:11:00      -36.363      -48.800       10.274       37.059       36.148       21.770     1373.367     1306.644      473.920        0.348        0.158       60.858       21.460        0.124      334.135        3.909      850.902
04/25/2014  22:12:00     -122.830      -88.117       -4.700       31.344       37.674       25.185      982.458     1419.341      634.296        1.295        0.152      151.168       21.199        0.020      333.989        3.666      850.907
04/25/2014  22:13:00     -153.930      -63.074      -11.472       46.424       41.080       25.823     2155.208     1687.534      666.810        1.616        0.225      166.352       21.936        0.017      333.943        3.591      850.898
04/25/2014  22:14:00     -109.305      -99.356      -10.059       42.343       28.279       19.781     1792.914      799.703      391.298        1.245        0.149      147.713       22.049        0.022      333.988        3.664      850.897
04/25/2014  22:15:00      -28.403      -67.735       -4.049       40.285       24.044       21.716     1622.856      578.096      471.586        0.404        0.134       73.449       14.757        0.040      334.090        3.834      850.894
04/25/2014  22:16:00      -51.626      -59.743        3.266       67.320       46.881       34.609     4531.988     2197.783     1197.815        0.708        0.396       78.959       27.453        0.121      334.158        3.945      850.885
04/25/2014  22:17:00     -152.265     -102.742       -3.053       62.295       43.576       31.194     3880.701     1898.869      973.073        2.025        0.338      183.686       28.175        0.024      333.899        3.514      850.882
04/25/2014  22:18:00      -66.874      -66.198       17.981       73.434       73.187       37.170     5392.606     5356.405     1381.581        1.065        0.607       94.097       41.794        0.197      334.018        3.715      850.878
04/25/2014  22:19:00     -127.628     -128.307       -4.459       67.473       45.809       37.865     4552.624     2098.445     1433.763        2.043        0.404      180.974       38.088        0.044      333.896        3.509      850.879
04/25/2014  22:20:00      -87.918      -68.600        4.816       67.662       35.509       30.907     4578.175     1260.868      955.238        0.963        0.340      111.515       36.831        0.109      333.972        3.639      850.860
04/25/2014  22:21:00     -125.579       -5.311       -7.829       53.613       33.623       28.087     2874.357     1130.522      788.904        1.033        0.240      125.692       27.694        0.049      334.030        3.733      850.858
04/25/2014  22:22:00      -84.671        0.593       -0.961       50.646       27.889       20.769     2564.969      777.782      431.340        0.547        0.189       84.673       22.388        0.070      333.988        3.666      850.860
04/25/2014  22:23:00      -69.389      -12.623        6.357       37.281       24.744       21.180     1389.894      612.249      448.580        0.373        0.123       70.528       18.795        0.071      333.951        3.605      850.855
04/25/2014  22:24:00      -65.962       12.519       -5.589       43.410       19.804       19.509     1884.409      392.198      380.598        0.360        0.133       67.140       18.545        0.076      333.954        3.608      850.870
04/25/2014  22:25:00     -129.303      -53.805       -1.859       57.619       32.517       18.653     3319.945     1057.336      347.951        1.217        0.236      140.051       22.241        0.025      333.908        3.532      850.885
04/25/2014  22:26:00     -104.857      -71.283      -12.324       50.427       38.237       18.966     2542.854     1462.067      359.727        1.030        0.218      126.792       10.366        0.007      334.042        3.754      850.899
04/25/2014  22:27:00      -77.267      -60.880        1.511       52.292       39.789       22.788     2734.447     1583.157      519.314        0.726        0.242       98.369       27.409        0.078      334.058        3.780      850.913
04/25/2014  22:28:00     -129.910      -24.712       -7.691       29.534       25.179       20.897      872.237      633.999      436.688        0.974        0.097      132.240       14.284        0.012      333.931        3.569      850.934
04/25/2014  22:29:00     -116.682      -20.523      -11.254       30.403       28.833       21.903      924.313      831.335      479.743        0.820        0.112      118.473       18.242        0.024      333.938        3.581      850.954
04/25/2014  22:30:00      -20.335      -30.160        6.798       37.055       21.893       22.471     1373.110      479.287      504.963        0.186        0.118       36.375       22.298        0.376      334.061        3.784      850.970
04/25/2014  22:31:00     -105.607      -11.209       -8.868       39.802       26.436       20.327     1584.204      698.858      413.189        0.703        0.135      106.200       18.848        0.031      333.901        3.521      850.973
04/25/2014  22:32:00      -96.695      -39.887       -6.887       52.068       21.728       19.471     2711.074      472.097      379.125        0.727        0.178      104.598       20.506        0.038      334.002        3.688      850.985
04/25/2014  22:33:00     -141.951      -20.047      -11.350       32.593       31.679       21.423     1062.324     1003.586      458.958        1.160        0.126      143.359       19.092        0.018      333.859        3.452      850.996
04/25/2014  22:34:00      -87.609        7.528       -3.222       38.000       24.200       19.009     1443.970      585.623      361.335        0.507        0.120       87.932       18.405        0.044      333.895        3.511      850.996
04/25/2014  22:35:00      -88.886       15.757       -8.205       22.751       17.786       11.259      517.615      316.336      126.763        0.459        0.048       90.272        6.638        0.005      333.896        3.513      850.998
04/25/2014  22:36:00      -60.080       12.337       -7.122       38.530       20.585       12.113     1484.574      423.723      146.723        0.293        0.103       61.334       14.697        0.057      333.947        3.596      851.006
04/25/2014  22:37:00     -133.083       14.010      -10.169       24.160       41.992       13.389      583.692     1763.323      179.257        1.027        0.126      133.818       11.579        0.007      333.902        3.521      851.016
04/25/2014  22:38:00     -105.168      -15.804      -13.304       21.733       25.338       13.521      472.304      642.032      182.815        0.639        0.065      106.348       14.591        0.019      333.926        3.563      851.022
04/25/2014  22:39:00      -69.925       -0.687       -1.914       25.732       26.051       17.588      662.118      678.666      309.326        0.327        0.083       69.928        8.497        0.015      333.971        3.637      851.014
04/25/2014  22:40:00       -1.328      -17.907        2.025       22.515       25.653       16.839      506.929      658.095      283.567        0.089        0.072       17.956        9.930        0.306      334.113        3.872      851.002
04/25/2014  22:41:00        8.232      -25.366       13.292       19.062       20.918       14.066      363.378      437.544      197.862        0.094        0.050       26.669        8.660        0.105      334.279        4.147      850.998
04/25/2014  22:42:00      -33.081        1.369        6.554       14.278       18.207       14.430      203.871      331.497      208.219        0.094        0.037       33.109        9.560        0.083      334.096        3.842      850.991
04/25/2014  22:43:00       35.503       36.788        7.868       29.478       18.440       18.868      868.978      340.050      355.997        0.212        0.078       51.125       15.309        0.090      334.039        3.748      850.961
04/25/2014  22:44:00       15.269       66.495      -13.605       30.066       29.304       12.565      903.983      858.701      157.884        0.338        0.096       68.226       10.761        0.025      333.947        3.596      850.938
04/25/2014  22:45:00       -6.210       46.253       13.799       34.195       37.374       25.042     1169.330     1396.850      627.112        0.278        0.160       46.668       24.127        0.267      334.067        3.794      850.946
04/25/2014  22:46:00      -34.138       56.347       -0.993       29.194       24.987       18.475      852.278      624.327      341.311        0.308        0.091       65.881       17.363        0.069      334.046        3.762      850.945
04/25/2014  22:47:00      -72.324       60.176      -17.673       21.012       28.791       12.705      441.504      828.940      161.418        0.530        0.072       94.084        2.345        0.001      333.971        3.636      850.950
04/25/2014  22:48:00      -85.595      -16.219       -7.354       25.428       26.243       16.262      646.608      688.706      264.446        0.462        0.080       87.118       13.572        0.024      334.051        3.770      850.936
04/25/2014  22:49:00      -84.326       14.277      -10.509       23.653       18.787       11.936      559.448      352.936      142.460        0.424        0.053       85.526        7.465        0.008      333.923        3.556      850.923
04/25/2014  22:50:00      -35.209       -7.802       -4.040       29.311        8.792        5.743      859.164       77.291       32.981        0.114        0.048       36.063        6.824        0.036      333.921        3.555      850.905
04/25/2014  22:51:00       -0.845        8.882       19.481       54.002       41.273       35.618     2916.222     1703.474     1268.655        0.317        0.294        8.922       20.180        5.116      334.229        4.065      850.869
04/25/2014  22:52:00      -27.286       48.822       -5.652       43.545       39.575       25.850     1896.174     1566.187      668.214        0.364        0.207       55.929       28.636        0.262      334.146        3.928      850.887
04/25/2014  22:53:00     -123.365      -13.833       -7.618       45.812       43.740       27.047     2098.760     1913.230      731.564        1.011        0.237      124.138       21.451        0.030      334.103        3.856      850.907
04/25/2014  22:54:00     -175.025      -47.207      -11.758       34.922       25.764       18.202     1219.563      663.760      331.317        1.761        0.111      181.279       15.258        0.007      333.936        3.576      850.936
04/25/2014  22:55:00     -160.907      -61.389       -9.558       44.009       34.386       21.398     1936.809     1182.409      457.872        1.666        0.179      172.220       20.567        0.014      333.956        3.612      850.953
04/25/2014  22:56:00      -47.875      -71.117      -12.913       48.294       22.035       17.698     2332.313      485.556      313.235        0.532        0.157       85.730       14.339        0.028      334.054        3.773      850.956
04/25/2014  22:57:00     -122.514      -43.149      -20.163       42.321       41.418       21.965     1791.050     1715.432      482.460        1.063        0.199      129.890       11.761        0.008      334.069        3.799      850.975
04/25/2014  22:58:00      -80.203      -37.515       -4.281       38.848       33.277       17.419     1509.135     1107.381      303.435        0.539        0.146       88.543       16.301        0.034      334.066        3.793      850.975
04/25/2014  22:59:00      -48.352       -1.735        0.563       44.638       25.081       13.744     1992.540      629.061      188.891        0.258        0.141       48.383       10.231        0.045      334.119        3.879      850.975
04/25/2014  23:00:00     -125.394      -23.154       -6.726       31.072       42.222       17.221      965.452     1782.714      296.575        0.967        0.152      127.514       16.215        0.016      334.102        3.854      850.985
04/25/2014  23:01:00     -155.316      -26.594       -0.838       53.045       46.509       32.034     2813.804     2163.061     1026.202        1.542        0.300      157.576       27.672        0.031      334.096        3.841      850.980
04/25/2014  23:02:00     -158.635      -29.816       -3.814       80.306       41.295       27.451     6449.095     1705.309      753.579        1.749        0.445      161.413       38.656        0.057      334.119        3.878      850.980
04/25/2014  23:03:00     -133.861      -17.274       -7.661       40.087       26.575       19.856     1606.978      706.214      394.263        1.049        0.135      134.971       18.373        0.019      334.090        3.833      850.999
04/25/2014  23:04:00      -68.891      -43.959       -1.801       48.580       40.337       21.071     2360.053     1627.080      443.995        0.556        0.222       81.721       20.911        0.065      334.127        3.893      851.006
04/25/2014  23:05:00      -54.103      -36.245       -0.398       30.250       32.295       18.540      915.066     1042.952      343.724        0.327        0.115       65.122       18.692        0.082      334.204        4.022      851.001
04/25/2014  23:06:00      -15.744      -21.948       10.211       35.572       18.329       20.529     1265.375      335.959      421.424        0.143        0.101       27.011       18.612        0.475      334.319        4.214      851.008
04/25/2014  23:07:00      -28.900      -25.184        8.021       39.077       21.312       15.038     1527.028      454.195      226.152        0.187        0.110       38.333       14.591        0.145      334.244        4.088      851.014
04/25/2014  23:08:00      -49.719       -4.596        0.716       33.806       34.265       21.670     1142.824     1174.067      469.584        0.264        0.139       49.931       20.837        0.174      334.201        4.017      851.014
04/25/2014  23:09:00      -20.118       28.431        5.329       29.673       39.168       20.361      880.473     1534.102      414.585        0.203        0.141       34.829       19.007        0.298      334.266        4.125      851.023
04/25/2014  23:10:00      -49.970       14.588      -10.579       40.505       63.716       29.271     1640.623     4059.719      856.785        0.469        0.328       52.056       31.359        0.363      334.205        4.023      851.020
04/25/2014  23:11:00      -75.214      -64.861       -6.278       34.363       29.371       19.429     1180.848      862.659      377.471        0.616        0.121       99.318       11.388        0.013      334.161        3.951      851.015
04/25/2014  23:12:00     -136.669      -45.858       -4.912       54.521       27.280       17.943     2972.556      744.205      321.956        1.242        0.202      144.157       17.966        0.016      334.147        3.928      851.020
04/25/2014  23:13:00     -127.336      -49.157       -4.765       69.538       48.535       30.217     4835.577     2355.603      913.049        1.338        0.405      136.495       22.998        0.028      334.172        3.967      851.016
04/25/2014  23:14:00      -29.631      -18.599       15.937       96.698       48.826       37.676     9350.561     2383.946     1419.485        0.731        0.658       34.984       50.252        2.063      334.232        4.068      851.010
04/25/2014  23:15:00      -50.104      -74.956       21.991       86.109       36.010       33.546     7414.842     1296.704     1125.345        0.922        0.492       90.160       41.818        0.215      334.309        4.198      851.017
04/25/2014  23:16:00      -87.981      -34.613       -8.222       43.105       39.290       20.290     1858.009     1543.691      411.665        0.641        0.191       94.544       16.506        0.030      334.283        4.153      851.020
04/25/2014  23:17:00      -51.815      -33.801      -10.055       51.510       29.873       24.741     2653.241      892.424      612.107        0.404        0.208       61.865       16.750        0.073      334.302        4.186      851.013
04/25/2014  23:18:00      -82.188      -51.944        5.197       75.509       31.725       21.512     5701.617     1006.450      462.757        0.832        0.359       97.227       24.186        0.062      334.292        4.169      851.014
04/25/2014  23:19:00     -112.111      -66.272      -11.128       49.628       30.088       19.295     2462.986      905.304      372.288        1.041        0.187      130.233       21.271        0.027      334.260        4.116      851.016
04/25/2014  23:20:00     -118.203      -20.320       -4.515       46.170       35.219       23.966     2131.659     1240.377      574.386        0.917        0.197      119.936       28.050        0.055      334.207        4.027      851.010
04/25/2014  23:21:00     -102.278      -12.367      -13.810       50.530       51.267       31.924     2553.301     2628.302     1019.115        0.850        0.310      103.023       30.229        0.086      334.236        4.075      851.007
04/25/2014  23:22:00      -97.740      -30.785       -0.518       41.669       29.360       19.620     1736.332      862.024      384.945        0.674        0.149      102.473       20.521        0.040      334.239        4.080      851.002
04/25/2014  23:23:00      -53.053      -24.075        6.167       49.951       29.263       22.317     2495.136      856.300      498.036        0.364        0.192       58.260       25.579        0.193      334.309        4.196      850.984
04/25/2014  23:24:00     -132.815      -10.779       -5.905       40.270       65.951       22.192     1621.685     4349.482      492.490        1.213        0.323      133.252       27.786        0.043      334.241        4.084      850.970
04/25/2014  23:25:00     -144.769      -58.395       -4.302       27.388       40.825       18.650      750.098     1666.649      347.819        1.358        0.138      156.103       14.706        0.009      334.215        4.040      850.963
04/25/2014  23:26:00     -147.255      -48.855       -8.823       38.869       50.879       26.736     1510.825     2588.704      714.809        1.448        0.241      155.148       24.650        0.025      334.165        3.957      850.960
04/25/2014  23:27:00     -100.410      -40.804       -0.547       42.725       44.926       25.504     1825.449     2018.373      650.448        0.812        0.225      108.384       16.799        0.024      334.252        4.103      850.946
04/25/2014  23:28:00     -129.307      -28.341      -13.154       23.583       36.450       14.574      556.176     1328.603      212.410        0.990        0.105      132.377       14.378        0.012      334.193        4.004      850.936
04/25/2014  23:29:00     -118.639      -21.819      -17.013       36.555       36.160       22.683     1336.276     1307.571      514.526        0.900        0.158      120.628       17.450        0.021      334.235        4.074      850.933
04/25/2014  23:30:00      -77.479      -49.015       -4.510       62.048       31.027       24.093     3849.972      962.690      580.485        0.691        0.270       91.681       30.754        0.113      334.291        4.166      850.928
04/25/2014  23:31:00     -149.120      -48.291       -0.818       82.024       67.683       40.870     6727.872     4581.006     1670.339        1.877        0.649      156.745       49.818        0.101      334.313        4.203      850.928
04/25/2014  23:32:00     -108.153       -0.905       -7.463       32.714       33.045       24.245     1070.235     1091.956      587.818        0.725        0.138      108.157       14.074        0.017      334.293        4.171      850.923
04/25/2014  23:33:00     -119.970      -52.801       -8.459       51.006       44.422       24.227     2601.563     1973.290      586.946        1.121        0.258      131.075       21.170        0.026      334.305        4.190      850.937
04/25/2014  23:34:00     -140.602       -9.204       -9.534       51.916       39.109       24.399     2695.306     1529.512      595.324        1.238        0.241      140.903       23.893        0.029      334.242        4.085      850.946
04/25/2014  23:35:00      -49.280      -12.851        8.465       49.659       44.432       21.029     2466.003     1974.166      442.222        0.377        0.244       50.928       18.105        0.126      334.320        4.217      850.963
04/25/2014  23:36:00     -135.512      -36.930       -0.565       79.087       47.133       25.574     6254.768     2221.551      654.036        1.443        0.457      140.454       22.591        0.026      334.315        4.207      850.969
04/25/2014  23:37:00     -142.674      -28.906       -9.819       94.860       59.747       36.445     8998.398     3569.661     1328.252        1.759        0.695      145.572       33.183        0.052      334.268        4.127      850.963
04/25/2014  23:38:00      -88.593      -29.689       -6.399       56.647       32.426       26.577     3208.840     1051.464      706.336        0.687        0.248       93.435       24.403        0.068      334.337        4.244      850.962
04/25/2014  23:39:00     -185.012      -17.829      -21.601       48.272       38.582       27.518     2330.143     1488.583      757.249        1.979        0.229      185.869       24.002        0.017      334.282        4.151      850.965
04/25/2014  23:40:00     -213.093      -57.020      -10.444       76.345       69.622       35.815     5828.611     4847.281     1282.688        3.036        0.598      220.590       27.107        0.015      334.262        4.115      850.963
04/25/2014  23:41:00     -218.892      -67.208      -12.078       59.518       60.603       28.330     3542.388     3672.755      802.572        3.030        0.401      228.977       25.770        0.013      334.245        4.087      850.963
04/25/2014  23:42:00     -153.443      -28.933       -7.153       70.157       38.720       27.246     4922.051     1499.240      742.369        1.580        0.358      156.147       25.454        0.027      334.228        4.062      850.982
04/25/2014  23:43:00     -159.698      -28.252       -9.388       48.865       40.076       28.435     2387.810     1606.087      808.563        1.560        0.240      162.177       24.756        0.023      334.241        4.082      850.990
04/25/2014  23:44:00     -136.994      -63.697       -2.721       44.855       46.853       21.141     2011.988     2195.213      446.959        1.374        0.233      151.079       16.910        0.013      334.229        4.064      850.979
04/25/2014  23:45:00     -161.814      -64.091       -4.426       42.709       42.450       20.980     1824.027     1801.973      440.174        1.719        0.203      174.044       17.294        0.010      334.226        4.060      850.980
04/25/2014  23:46:00     -144.958      -55.237       -0.325       54.605       40.876       27.700     2981.748     1670.848      767.279        1.474        0.271      155.126       29.740        0.037      334.196        4.009      850.989
04/25/2014  23:47:00     -135.434      -76.194       -2.164       51.072       43.741       29.252     2608.370     1913.263      855.656        1.476        0.269      155.396       27.956        0.032      334.224        4.056      850.996
04/25/2014  23:48:00     -152.827     -107.363       -5.377       40.542       45.055       24.536     1643.672     2029.916      602.023        1.959        0.214      186.769       24.840        0.018      334.233        4.070      851.004
04/25/2014  23:49:00     -163.961      -32.529      -11.625       33.752       29.303       24.599     1139.188      858.642      605.132        1.534        0.130      167.156       18.981        0.013      334.214        4.040      851.025
04/25/2014  23:50:00     -127.832       -7.106        4.105       54.580       43.984       30.547     2978.974     1934.574      933.141        1.113        0.292      128.030       24.949        0.038      334.229        4.064      851.038
04/25/2014  23:51:00     -121.408      -48.588       -4.948       43.782       28.610       27.009     1916.900      818.541      729.474        1.029        0.173      130.770       22.619        0.030      334.307        4.193      851.058
04/25/2014  23:52:00      -86.137      -24.150        0.164       43.915       34.431       23.898     1928.553     1185.510      571.109        0.584        0.184       89.459       21.227        0.056      334.325        4.224      851.073
04/25/2014  23:53:00      -66.173      -26.770       13.003       61.395       32.187       26.682     3769.353     1035.978      711.905        0.539        0.276       71.382       32.947        0.213      334.364        4.288      851.071
04/25/2014  23:54:00     -172.764      -31.715       -8.321       91.704       63.088       35.531     8409.641     3980.155     1262.444        2.228        0.683      175.651       42.072        0.057      334.282        4.149      851.071
04/25/2014  23:55:00     -156.152      -26.108        3.386       68.461       54.149       35.775     4686.920     2932.159     1279.878        1.699        0.445      158.320       37.256        0.055      334.263        4.118      851.069
04/25/2014  23:56:00     -125.754      -20.549        4.726       51.077       51.219       27.450     2608.820     2623.364      753.527        1.112        0.299      127.422       25.365        0.040      334.209        4.032      851.074
04/25/2014  23:57:00     -121.452        1.261       -6.931       50.482       27.147       21.345     2548.385      736.982      455.630        0.927        0.187      121.458       23.769        0.038      334.240        4.082      851.073
04/25/2014  23:58:00     -103.557       15.762        0.293       30.903       33.987       18.692      954.991     1155.103      349.397        0.672        0.123      104.750       11.028        0.011      334.265        4.124      851.080
04/25/2014  23:59:00     -141.038      -37.430       -7.234       34.814       22.364       19.878     1212.033      500.130      395.148        1.173        0.105      145.920       18.456        0.016      334.200        4.015      851.097
